GFSMW_700_rhum_000.txt.gz
RH
30 29 30 30 24 25 27 27 27 27 26 26 29 30 31 32 31 31 30 30 32 34 36 38 40 44 45 46 46 46 45 44 45 44 37 36 36 37 39 42 39 38 38
31 32 32 26 28 28 30 29 29 29 31 30 28 28 26 25 24 24 26 28 31 33 33 33 34 33 33 32 32 32 32 32 33 33 34 32 30 30 30 30 31 36 38
32 32 28 28 30 31 32 32 32 32 31 29 28 28 26 25 24 25 27 31 34 37 39 40 41 41 42 42 42 44 45 45 45 46 49 55 54 75 56 67 57 50 54
33 28 29 32 33 35 34 33 33 33 30 27 25 29 33 33 32 32 33 35 36 37 38 39 40 41 41 42 42 42 42 42 42 42 46 53 61 73 67 68 79 85 75
32 31 33 34 36 35 36 36 35 32 31 32 37 39 39 39 38 39 40 41 44 46 47 49 51 52 53 52 51 50 48 46 44 42 41 41 44 50 64 51 54 60 73
33 36 35 35 35 38 37 37 36 36 39 43 44 44 46 47 48 48 49 50 53 57 60 61 60 59 57 55 54 52 52 53 53 52 50 46 42 40 42 47 44 47 47
36 37 35 35 38 38 40 40 42 48 49 48 49 52 54 55 56 58 59 61 62 62 61 60 58 57 56 55 54 52 52 53 55 55 53 51 49 47 45 45 42 43 38
37 37 35 39 39 42 44 48 53 52 51 52 52 53 54 58 61 64 66 67 67 65 64 61 59 58 56 54 50 49 49 50 50 48 46 44 43 43 46 51 52 47 42
41 39 38 39 43 45 51 58 55 53 51 50 52 53 57 66 72 73 74 73 70 65 60 59 58 57 55 53 50 46 43 40 36 32 26 22 21 19 26 37 44 56 56
44 39 39 43 45 50 63 61 57 57 58 58 59 60 61 65 68 69 69 65 56 52 56 57 56 55 53 48 37 27 19 13 11 9 8 6 5 3 2 4 13 31 54
41 40 43 45 49 60 67 62 62 63 65 66 67 68 71 70 64 62 57 47 47 52 52 55 57 55 50 38 24 14 12 12 12 11 10 9 8 7 6 6 5 5 15
44 46 44 45 57 64 69 66 66 67 68 68 73 69 64 69 73 62 51 42 53 55 58 60 58 52 40 24 15 13 13 12 12 12 13 12 10 8 7 6 6 6 8
48 47 43 59 62 69 74 70 69 71 74 77 76 75 73 73 81 76 47 57 60 62 62 59 55 43 25 18 15 14 14 14 14 14 14 13 12 10 8 6 6 5 6
50 46 59 64 66 73 73 72 74 79 76 69 71 68 62 87 81 51 59 66 67 66 62 51 33 21 17 17 16 16 18 18 17 17 19 18 16 13 10 8 6 6 5
46 57 61 64 66 71 73 77 85 87 74 74 83 84 95 74 50 62 67 65 70 65 49 28 18 17 15 16 22 23 21 20 18 21 26 23 18 14 10 8 7 8 9
54 56 62 68 69 70 79 82 79 78 78 87 95 98 85 54 62 68 70 73 67 50 27 21 15 12 21 28 25 28 27 30 32 29 24 18 13 11 9 10 14 21 23
56 61 62 62 64 67 67 66 74 86 93 98 99 87 56 64 64 70 76 70 50 22 10 10 20 24 22 23 29 40 40 34 27 21 16 12 11 12 15 22 30 30 24
51 46 47 47 52 55 71 86 96 98 100 97 66 55 63 66 70 69 44 14 8 11 19 22 17 15 20 32 38 38 32 23 17 14 12 13 13 21 32 36 42 36 28
31 29 31 39 44 65 73 84 97 97 73 48 58 64 68 69 48 17 9 11 18 18 13 14 16 20 22 31 35 30 22 17 14 12 15 23 29 28 40 90 51 37 24
14 18 26 32 39 47 49 49 64 58 52 60 66 68 57 28 12 10 18 21 16 12 14 15 22 30 30 29 26 22 19 17 16 16 20 29 40 35 45 57 52 40 21
15 19 22 26 32 42 46 49 48 50 57 62 63 43 19 12 14 22 24 14 13 15 18 20 24 25 27 25 19 18 21 24 27 29 32 36 48 45 56 56 50 41 22
19 22 25 30 39 45 47 46 48 52 58 58 36 20 14 18 28 24 14 13 15 18 20 20 19 22 19 16 18 23 26 31 39 38 41 75 97 62 57 49 47 33 25
25 29 33 38 42 42 42 42 48 57 56 35 22 17 21 30 26 16 14 14 17 18 17 18 15 13 14 17 22 26 26 33 42 44 70 82 58 50 46 46 47 30 28
30 35 37 37 35 35 41 51 58 52 36 24 18 25 29 20 15 16 18 17 14 12 15 14 14 14 16 21 27 28 37 46 50 75 97 44 43 44 46 47 38 27 26
33 35 34 32 34 45 56 58 50 37 24 20 28 31 22 15 14 14 16 13 12 15 17 17 18 22 23 29 42 50 52 53 80 74 49 40 40 38 42 43 30 24 21
33 34 33 34 42 56 57 49 36 24 24 31 30 22 17 15 15 15 11 11 12 15 16 18 22 27 36 44 51 50 51 52 57 53 50 44 43 45 47 40 25 22 12

GFSMW_700_rhum_003.txt.gz
RH
35 32 28 29 28 24 27 28 28 29 30 30 32 31 29 27 27 28 29 30 33 36 38 38 39 40 41 41 41 40 40 40 41 38 36 34 33 35 36 35 36 37 39
36 33 32 30 27 30 31 31 32 32 31 31 28 26 27 27 27 26 28 32 32 35 38 38 39 39 39 40 40 40 40 41 42 42 42 39 34 36 35 36 37 39 44
35 34 32 29 33 35 35 34 33 32 31 29 25 24 28 31 33 33 34 35 38 39 41 44 47 49 50 52 52 53 53 51 50 51 51 47 42 38 38 39 40 44 57
36 34 31 35 38 37 35 34 34 32 29 24 27 37 41 41 41 42 43 45 47 49 52 55 58 60 61 61 59 58 56 54 53 52 54 54 56 55 41 43 44 44 44
34 35 36 38 37 37 38 36 31 27 26 34 44 46 45 47 50 51 53 55 57 59 61 63 63 60 56 53 50 49 48 48 48 50 50 50 51 54 55 44 49 49 49
36 37 39 38 39 39 37 34 33 36 43 49 50 49 49 48 51 55 58 60 62 63 60 55 50 45 41 39 41 44 46 47 47 48 49 48 45 43 36 37 43 42 42
36 39 40 40 41 40 40 37 39 46 51 51 48 46 44 44 44 47 51 56 55 50 45 38 32 31 35 41 44 46 47 47 46 42 36 29 18 10 6 4 4 5 11
38 38 41 42 42 43 41 41 49 53 54 54 54 55 55 53 51 51 51 47 40 34 19 22 34 41 42 44 46 46 44 43 41 36 26 17 12 11 10 9 7 11 7
41 42 44 42 43 46 45 49 56 57 59 61 62 60 55 55 53 51 52 51 52 54 30 38 45 46 46 48 48 46 43 38 28 18 13 12 11 11 12 13 13 37 70
46 46 45 43 46 50 50 58 64 63 65 66 64 59 50 54 65 63 60 58 56 52 40 49 49 48 51 51 48 44 39 33 28 26 23 18 14 13 13 14 14 12 14
50 50 45 47 50 50 55 66 68 69 69 68 66 59 60 73 66 52 48 43 35 41 45 47 51 57 58 56 51 45 40 35 25 15 12 12 14 14 14 15 17 17 14
55 49 51 52 47 55 66 68 73 75 71 71 65 68 79 81 79 73 75 40 42 44 48 53 58 61 56 49 39 23 11 11 13 14 12 12 14 15 20 21 21 21 18
53 53 52 51 49 62 66 70 77 73 70 70 81 88 87 85 75 81 67 40 43 48 52 56 55 46 31 14 12 12 11 9 10 12 14 16 19 21 24 24 21 18 16
50 51 52 50 56 64 66 70 72 71 76 81 90 93 95 84 84 80 44 44 47 49 48 39 21 12 13 12 8 7 8 8 10 12 17 19 20 17 15 14 13 14 19
50 51 49 55 62 65 66 68 67 76 84 84 96 99 80 84 86 49 44 48 47 37 19 11 12 13 8 7 8 10 10 12 13 17 18 18 15 13 11 13 15 53 72
50 50 57 58 60 62 61 62 73 79 91 96 99 87 59 62 41 42 46 42 27 12 10 11 8 7 7 8 11 14 15 16 19 19 16 15 13 12 16 24 35 55 100
55 54 50 46 42 46 60 67 70 81 90 82 57 45 43 40 43 45 38 22 11 10 8 7 7 6 8 9 11 15 17 20 19 15 14 13 15 21 27 32 79 92 74
58 50 36 22 30 45 55 62 74 71 70 53 40 40 39 44 44 36 18 12 10 8 6 6 7 7 8 10 12 15 16 13 12 14 17 18 24 37 42 87 100 71 50
43 21 7 10 20 32 45 50 50 45 43 37 41 43 47 46 32 18 13 10 9 6 6 7 9 9 9 10 11 12 11 11 13 18 20 23 37 46 91 100 73 47 35
14 5 12 16 21 26 31 34 35 36 38 42 49 53 51 34 21 16 12 12 7 6 7 9 10 10 11 11 11 12 14 16 19 21 24 34 45 70 100 88 75 44 41
13 17 18 21 23 26 32 36 36 40 46 54 57 54 38 26 18 15 15 9 8 8 10 10 9 10 12 11 11 14 20 24 26 30 35 39 54 100 83 56 45 45 46
21 23 23 23 27 31 34 36 38 43 50 55 51 39 30 20 18 18 13 10 10 11 11 9 8 10 10 10 13 18 24 32 44 42 41 44 95 53 43 41 41 47 50
26 24 23 25 30 34 34 34 35 42 50 50 43 33 24 21 22 16 13 11 13 12 10 9 9 8 8 10 16 25 33 38 45 52 92 50 47 40 40 40 47 55 42
25 22 24 29 33 34 34 35 40 48 47 42 33 25 22 22 17 16 16 15 14 10 10 10 9 8 9 14 25 34 39 41 59 93 50 53 48 43 43 43 50 46 35
18 20 28 34 36 36 37 40 44 44 39 32 26 24 25 19 16 16 16 15 12 11 11 10 10 10 15 26 40 43 41 54 66 56 55 52 48 43 42 47 49 35 26
20 26 34 39 40 40 42 42 40 36 30 26 26 24 20 20 18 17 15 14 12 12 12 12 14 20 33 41 41 41 45 50 57 60 65 61 56 50 50 50 36 27 18

GFSMW_700_rhum_006.txt.gz
RH
36 36 32 29 31 28 26 28 29 29 30 30 31 32 31 29 28 27 30 34 35 35 35 36 36 37 38 40 43 44 44 43 44 42 36 34 30 28 34 27 30 30 31
36 36 33 31 28 29 31 32 32 32 32 32 31 29 27 28 29 30 32 33 34 36 38 40 42 45 45 46 46 46 44 42 43 40 36 27 18 24 30 30 25 28 32
34 36 33 32 31 35 35 34 34 33 33 31 28 26 30 36 38 38 40 41 43 45 46 47 47 48 50 51 48 44 39 33 30 32 37 36 30 22 24 21 24 26 31
35 36 33 32 36 37 36 35 35 33 29 25 23 31 40 43 44 45 46 45 43 46 49 53 56 54 45 35 29 24 24 24 26 26 28 30 35 36 23 26 26 27 30
37 36 34 36 39 37 36 35 30 26 26 32 43 48 47 44 39 36 36 42 51 58 58 49 33 18 15 18 22 25 26 27 30 33 36 37 36 36 35 25 30 30 26
37 36 36 38 37 38 36 32 28 27 32 40 49 49 46 46 48 47 46 46 42 37 32 30 34 18 19 23 25 26 28 32 36 38 38 36 34 30 27 26 26 24 23
35 36 38 38 38 39 36 33 33 35 43 50 54 56 56 53 43 34 34 36 37 36 29 21 19 19 21 24 27 30 32 34 38 39 38 38 36 34 32 30 29 27 26
38 37 38 39 41 40 39 38 39 42 49 56 60 59 56 51 37 35 40 45 44 29 18 18 21 23 24 26 30 32 35 38 41 40 38 28 19 12 10 10 11 10 9
40 37 40 42 42 41 43 44 46 48 58 61 64 61 58 50 43 50 57 51 42 29 23 25 27 27 28 31 32 32 30 22 12 6 5 5 4 5 5 6 8 17 17
42 40 44 46 43 42 48 49 50 56 64 68 69 65 63 54 55 64 62 56 49 32 29 29 29 29 30 28 22 12 7 5 4 4 4 5 6 6 8 10 12 19 28
44 45 48 49 45 49 49 51 56 65 68 74 75 70 64 66 76 83 75 62 52 33 32 32 32 31 22 11 8 5 4 4 4 4 5 6 8 9 12 14 15 15 17
46 51 54 51 50 52 50 55 63 68 72 78 76 73 70 75 89 88 72 62 40 38 35 34 30 17 8 7 4 4 4 4 5 5 6 8 10 13 16 15 15 14 15
48 53 56 55 54 53 51 57 65 69 73 77 77 84 83 87 99 86 56 38 39 37 35 29 15 9 7 5 5 4 4 5 5 5 5 8 14 14 15 14 13 14 31
49 54 55 55 53 51 53 60 67 69 74 75 77 86 91 100 67 44 37 36 39 38 29 15 9 7 5 5 5 5 5 6 6 5 7 9 10 10 10 12 13 44 88
44 48 56 54 51 51 58 63 67 71 73 70 73 89 98 64 54 39 36 41 41 30 15 11 8 6 5 5 6 6 6 7 7 6 6 8 9 10 13 16 22 49 85
49 55 54 50 51 57 55 58 62 63 71 71 79 87 72 64 40 38 42 40 31 17 13 9 7 5 6 6 7 7 7 7 7 7 7 9 10 14 18 22 36 47 100
54 53 51 54 55 50 44 46 51 62 68 76 84 82 58 41 38 43 40 33 20 16 11 9 5 6 6 7 7 7 7 7 8 8 10 12 16 20 23 28 40 100 98
48 53 58 55 44 29 23 28 38 55 64 64 66 56 41 38 43 44 37 24 19 14 11 6 6 6 7 8 7 7 7 6 7 11 13 17 21 26 34 54 93 92 55
60 61 49 31 9 7 14 24 37 44 47 46 47 41 39 46 49 40 28 22 18 14 9 6 7 7 8 8 8 7 6 5 6 13 20 30 36 43 68 100 100 74 38
59 42 21 8 13 16 20 24 31 39 40 40 43 43 49 53 41 31 25 20 17 12 8 8 9 9 8 8 8 7 6 6 13 22 29 35 38 54 100 98 97 59 41
41 19 14 17 19 21 24 30 37 39 43 47 45 53 53 44 33 26 23 21 15 11 10 10 10 9 9 8 8 6 9 17 22 27 30 39 71 94 56 54 59 52 43
23 19 20 21 22 24 29 34 38 40 42 42 51 54 45 33 27 24 24 17 13 12 12 11 10 10 9 9 8 9 17 28 33 32 42 62 61 57 56 55 52 47 48
23 23 22 19 21 27 32 35 35 38 44 51 52 40 31 28 28 25 18 15 15 14 13 12 11 10 10 10 10 16 25 28 36 48 98 52 56 62 56 53 52 56 59
24 21 18 19 24 29 33 37 40 45 48 46 35 32 33 32 27 22 20 19 17 15 14 13 12 11 11 12 16 24 28 31 38 89 51 56 62 61 59 53 57 61 49
20 17 18 21 27 31 35 41 44 45 38 36 41 45 38 29 24 23 22 19 18 17 16 14 14 14 14 16 24 33 33 35 51 57 53 60 64 59 54 55 58 46 33
14 15 20 24 28 34 41 41 37 38 44 56 58 49 36 28 28 26 21 20 19 18 17 17 17 17 21 27 32 36 36 41 54 56 65 68 64 59 55 55 42 31 66

GFSMW_700_rhum_009.txt.gz
RH
35 34 35 34 31 29 29 26 27 28 29 30 30 31 32 32 31 30 32 34 35 34 33 34 35 38 41 43 42 33 26 22 20 15 12 11 9 13 15 16 16 18 22
37 37 36 33 30 30 28 29 31 32 32 32 32 32 30 29 29 30 32 33 35 37 40 43 44 44 36 28 25 19 13 11 11 10 10 8 8 11 14 13 13 13 14
35 36 37 33 31 29 31 33 34 36 34 33 32 30 28 28 34 39 41 43 44 43 40 34 30 28 25 23 16 11 11 12 13 16 19 16 13 10 13 12 13 17 20
36 35 36 33 31 32 35 36 35 35 32 27 24 27 35 42 45 45 42 38 33 31 31 28 26 23 19 20 17 14 14 15 15 14 16 18 21 24 16 20 17 17 16
36 37 36 33 34 35 36 34 34 28 24 23 27 36 45 47 45 43 40 35 27 24 26 21 15 10 11 13 14 14 15 16 16 17 20 21 20 19 16 7 6 4 4
37 38 36 34 35 36 34 35 31 29 30 29 33 43 50 52 50 46 41 26 22 22 19 19 13 12 13 14 15 16 15 15 16 17 16 13 7 4 4 4 4 4 4
39 38 36 35 36 35 35 35 33 34 35 34 39 50 57 57 53 48 30 24 24 23 24 18 14 14 16 16 16 16 16 15 14 10 6 4 4 4 4 4 4 4 4
40 38 37 37 37 36 38 37 37 39 40 42 49 57 60 60 56 49 32 32 34 31 26 20 17 18 18 18 18 17 15 11 8 4 5 5 4 4 4 4 4 3 3
38 37 37 38 38 39 40 39 41 43 45 50 57 61 64 64 62 53 37 41 41 31 24 19 19 20 20 19 17 14 10 8 5 5 5 5 5 5 4 4 4 10 7
38 38 37 38 41 42 42 42 46 47 50 56 62 65 69 70 66 59 46 44 43 30 22 20 22 24 22 18 13 9 8 5 5 6 5 5 5 5 5 5 6 10 17
39 40 38 39 44 46 45 46 49 50 55 60 65 69 74 73 72 65 53 47 33 23 23 25 27 26 20 13 11 7 5 5 5 6 6 6 6 5 5 5 5 6 12
39 42 41 42 48 51 49 51 51 52 56 62 69 71 75 75 67 62 54 44 30 25 27 30 30 23 15 13 8 5 4 5 6 6 6 6 6 6 6 6 6 8 11
40 42 45 48 52 55 56 54 52 53 57 64 69 72 75 72 62 62 48 38 29 30 33 32 25 17 14 12 7 4 4 6 6 7 6 6 6 5 6 7 10 13 20
39 39 44 51 56 60 58 53 51 54 61 67 72 75 77 73 67 64 54 36 33 35 35 29 20 16 15 10 6 5 5 6 7 7 6 6 5 6 7 10 17 37 39
41 41 44 54 58 60 55 51 53 60 64 68 71 73 76 76 69 63 43 37 36 37 34 24 20 18 13 8 5 6 6 7 7 7 6 5 5 6 10 33 54 59 76
50 47 50 55 57 58 52 54 59 57 57 60 62 72 77 67 56 45 42 39 41 38 27 23 22 15 9 6 7 8 8 8 8 7 5 4 6 9 16 27 49 100 100
51 52 55 57 58 53 54 57 54 48 44 46 58 64 63 55 48 46 40 41 39 29 26 23 15 10 8 8 8 9 9 8 8 6 5 6 11 20 27 27 43 98 100
52 53 55 55 52 58 58 46 30 21 29 44 52 54 47 50 46 40 42 40 32 28 23 16 11 9 10 10 10 10 9 9 8 6 9 17 22 27 33 71 100 100 93
51 53 53 56 61 51 26 8 12 18 24 34 43 37 40 40 40 44 40 32 29 24 18 12 12 13 12 12 11 11 10 9 8 9 18 26 27 32 97 100 99 61 49
58 58 61 60 40 17 13 16 18 21 27 34 34 37 39 41 45 38 32 31 28 20 15 16 17 16 14 13 12 12 11 10 10 13 21 27 33 76 100 96 62 54 54
59 63 56 38 20 17 19 20 21 25 29 32 37 42 43 45 36 34 35 34 22 18 20 21 18 16 15 14 13 13 13 14 14 19 24 27 47 100 77 70 63 69 66
66 54 37 23 20 21 20 19 22 26 32 36 40 46 44 35 36 43 39 25 22 25 24 21 18 17 15 15 15 15 16 20 28 28 31 32 54 56 55 63 58 57 59
46 32 24 23 22 19 18 21 27 33 35 40 48 41 36 42 52 45 31 28 30 26 22 21 19 17 16 16 17 17 18 23 32 36 37 42 53 59 61 58 59 61 65
28 25 24 20 17 17 20 25 31 35 40 42 36 38 50 58 54 40 35 34 29 24 23 21 18 17 16 18 18 19 20 30 35 38 42 54 61 64 61 57 59 62 52
25 22 17 14 13 18 23 28 33 36 36 36 44 56 61 61 55 43 38 33 27 25 23 20 19 18 18 20 22 25 33 38 42 47 55 61 65 58 54 56 57 45 51
12 8 9 11 14 17 25 32 33 34 40 49 58 64 64 63 54 43 37 30 27 25 22 20 20 20 23 24 25 30 37 41 51 61 70 69 63 58 58 55 44 66 97

GFSMW_700_rhum_012.txt.gz
RH
34 32 31 36 35 34 32 30 29 26 27 28 28 30 31 33 34 32 30 30 30 31 33 36 38 42 43 38 26 18 14 10 9 7 6 6 6 7 8 9 9 12 12
36 38 37 35 35 32 29 28 27 29 31 32 32 33 32 32 30 29 31 34 37 41 43 42 37 30 24 20 14 9 7 6 7 7 6 6 5 6 4 4 5 5 4
35 39 38 37 35 32 29 29 31 33 35 34 34 33 30 28 30 36 42 45 43 39 35 31 23 15 11 9 7 6 6 7 7 8 9 7 6 4 4 4 4 4 4
32 41 37 37 35 32 31 33 35 34 34 32 26 26 30 38 45 48 46 44 40 35 25 14 12 11 10 8 7 8 8 8 8 9 9 10 10 8 5 4 4 5 5
34 40 36 37 34 33 34 36 36 35 30 25 27 29 35 44 48 51 48 41 33 20 15 13 12 11 9 8 8 8 10 10 10 10 10 10 8 6 5 6 6 6 6
37 37 38 37 35 34 36 37 36 32 30 32 33 33 38 45 52 51 48 41 28 14 14 13 11 10 8 8 9 11 11 11 11 11 10 9 7 6 6 6 7 7 8
36 35 38 37 36 36 39 37 36 34 35 38 38 40 42 48 52 52 45 36 25 15 14 13 12 10 9 10 11 12 12 12 12 11 10 8 6 6 7 7 8 8 9
40 40 39 37 38 38 39 38 38 37 38 41 42 43 47 52 53 50 46 40 30 20 19 16 12 11 11 13 14 15 14 13 12 9 8 6 6 6 7 7 7 9 10
41 41 39 38 39 40 40 41 41 40 41 43 44 46 51 54 55 55 54 48 33 24 22 15 12 13 14 16 16 15 14 14 12 8 6 5 5 6 7 7 6 6 6
40 40 39 39 39 41 42 43 44 43 44 46 48 50 55 59 60 59 56 53 34 26 21 16 15 16 18 19 18 16 15 15 12 8 4 4 5 6 7 7 6 6 8
38 39 37 39 39 42 45 45 47 46 47 50 51 54 59 63 63 60 60 51 36 29 22 18 17 20 22 21 18 17 18 17 11 6 4 5 6 7 7 6 5 5 6
37 39 39 39 40 42 46 50 50 51 52 52 52 55 62 64 63 63 59 50 40 33 24 21 22 23 22 20 20 20 18 12 7 5 5 6 7 8 7 5 4 5 8
40 40 40 41 41 43 48 52 56 58 54 52 52 58 64 65 66 63 57 54 43 32 26 24 24 24 22 23 22 18 11 8 6 6 7 8 8 7 6 5 6 8 13
41 40 40 42 44 45 49 56 60 60 54 52 56 62 62 65 63 58 60 56 38 29 26 27 26 25 25 23 17 13 10 8 8 9 10 9 8 7 6 7 12 28 39
39 39 40 42 46 48 52 57 61 57 53 55 61 60 60 57 56 61 62 44 32 28 28 29 27 27 24 19 14 11 11 12 12 11 10 9 8 8 11 26 32 48 57
39 47 46 44 47 50 54 60 60 54 55 60 57 52 47 47 55 57 42 32 29 30 33 29 29 28 20 14 14 17 17 16 13 11 10 10 9 11 16 23 30 86 100
43 41 50 51 52 54 59 60 55 57 59 50 38 30 38 46 39 37 32 29 33 33 31 33 32 22 17 20 22 20 17 14 12 12 11 10 12 18 21 23 49 100 100
40 46 53 55 56 59 59 54 59 57 36 16 20 30 37 29 30 30 29 34 33 34 37 35 24 21 26 26 22 18 16 14 13 13 13 14 14 23 32 78 100 100 91
52 54 56 57 58 57 56 62 48 17 13 20 25 27 26 28 29 30 35 33 36 40 38 28 27 31 28 23 20 17 15 14 14 14 16 19 25 32 68 100 100 87 53
56 55 56 56 58 60 59 39 18 18 21 23 24 24 28 29 31 36 34 41 44 41 33 33 33 29 25 22 18 17 16 15 15 16 18 26 35 37 99 100 93 69 62
55 57 61 60 63 54 35 22 21 23 22 21 23 26 29 34 35 36 45 46 42 39 37 36 31 28 24 20 17 17 19 20 20 21 24 30 36 72 80 87 74 73 78
64 61 65 64 49 31 24 24 22 20 19 21 24 29 35 34 39 45 46 47 44 39 37 33 30 27 22 17 16 17 20 23 32 32 34 36 50 60 63 67 65 62 63
70 67 55 41 28 25 23 19 17 17 19 24 30 34 35 42 46 48 50 48 41 39 35 31 28 22 15 14 15 17 19 23 32 41 41 46 64 66 68 64 62 66 62
54 45 32 26 24 20 14 13 14 17 23 30 33 36 42 44 52 55 53 44 41 36 31 28 20 14 12 13 14 16 21 31 39 44 50 64 69 72 67 59 61 69 99
33 28 25 19 11 11 12 14 17 24 30 33 39 42 46 53 54 54 50 45 37 31 28 20 14 13 12 14 17 28 39 44 52 58 62 69 70 59 55 60 85 99 99
26 18 13 14 14 12 13 18 25 30 34 41 44 48 56 57 55 52 48 42 32 28 19 14 15 15 18 18 28 38 41 49 56 60 72 70 64 59 70 94 97 100 100

GFSMW_700_rhum_015.txt.gz
RH
41 40 30 26 25 28 35 34 34 32 30 28 28 29 29 31 34 34 33 33 33 34 38 43 43 38 30 23 12 8 8 7 6 6 6 5 5 4 5 5 5 5 4
43 41 34 31 33 36 34 33 31 29 27 28 31 33 33 33 33 32 33 36 40 45 45 40 35 26 15 10 9 8 7 6 6 6 4 4 5 6 6 5 5 5 5
53 47 33 38 37 36 33 31 29 29 31 33 35 34 34 31 31 35 42 47 47 46 41 33 20 12 10 9 9 8 6 6 6 6 6 7 7 7 6 6 6 6 6
54 52 35 39 39 37 34 31 30 32 34 35 34 29 27 32 38 46 49 51 48 43 33 18 11 10 10 9 8 7 6 6 6 7 8 10 10 9 7 7 7 7 7
56 52 35 40 39 38 33 33 35 36 36 34 27 30 32 34 39 47 52 52 47 38 26 12 10 10 10 9 8 7 8 8 8 8 9 9 10 10 9 8 8 9 9
58 51 43 40 39 37 34 35 37 37 35 31 34 37 39 41 45 50 50 45 37 28 18 13 11 10 10 9 8 8 9 10 11 11 12 12 12 11 10 9 8 8 8
54 49 48 40 40 37 35 37 39 38 34 36 40 42 43 46 49 50 48 42 34 30 22 14 13 12 11 10 10 10 12 12 13 13 13 14 14 12 8 7 7 7 7
40 42 43 42 40 37 37 39 40 38 38 41 43 44 46 48 50 52 50 49 45 40 31 20 17 15 12 11 11 12 13 13 14 15 16 17 16 12 7 5 5 6 7
38 42 45 44 40 38 39 41 40 40 42 43 45 47 48 50 53 56 56 54 52 49 37 26 20 16 14 13 13 14 15 15 17 18 18 16 11 8 6 6 7 7 8
36 41 46 43 40 40 41 42 42 43 45 45 48 50 51 53 58 63 63 62 59 51 38 28 21 17 15 15 16 16 17 18 20 18 15 12 9 8 8 8 9 9 8
34 38 42 42 40 42 42 44 44 46 47 49 52 53 53 57 62 65 65 64 58 47 36 27 22 18 17 18 18 19 20 20 20 17 13 11 12 12 13 12 10 9 7
35 38 41 41 40 43 42 45 46 49 52 56 59 56 56 59 64 67 64 61 52 40 33 26 20 19 21 21 21 21 22 22 17 16 16 20 21 19 14 11 9 8 8
39 38 40 40 41 43 42 44 47 52 58 62 63 57 58 61 66 65 61 54 42 39 33 25 22 22 21 22 25 25 21 19 19 25 27 25 21 16 12 10 10 10 11
44 42 41 41 43 44 44 44 47 54 61 66 63 58 59 64 65 61 54 42 41 36 28 25 23 22 24 27 25 21 21 25 28 28 24 19 15 12 11 11 12 14 17
40 41 42 42 44 45 46 45 47 55 64 65 60 59 63 65 59 46 41 44 36 29 26 24 23 27 29 26 23 25 28 29 27 23 18 16 14 13 13 16 17 20 26
33 40 41 42 45 46 48 48 51 58 65 62 60 62 64 55 38 35 38 33 29 26 25 24 27 31 28 26 29 30 28 27 24 21 18 15 14 14 16 18 23 35 100
41 40 47 46 48 48 52 53 56 64 64 61 63 62 40 28 32 32 30 27 26 26 25 30 32 30 29 30 30 29 28 26 23 19 15 13 14 17 17 17 25 49 92
47 36 40 42 51 54 56 60 66 64 61 63 51 21 22 28 30 29 28 26 27 26 30 34 32 30 32 32 31 29 25 20 16 13 12 14 16 18 26 32 63 99 96
54 51 50 55 59 63 66 64 60 62 60 32 19 24 27 28 28 29 29 27 27 33 36 34 31 33 32 31 28 22 17 12 10 11 14 18 20 26 38 94 100 84 61
58 58 59 62 65 64 61 62 63 47 26 23 25 25 24 27 29 30 27 29 34 39 34 32 34 33 31 27 20 14 10 8 9 10 14 20 33 42 91 100 83 67 66
63 62 63 65 62 64 65 57 40 28 26 25 22 23 25 27 29 27 31 37 40 35 33 35 34 32 26 19 14 9 9 12 12 14 17 28 42 86 75 71 69 68 63
62 62 62 65 66 65 53 35 28 26 22 20 21 23 26 28 28 34 42 44 36 36 39 36 32 28 21 15 10 8 10 14 23 28 34 41 58 66 66 67 64 62 71
67 68 68 71 59 44 31 27 22 17 16 19 22 26 28 30 36 44 43 39 42 44 41 35 30 23 20 12 8 9 10 17 34 41 42 53 60 65 64 61 69 95 99
72 68 58 47 34 28 23 15 13 14 18 21 26 27 33 42 48 48 46 47 50 46 37 33 25 22 14 9 9 9 16 28 36 44 46 57 66 69 62 77 97 99 98
54 42 33 29 22 13 12 14 14 16 22 25 28 36 44 48 48 51 53 54 52 39 34 25 20 15 11 9 13 21 32 40 48 47 52 58 62 56 83 96 98 98 98
43 30 20 14 15 17 17 16 18 21 25 30 39 44 47 48 50 54 55 56 42 36 27 20 14 10 12 13 20 30 38 47 51 50 58 60 59 85 94 94 94 98 97

GFSMW_700_rhum_018.txt.gz
RH
50 52 45 39 24 22 23 26 26 24 33 38 35 33 32 34 37 38 38 37 36 35 40 46 45 42 36 23 12 9 8 8 8 7 6 6 5 5 6 7 6 6 6
54 51 41 41 29 26 27 31 35 36 35 34 32 32 32 34 35 35 36 35 37 44 48 47 43 32 17 11 10 9 9 8 8 7 6 6 6 6 7 8 8 8 7
52 54 48 44 33 31 36 36 35 33 30 29 30 33 35 35 34 33 36 43 48 50 51 46 36 22 12 11 10 9 9 8 7 7 7 6 7 7 7 8 8 8 9
58 58 54 53 36 37 37 36 32 30 30 33 35 36 35 31 33 38 44 49 54 54 49 40 28 16 12 11 10 10 9 9 8 8 8 8 8 8 8 9 9 9 9
55 56 55 54 43 38 39 36 33 32 35 36 36 33 30 34 38 42 49 54 54 49 42 34 22 15 12 11 11 10 10 9 9 9 9 9 10 11 11 10 10 10 10
58 55 56 57 50 38 39 37 33 34 36 37 32 32 38 41 44 48 52 52 51 46 40 30 23 17 14 13 12 11 11 10 10 11 12 12 13 12 12 11 11 11 10
54 56 57 56 51 40 40 37 35 36 38 36 34 40 43 44 47 50 51 51 50 47 42 37 32 20 15 14 13 12 12 12 13 14 14 14 15 15 14 13 12 10 10
52 56 58 56 52 47 40 36 37 39 39 36 40 43 45 46 49 52 54 58 57 54 50 43 32 21 18 16 14 13 13 15 15 15 15 15 15 16 15 14 13 12 12
56 59 58 58 55 50 41 37 40 41 40 39 42 43 46 50 52 56 58 62 63 62 59 50 34 25 20 16 14 14 15 15 16 16 15 16 16 15 16 19 22 24 20
52 58 59 59 54 50 41 40 43 43 43 43 45 47 51 54 57 58 60 64 68 67 64 50 34 27 20 17 15 15 17 17 16 16 17 17 18 20 22 24 25 23 19
50 53 52 56 58 48 41 43 45 44 45 47 49 52 57 60 60 60 62 68 72 69 59 40 33 24 20 17 16 17 18 16 17 18 19 20 21 21 22 24 22 19 14
41 47 55 58 55 47 43 44 46 46 48 51 54 58 64 65 61 62 66 73 73 65 45 37 27 21 18 18 18 18 17 18 18 20 20 21 22 24 24 22 20 16 14
46 52 50 46 46 44 44 46 47 49 51 55 59 66 70 68 63 66 73 75 68 49 40 29 22 19 19 19 19 18 17 19 20 20 22 24 24 23 21 19 16 15 14
45 44 43 42 43 44 46 47 47 49 53 58 64 70 72 66 65 72 75 69 49 42 32 24 21 20 20 20 18 18 19 20 20 23 25 22 19 16 15 14 15 16 18
48 47 44 44 45 46 48 49 48 49 52 59 66 72 70 66 70 73 68 44 37 31 25 22 22 22 21 20 19 19 19 21 25 23 18 16 13 11 12 16 18 21 25
43 46 52 54 50 48 48 50 51 51 54 62 70 71 66 69 69 63 34 36 32 26 23 22 22 23 22 21 22 22 23 26 21 17 16 11 8 8 10 14 18 29 90
38 34 44 48 50 50 53 55 57 58 60 66 70 67 66 66 50 30 32 30 26 23 24 24 24 24 23 23 24 26 26 21 19 16 11 7 7 9 11 14 26 51 96
47 37 42 49 50 54 58 62 62 62 68 70 67 65 61 32 28 30 28 24 24 25 25 27 27 26 26 27 28 28 23 20 18 12 8 7 8 13 24 34 58 70 58
55 54 50 51 56 60 66 69 70 72 68 65 64 43 26 29 30 27 24 24 26 27 29 29 28 30 32 32 31 25 22 21 16 9 7 11 18 29 41 84 61 53 55
58 59 60 61 66 68 70 71 69 66 66 54 35 28 29 27 24 24 24 26 27 30 28 31 35 37 35 33 27 23 22 18 11 7 7 18 32 38 51 57 57 54 50
63 65 65 68 70 70 68 67 66 60 47 33 29 27 24 22 23 25 27 29 30 31 34 36 39 39 35 30 25 22 15 10 7 8 17 29 39 45 52 59 57 53 68
65 68 68 70 69 68 68 64 56 42 32 27 23 20 20 22 25 29 32 30 32 37 38 38 40 37 32 28 25 16 10 10 14 21 30 38 45 50 56 56 58 87 93
65 67 68 69 70 69 61 47 35 28 21 17 18 19 22 26 30 31 31 36 39 38 40 41 37 35 31 27 18 11 8 13 24 33 37 43 48 53 55 66 98 96 93
66 68 71 71 63 50 36 28 18 13 16 18 20 24 27 32 31 33 37 40 41 44 43 38 37 34 29 21 12 8 11 22 30 35 38 46 51 58 71 92 95 96 95
70 65 57 44 34 25 15 14 17 17 18 21 24 28 30 31 36 41 42 44 50 46 40 39 35 31 25 14 9 12 21 30 36 39 41 46 51 72 85 90 97 97 96
59 50 34 21 16 18 21 21 20 19 21 24 27 28 31 38 41 43 49 57 50 42 41 37 32 25 14 10 12 22 29 37 40 40 46 51 75 86 88 91 92 97 95

GFSMW_700_rhum_021.txt.gz
RH
59 60 48 48 49 44 36 26 26 30 33 32 29 39 47 47 45 44 47 43 41 38 34 41 47 48 45 35 19 10 9 8 9 9 9 8 7 7 7 7 8 8 8
55 57 54 49 52 43 37 29 27 29 29 29 40 49 46 45 46 42 39 38 36 36 45 49 51 49 38 22 12 10 9 9 10 10 11 11 10 9 9 8 8 8 8
56 60 53 53 48 44 37 33 33 34 38 41 41 40 38 39 39 37 36 35 40 47 51 55 53 42 28 18 12 10 11 12 12 12 12 12 12 12 11 9 9 10 10
59 60 57 54 54 48 40 35 38 38 37 35 33 36 39 38 37 33 36 42 47 54 58 53 44 34 25 17 14 13 14 15 14 13 11 10 10 10 11 12 12 13 13
62 60 57 54 56 54 46 39 37 35 32 31 34 36 37 36 32 37 42 47 53 56 54 46 37 29 24 19 16 16 16 16 14 12 11 11 12 12 12 14 14 12 9
59 62 58 59 57 56 52 41 39 35 32 34 36 37 34 35 40 43 47 51 53 53 53 48 40 33 28 20 18 18 17 16 13 12 12 13 14 13 13 13 11 8 6
55 58 59 59 57 57 55 42 40 36 34 37 38 34 35 42 45 48 50 53 55 58 58 56 49 41 29 21 20 19 18 15 13 14 14 15 15 14 14 12 8 6 5
43 57 61 64 58 56 57 46 41 37 36 39 37 36 43 46 48 50 52 55 57 58 61 62 56 46 30 22 21 19 16 15 15 16 16 16 15 15 14 14 11 6 6
48 55 59 62 57 58 56 50 42 37 39 40 38 43 46 48 51 54 55 56 58 60 62 64 60 46 28 24 22 19 16 15 16 17 17 16 15 14 15 16 18 19 10
53 55 59 54 54 59 56 53 42 40 42 42 42 46 48 50 55 59 60 60 62 63 66 69 62 43 28 24 20 17 16 17 18 18 17 15 13 12 14 17 19 19 18
48 50 60 57 58 60 57 54 42 42 44 43 44 48 52 56 60 65 67 66 65 67 70 70 56 31 28 22 18 17 17 19 18 18 15 12 12 15 16 16 16 15 14
45 46 50 59 60 61 60 52 44 44 46 46 47 51 56 60 66 72 73 69 67 68 72 68 37 31 24 20 18 18 20 18 17 15 13 15 17 16 16 17 16 12 9
43 46 55 61 63 64 63 52 46 48 48 48 50 56 61 67 73 77 76 69 69 73 74 44 33 26 21 20 20 20 20 18 16 15 17 19 18 18 19 17 12 8 6
48 55 61 63 63 67 66 51 48 49 50 51 54 60 66 73 78 79 73 70 73 77 50 35 28 22 21 21 22 21 19 17 19 21 22 21 20 20 18 12 8 7 8
50 52 55 61 64 65 61 51 51 52 53 54 58 65 72 76 80 77 71 74 77 49 35 28 23 22 22 22 22 19 18 20 21 23 24 22 22 18 11 8 7 11 20
50 54 58 60 56 53 51 50 52 54 56 59 64 69 73 76 78 73 75 74 42 33 27 23 22 23 23 22 22 21 20 22 25 26 24 24 19 12 7 8 15 30 48
49 53 60 64 56 53 53 55 58 60 62 65 68 70 72 77 75 73 61 35 30 27 24 23 23 25 24 22 20 20 23 27 28 27 26 20 12 7 8 16 26 37 51
39 48 56 62 69 70 69 72 72 72 70 69 70 72 77 74 68 44 32 29 26 24 25 26 26 25 22 20 22 25 28 30 29 26 19 11 6 9 22 29 34 38 48
48 48 54 62 65 67 72 72 73 74 74 72 76 76 70 57 35 30 28 24 24 26 27 28 26 21 23 25 28 29 30 31 27 21 12 7 12 25 32 38 38 42 45
58 58 59 58 61 66 69 73 73 74 76 76 70 62 41 34 30 24 22 24 26 27 28 28 25 27 28 32 32 33 32 27 22 14 7 12 26 32 36 42 44 45 56
61 61 63 67 70 73 74 75 76 73 68 64 50 39 32 26 21 22 26 26 28 29 27 27 30 34 34 34 35 32 28 22 13 7 12 24 29 31 38 45 49 68 80
63 66 68 70 74 76 75 71 68 65 56 44 35 27 20 19 22 26 26 29 29 28 25 28 33 35 36 36 33 29 21 11 7 13 23 29 30 35 42 51 76 84 87
66 69 72 74 74 70 69 68 62 50 37 27 18 17 19 23 26 27 31 32 28 26 30 33 32 35 37 35 30 22 12 7 13 24 31 33 35 40 52 82 87 91 92
69 69 69 70 71 71 65 51 36 26 16 16 20 21 25 25 29 31 30 27 28 33 36 34 36 38 36 31 23 13 8 10 21 30 32 37 41 55 87 89 94 94 95
68 70 72 71 62 46 33 21 15 18 20 21 23 25 27 31 30 29 28 33 37 36 36 40 41 38 32 24 13 9 10 20 30 32 33 37 50 82 86 91 95 96 94
66 62 56 47 31 19 19 22 23 23 22 23 26 28 29 28 28 30 38 40 40 42 45 44 40 34 24 12 9 9 18 30 33 32 37 44 82 85 86 88 90 96 93

GFSMW_700_rhum_024.txt.gz
RH
36 41 45 56 54 37 41 47 40 34 31 35 40 44 46 42 48 57 76 64 81 75 47 38 41 46 48 48 40 23 13 10 10 11 12 13 13 13 13 12 11 11 10
36 37 44 62 61 50 48 46 41 35 30 31 37 47 50 50 66 76 57 84 62 49 40 44 47 51 50 38 26 18 13 12 14 17 18 18 16 14 14 13 12 11 11
40 41 54 60 58 54 51 45 41 35 30 32 39 45 53 55 57 61 54 51 49 41 45 47 51 48 38 30 22 17 14 16 18 19 19 17 16 16 15 14 13 13 13
40 38 52 58 58 53 51 45 43 38 40 37 40 46 56 56 56 54 41 38 41 45 48 50 48 42 36 29 23 18 16 18 19 20 18 16 15 15 16 17 16 16 16
30 39 50 56 58 54 54 51 46 39 39 39 41 42 46 47 42 42 36 41 45 48 50 50 50 50 46 36 28 20 18 20 20 20 18 15 14 14 15 18 17 15 10
24 37 47 61 60 56 56 56 48 40 38 35 34 35 40 40 40 39 43 46 49 51 53 55 56 55 53 44 34 22 20 21 20 18 15 14 15 15 15 16 12 8 6
28 40 56 65 61 56 57 57 54 42 39 34 34 37 40 41 41 45 47 49 52 54 56 56 55 57 58 55 40 21 21 21 19 15 15 15 16 16 14 12 8 6 6
39 32 53 62 63 59 57 57 57 45 40 36 36 38 39 37 44 48 50 53 55 57 59 58 58 60 64 60 35 21 22 20 17 16 16 17 16 16 14 11 8 6 6
45 37 42 55 62 60 59 57 58 49 40 37 39 40 37 42 48 51 54 57 60 62 62 62 62 64 67 62 26 23 22 18 16 17 18 17 16 14 13 13 14 13 8
48 53 49 43 61 63 63 59 59 52 42 40 41 41 41 46 49 53 56 61 66 68 68 66 66 68 71 46 23 24 20 17 18 19 18 17 15 14 14 16 17 18 18
34 36 54 50 57 63 62 59 60 53 44 43 44 41 44 48 52 56 60 65 71 74 72 69 71 74 69 27 24 22 18 19 20 20 18 15 14 15 18 19 20 21 22
29 41 50 55 56 66 60 60 61 54 45 45 46 44 47 52 55 59 64 71 76 78 74 73 75 74 36 26 23 20 21 21 20 18 15 15 16 20 21 22 23 23 19
50 51 50 55 60 61 62 64 60 56 46 47 48 48 51 55 59 64 70 75 80 81 75 74 73 44 28 26 21 21 22 22 20 17 17 18 21 21 23 24 23 18 12
58 56 52 54 62 66 67 65 61 56 48 50 51 52 55 58 64 70 74 78 82 80 75 72 49 30 27 22 22 23 23 21 20 18 21 22 23 24 24 21 16 9 7
58 55 54 58 68 70 68 67 65 54 51 54 55 57 59 63 68 73 76 79 81 75 72 49 31 28 23 23 23 23 21 20 19 22 22 23 24 24 21 13 7 8 17
60 58 61 68 70 70 71 71 68 54 56 58 60 62 65 68 72 75 78 80 77 73 46 31 28 24 23 25 25 23 20 21 22 21 24 25 24 21 12 7 12 26 29
53 58 63 68 71 71 70 70 64 58 60 61 65 68 70 71 74 76 79 78 69 39 31 28 25 24 26 26 24 22 22 23 23 26 26 25 19 9 7 13 20 23 34
61 64 69 72 72 66 63 64 62 64 66 69 70 71 73 76 76 80 76 57 35 31 27 25 24 27 26 23 22 22 23 24 27 27 26 19 9 7 18 21 21 27 37
66 72 78 81 78 70 66 68 70 72 76 79 80 81 78 80 79 66 43 33 30 25 24 25 28 26 24 22 22 23 24 26 28 26 18 8 8 21 25 25 25 31 42
52 74 80 76 71 74 77 80 84 85 85 86 83 82 80 70 49 39 32 27 23 24 27 30 27 24 21 24 26 28 28 28 25 18 7 9 20 26 27 30 33 43 66
62 66 69 70 70 73 78 81 84 85 84 83 78 69 54 43 34 28 23 24 25 28 29 27 26 26 27 29 31 31 30 26 17 7 7 16 24 27 29 35 52 73 73
62 63 65 67 72 77 81 83 82 81 76 68 59 49 36 29 23 23 25 26 28 27 27 25 26 31 32 32 30 30 26 15 7 6 14 23 26 29 35 59 76 78 79
65 68 71 74 76 79 80 78 74 69 62 52 38 28 21 22 24 26 26 27 27 26 23 22 25 30 31 31 30 25 14 6 6 12 23 27 28 33 62 81 84 86 88
68 72 75 77 77 74 72 69 64 52 36 26 19 20 23 25 25 26 27 27 25 23 22 26 28 29 31 30 25 11 6 6 10 19 26 29 33 53 85 86 93 96 96
71 72 71 72 72 71 63 46 33 21 17 20 23 24 24 25 26 26 25 25 22 22 25 29 32 32 30 24 9 6 7 11 21 25 28 30 39 79 86 90 97 97 96
69 70 71 66 54 42 26 18 19 22 24 23 23 24 25 24 24 25 26 23 26 32 38 38 36 33 23 8 7 7 11 20 28 27 29 35 70 85 83 88 91 96 95

GFSMW_700_rhum_027.txt.gz
RH
26 30 38 49 54 59 55 48 43 44 50 38 40 49 46 50 59 62 65 90 100 74 83 62 42 43 46 50 45 33 22 16 13 13 16 18 19 18 17 15 15 14 14
26 28 28 35 42 51 56 49 44 51 45 41 34 36 47 55 67 72 91 97 98 79 75 49 46 49 51 44 36 28 22 17 14 15 18 19 19 18 18 16 16 15 15
23 30 33 30 32 40 60 54 50 49 47 41 33 33 49 68 73 60 97 98 92 70 66 46 51 52 47 43 43 39 31 20 15 17 20 21 20 21 18 17 17 17 17
20 22 27 37 33 36 61 56 52 51 44 37 33 33 49 66 64 93 86 96 58 48 45 50 54 50 53 54 53 49 36 22 15 17 20 22 22 20 20 18 19 19 18
16 18 21 27 35 43 59 57 54 48 45 38 40 39 56 67 75 92 75 97 52 44 49 54 54 55 54 54 55 55 49 26 14 16 20 22 19 17 18 20 20 19 15
18 18 21 28 34 51 59 55 53 51 44 39 43 42 56 57 96 59 69 52 45 48 52 54 56 56 56 56 55 57 56 27 14 17 21 20 18 18 19 20 18 14 8
18 19 27 32 37 49 57 55 56 55 46 40 38 37 42 90 99 56 49 44 47 51 54 57 59 60 61 60 58 58 58 24 17 20 20 17 17 18 17 16 12 8 7
22 18 29 34 42 50 53 56 57 58 50 42 37 36 48 98 78 76 45 46 50 53 57 61 64 66 65 64 62 62 54 22 20 20 17 17 18 17 15 12 9 7 7
20 23 33 37 52 62 59 58 56 59 57 45 38 36 74 85 86 42 46 50 52 55 62 67 71 71 68 68 66 65 37 23 22 18 18 18 18 16 13 11 10 10 8
18 23 47 43 49 65 64 59 58 61 59 48 40 40 46 56 44 47 51 53 54 59 66 72 75 75 72 71 68 54 27 23 19 18 19 19 17 14 13 13 13 15 15
28 27 53 47 42 56 64 62 62 62 62 51 42 42 43 44 46 50 53 55 59 64 70 75 79 79 73 72 68 34 26 20 19 20 20 17 14 14 14 15 18 18 18
35 28 60 60 50 51 62 64 67 64 63 53 45 44 45 44 49 54 56 60 65 68 73 79 82 78 75 73 43 28 23 20 21 20 17 15 14 15 17 19 20 19 19
62 35 48 44 55 52 59 65 68 64 63 55 48 46 47 46 52 57 61 65 68 71 77 82 82 78 77 53 31 24 21 22 21 18 16 14 14 16 19 21 20 18 15
57 31 39 44 60 60 64 67 70 65 64 59 52 50 50 51 57 61 64 68 71 75 80 82 81 80 60 34 25 22 23 22 19 17 15 16 18 20 22 20 17 13 7
77 58 61 62 65 69 71 75 70 69 67 62 56 54 53 56 59 63 68 71 75 78 81 82 83 63 36 26 23 23 22 18 16 16 18 19 22 23 20 17 10 7 14
80 68 63 64 65 72 75 70 71 70 68 58 59 60 59 60 63 68 72 75 78 80 84 85 58 37 26 24 24 22 18 16 16 17 20 22 22 20 16 7 8 20 23
77 70 70 70 74 77 76 74 71 68 63 61 64 63 64 67 69 72 76 78 81 85 81 49 35 25 25 25 22 18 16 16 18 21 22 21 19 14 6 6 15 19 23
71 69 71 75 77 78 77 79 78 73 66 66 68 68 69 70 73 78 82 84 85 69 42 32 26 26 25 21 17 16 16 19 22 23 22 19 10 5 6 14 19 20 30
72 75 78 82 84 85 84 84 81 73 71 71 70 69 73 82 85 84 87 77 49 38 27 26 26 25 20 18 17 16 20 22 22 21 18 7 5 7 16 22 21 24 46
75 78 81 85 86 78 75 73 74 74 73 75 81 85 87 86 87 79 55 44 32 26 28 26 24 19 18 16 16 22 23 21 18 14 5 5 8 16 23 23 26 47 68
60 65 77 85 87 86 82 82 89 93 90 88 88 87 86 78 58 46 36 25 26 26 26 23 21 19 15 19 24 24 22 19 11 4 5 8 16 23 24 28 53 73 70
62 63 68 72 75 77 83 87 90 89 88 88 83 76 59 48 38 25 24 26 26 25 21 21 19 18 23 25 23 21 18 7 5 5 7 15 22 24 29 52 75 77 78
67 67 69 72 75 80 83 89 91 88 82 74 62 51 39 25 22 25 26 26 23 21 19 15 16 22 24 23 20 16 5 5 5 6 14 23 23 28 44 80 81 81 83
74 75 74 75 78 80 83 83 79 72 63 51 38 24 21 25 26 26 24 22 21 17 15 17 21 24 22 19 14 5 5 5 6 9 20 24 27 38 81 84 86 92 92
76 78 78 76 76 77 75 71 62 48 36 23 21 25 25 26 24 22 21 19 16 16 17 22 25 21 20 14 5 6 5 6 9 16 24 24 30 72 82 85 98 97 95
74 73 69 71 72 68 56 43 29 19 22 25 24 24 24 21 21 20 17 16 17 20 28 29 25 23 16 6 6 5 6 8 14 23 23 27 57 81 81 91 91 95 93

GFSMW_700_rhum_030.txt.gz
RH
22 23 24 32 37 50 56 53 49 53 52 45 50 57 58 61 58 50 54 65 87 76 99 98 85 56 38 45 46 36 30 27 22 19 16 16 18 19 20 19 19 18 17
28 26 24 26 32 37 50 56 52 51 51 46 47 61 49 48 53 53 63 66 94 98 100 98 94 44 46 49 42 45 46 42 34 25 16 16 17 20 21 21 20 19 18
23 24 23 23 25 31 38 47 52 51 48 47 52 47 45 43 46 53 73 81 80 99 90 69 94 47 51 48 51 51 50 50 50 38 18 14 14 18 20 21 20 19 19
21 22 23 23 24 26 32 36 42 50 42 48 50 48 43 39 45 65 83 98 93 93 100 69 57 51 52 53 51 51 51 51 52 49 24 14 16 18 18 19 20 20 20
23 22 19 21 23 27 30 31 36 54 46 50 50 46 39 38 52 75 86 94 92 99 61 60 49 53 53 54 55 56 56 55 54 52 34 20 18 20 21 22 21 21 20
27 24 20 17 21 26 33 36 36 55 50 53 50 42 41 40 63 70 79 98 98 98 72 49 52 55 56 58 60 60 61 59 57 54 35 23 21 21 20 21 21 20 17
24 25 21 19 18 24 28 40 46 56 56 53 47 40 45 61 73 85 78 96 96 76 51 52 56 59 62 66 67 66 65 64 61 50 32 23 21 19 20 20 19 15 11
21 23 23 19 21 25 30 43 54 59 55 51 47 40 43 54 72 63 98 97 95 53 51 56 61 64 68 72 72 69 68 66 63 43 28 21 19 20 19 18 14 10 9
36 22 20 18 28 25 32 45 58 59 56 55 46 41 39 67 51 98 99 69 96 51 56 61 66 69 74 76 76 72 70 69 57 35 24 19 20 19 17 13 10 9 10
45 27 22 19 33 33 43 55 61 60 58 58 51 43 38 42 93 94 99 98 58 56 60 65 68 72 77 79 78 73 72 70 44 27 20 20 20 17 13 11 10 10 11
59 39 22 24 43 45 49 59 65 62 60 61 57 45 40 65 99 97 98 51 56 58 63 67 71 75 79 80 78 75 76 56 32 21 20 20 17 13 11 11 11 12 13
48 55 30 47 54 51 62 68 67 64 63 62 60 49 41 87 79 98 53 55 58 61 65 69 74 77 80 80 79 79 69 36 22 20 20 17 13 12 12 12 14 13 13
45 79 45 39 56 51 65 65 69 69 67 66 63 51 46 58 77 55 56 59 61 64 68 72 76 79 81 83 82 77 40 23 21 21 16 14 12 12 14 15 13 13 12
47 89 63 46 67 56 56 63 68 71 73 69 64 56 56 60 55 56 60 63 65 68 71 74 78 82 85 86 79 41 23 21 21 16 15 13 14 16 15 14 14 11 5
55 91 56 65 62 67 60 63 70 74 76 72 66 66 67 67 60 61 64 66 69 71 74 77 82 87 89 76 40 23 22 21 16 15 14 15 16 16 16 14 8 4 4
99 76 47 49 41 54 66 68 78 83 91 97 97 85 87 87 66 67 69 70 73 75 77 83 89 91 75 37 22 23 21 17 15 13 16 17 15 15 11 4 4 5 10
98 73 60 52 49 66 81 81 86 94 100 100 97 86 94 71 71 71 72 75 77 80 87 91 89 66 31 23 23 20 17 14 14 17 17 17 15 7 4 4 5 10 18
86 71 69 70 73 85 96 99 100 100 100 100 99 91 75 72 73 76 78 81 88 93 94 82 45 25 24 23 20 16 14 15 17 18 18 11 5 4 4 5 9 18 23
80 79 74 74 88 99 100 100 99 99 97 89 80 75 74 76 78 82 92 97 97 89 56 34 23 24 23 19 16 14 15 17 17 16 8 4 4 5 6 11 19 21 25
86 86 86 90 93 89 87 85 84 81 78 76 74 76 79 84 96 100 100 95 66 42 24 24 24 22 18 15 14 16 18 18 15 7 5 5 5 6 16 22 22 22 55
77 80 84 86 88 88 88 89 87 81 78 78 83 94 100 100 100 96 67 46 27 24 24 24 20 17 14 15 17 19 18 15 7 5 5 4 6 14 21 23 28 59 71
81 83 85 86 83 83 83 81 84 87 96 100 100 100 99 92 66 48 30 23 25 24 22 19 17 15 15 17 20 18 15 6 5 5 4 6 11 19 21 29 65 74 74
77 79 83 85 86 92 98 99 99 100 100 100 97 90 66 49 30 23 26 24 23 19 18 15 15 16 19 20 18 15 7 6 6 4 5 9 17 20 26 66 77 76 81
77 78 82 89 86 89 95 99 100 100 96 88 67 48 29 22 25 25 23 20 19 17 15 14 16 19 18 18 15 8 5 7 5 6 9 16 19 24 61 79 79 87 88
76 79 84 92 96 96 98 97 96 86 65 45 27 22 26 25 24 21 19 18 16 16 14 17 19 18 18 16 9 5 8 7 6 13 16 18 20 46 76 78 89 87 86
84 85 90 96 91 84 83 76 58 40 23 23 26 24 23 21 19 19 17 16 15 15 18 21 21 20 18 9 5 8 10 6 10 18 17 18 29 75 76 82 85 90 90

GFSMW_700_rhum_033.txt.gz
RH
32 23 22 19 39 53 52 53 52 46 48 49 51 52 52 47 55 57 63 64 64 64 58 76 89 97 86 53 39 43 37 42 44 43 42 36 23 14 14 17 19 20 21
25 27 22 21 20 26 41 51 54 51 47 49 50 54 51 44 56 58 62 64 67 76 99 87 99 100 96 56 45 43 45 44 42 41 40 44 38 28 16 14 16 18 19
17 19 24 24 22 22 24 32 45 51 51 48 52 53 46 42 45 59 48 50 63 80 81 95 100 96 88 48 48 48 47 45 47 48 50 48 42 38 28 20 18 18 19
24 22 22 25 26 23 24 27 33 40 51 54 48 48 45 43 50 46 49 59 64 79 85 91 94 93 95 51 51 51 52 54 55 54 55 55 51 42 36 28 22 21 22
40 27 23 23 23 29 28 27 31 38 48 56 51 45 49 47 49 47 44 54 71 82 96 87 98 79 53 54 54 55 59 62 62 60 59 58 55 46 34 25 22 22 22
43 46 29 24 22 23 29 28 31 34 36 51 50 48 50 49 49 47 42 53 79 94 88 90 97 55 52 57 58 61 66 67 65 62 61 62 57 45 28 22 22 23 22
26 23 25 25 23 21 22 27 27 37 34 40 50 51 56 52 50 43 46 68 91 86 93 96 93 56 56 60 62 66 71 71 67 64 65 66 56 38 23 21 22 22 19
28 23 23 23 24 22 20 22 27 39 41 40 54 58 59 53 46 47 58 84 84 96 98 99 60 56 60 63 65 70 73 72 70 67 69 68 46 26 21 22 21 17 13
65 39 38 32 26 24 24 20 27 37 48 47 59 63 56 51 44 48 71 86 83 97 81 94 60 58 62 65 68 71 74 75 73 72 74 58 33 21 22 20 15 12 12
52 47 39 34 28 26 24 26 28 38 49 59 64 60 54 49 46 53 76 70 88 100 85 77 59 61 65 66 69 73 76 77 75 75 71 39 22 22 20 15 12 12 12
45 52 56 52 40 32 25 39 36 45 57 67 65 57 55 48 48 77 70 98 97 97 99 70 70 64 67 68 72 75 78 79 78 78 46 22 22 20 15 13 12 12 13
50 39 36 53 60 31 32 53 42 51 68 70 61 60 54 46 46 55 95 95 98 99 80 85 63 66 68 71 74 78 80 80 81 51 23 22 20 14 13 12 12 12 10
41 37 34 40 71 52 44 61 51 62 72 70 63 62 57 48 50 66 99 99 97 87 96 64 65 68 71 75 79 82 83 82 57 24 22 19 14 13 12 13 12 10 8
64 41 38 45 75 67 70 64 56 71 75 71 66 64 62 56 60 99 99 94 89 96 68 67 68 72 75 80 84 86 85 60 24 23 19 14 13 13 13 12 10 7 4
74 45 47 68 77 58 71 65 70 74 75 74 70 70 67 62 99 98 98 83 90 69 73 71 72 76 81 88 91 88 51 23 22 18 14 13 13 13 11 8 5 4 4
92 55 71 84 65 50 66 61 71 71 80 79 82 82 85 99 100 90 86 85 86 89 74 75 78 88 93 96 88 35 23 22 16 14 14 14 13 10 7 5 5 5 5
89 75 90 79 52 77 71 63 71 86 98 99 93 95 100 100 93 98 98 94 84 77 78 84 91 96 96 73 28 24 21 16 14 14 14 13 10 6 5 5 4 5 8
86 70 89 59 64 66 76 79 81 92 98 99 99 100 100 95 97 96 97 85 80 85 88 95 98 92 50 24 24 19 16 14 14 14 12 10 6 5 5 4 4 6 14
94 92 80 58 54 58 76 88 90 97 100 100 100 99 100 94 88 91 82 86 93 98 98 96 69 27 24 23 18 16 14 14 14 12 10 6 6 5 4 4 6 14 17
91 81 79 74 82 96 100 100 100 100 100 100 100 97 91 80 80 86 93 100 98 97 79 31 24 25 21 18 16 14 14 14 12 12 6 6 6 5 5 8 15 16 28
92 88 99 100 100 100 100 100 100 100 95 89 82 84 86 89 97 100 99 96 76 38 24 25 22 19 17 16 14 15 15 13 12 7 6 6 6 6 9 16 18 30 65
96 99 100 99 99 98 97 96 95 91 87 88 90 96 100 100 100 93 64 40 24 25 24 20 18 16 16 14 15 15 14 13 8 6 7 6 7 12 16 18 30 68 70
90 90 87 82 80 85 90 91 86 85 93 100 100 100 100 89 62 39 23 25 24 22 18 17 16 15 15 16 15 14 13 8 6 7 8 6 13 15 16 26 70 70 76
97 94 90 90 95 93 94 98 100 99 99 99 96 83 59 36 23 26 24 22 19 18 17 17 15 16 16 14 14 14 9 6 6 9 8 11 16 14 19 66 74 79 81
83 84 86 91 94 93 96 98 100 100 95 78 54 32 23 26 25 22 19 19 18 18 16 16 16 14 12 14 13 8 6 6 9 11 12 16 13 16 58 71 83 84 88
86 87 90 95 99 100 98 92 81 67 48 27 24 27 24 22 20 20 19 18 17 16 16 15 12 12 15 11 6 6 8 12 13 14 17 14 16 50 70 79 81 91 93

GFSMW_700_rhum_036.txt.gz
RH
24 24 23 20 20 33 58 72 61 57 52 51 49 48 48 55 55 54 51 47 50 60 65 68 62 63 65 75 95 63 40 40 39 39 37 36 39 39 38 34 30 26 20
14 16 20 23 22 21 33 66 72 64 51 52 51 54 56 57 58 54 51 42 56 60 67 68 70 85 90 99 99 91 44 42 42 41 44 44 44 46 46 45 42 38 32
12 13 15 17 22 24 22 37 64 75 60 50 54 57 56 55 53 52 52 46 57 66 66 66 81 87 92 95 91 74 47 45 46 49 52 52 52 52 53 52 49 43 34
18 18 17 17 27 27 27 26 39 59 66 62 56 54 52 50 52 56 52 49 60 60 62 68 84 94 97 94 86 58 48 47 50 56 59 58 56 56 56 56 52 43 28
35 36 32 29 33 36 48 33 35 44 50 61 55 57 58 54 52 55 51 52 57 56 62 77 77 90 99 94 83 58 52 52 58 62 61 59 57 58 59 57 55 40 23
41 41 44 43 39 32 42 46 55 47 60 65 49 40 55 58 56 53 49 54 50 58 61 77 87 94 97 94 78 55 55 58 64 66 64 63 62 61 63 62 54 32 24
42 40 37 27 30 34 28 38 51 58 69 69 48 33 51 64 61 52 54 54 51 51 63 80 96 96 96 97 61 55 58 62 67 68 68 66 63 62 67 61 38 24 23
44 40 37 20 21 23 26 27 42 56 65 63 48 41 44 63 59 49 61 53 48 53 73 93 96 94 100 89 58 58 62 65 67 68 69 69 66 67 69 45 24 24 21
41 45 46 52 43 34 26 24 27 48 44 42 44 54 52 50 49 58 63 54 50 68 91 100 100 96 100 62 57 61 63 64 66 69 71 70 70 72 56 25 23 20 14
40 44 58 49 51 39 38 28 29 32 32 29 46 61 66 55 58 67 59 51 60 84 96 95 94 93 92 66 61 63 64 65 68 70 72 73 74 66 29 23 19 14 14
57 53 42 43 48 44 65 39 31 34 42 30 40 61 60 54 68 63 55 54 79 98 96 77 98 96 92 72 64 66 67 69 72 73 75 77 72 32 23 18 14 14 14
59 56 49 51 39 34 74 54 37 43 52 31 36 53 63 73 69 61 63 71 95 89 99 99 99 100 97 90 67 68 70 72 74 78 81 78 32 23 18 14 15 14 12
76 65 63 47 36 39 73 67 51 76 53 39 46 56 74 77 65 57 80 99 96 88 100 99 100 98 99 68 68 70 73 77 81 84 79 28 23 17 15 14 13 11 9
70 82 66 50 40 50 98 100 93 90 56 47 57 71 80 73 62 58 76 100 87 97 97 99 96 98 71 77 75 74 81 88 90 72 26 22 16 15 14 13 11 8 6
69 82 61 46 40 69 99 100 96 60 61 60 73 83 87 74 75 70 98 85 100 100 100 98 98 85 94 91 79 86 94 95 64 24 21 16 15 14 13 10 8 6 5
92 89 78 60 44 99 99 70 66 74 70 79 86 91 95 88 73 88 64 100 100 100 99 94 96 97 80 80 94 98 96 40 24 20 16 15 14 13 10 8 6 6 4
89 86 87 74 72 99 96 59 79 79 86 86 90 96 99 98 85 80 100 100 100 97 98 97 88 83 85 94 98 78 26 24 18 16 15 14 13 10 8 6 6 5 5
85 92 78 64 100 100 77 76 87 90 93 99 98 98 92 97 100 100 100 98 99 92 88 89 90 95 98 92 33 25 22 17 16 15 15 12 10 8 6 6 5 6 6
99 94 69 100 98 82 91 88 84 96 100 100 100 100 100 100 99 98 100 92 90 91 93 94 98 97 39 26 24 19 17 16 15 15 12 10 8 6 6 6 6 7 10
100 100 100 92 79 78 98 99 100 99 100 100 100 99 100 99 94 90 89 87 92 98 98 95 47 26 26 20 18 17 16 15 14 12 11 9 6 6 7 6 9 10 14
100 100 98 87 87 99 100 100 100 100 100 99 99 99 94 94 89 95 95 99 97 88 43 27 26 22 19 18 17 16 16 13 11 10 9 6 6 7 8 10 14 14 30
100 100 100 100 98 100 100 99 99 99 99 97 96 92 94 96 100 100 91 71 41 27 26 22 19 19 18 16 16 15 12 10 10 8 5 5 8 10 11 15 15 29 66
100 98 99 98 97 97 98 95 93 92 86 91 98 99 98 100 89 60 37 26 26 22 19 19 18 17 16 16 13 11 11 9 5 5 6 10 12 13 15 14 30 69 72
98 100 100 100 100 99 97 98 97 99 100 100 100 100 85 56 31 25 26 22 20 20 19 18 16 16 13 11 11 10 6 5 6 9 12 12 14 15 12 30 71 77 77
95 97 95 96 99 100 100 100 100 100 100 95 77 51 29 25 26 22 20 20 20 19 18 16 14 11 10 9 6 5 6 10 11 11 12 14 15 12 33 70 78 81 82
94 95 96 100 100 99 98 90 88 79 68 46 27 26 26 22 20 21 21 20 19 17 15 12 10 10 7 5 6 8 10 11 11 12 14 16 13 31 70 74 78 85 87

GFSMW_700_rhum_039.txt.gz
RH
21 23 21 17 14 14 24 55 71 76 63 58 59 51 50 56 53 56 48 50 49 51 50 52 59 62 64 64 67 65 90 91 47 42 40 38 41 45 47 48 49 48 46
12 16 21 29 28 25 23 33 73 76 78 75 67 58 60 60 59 63 57 54 50 54 54 60 64 62 61 73 88 94 92 96 70 44 43 44 48 50 49 48 48 50 50
13 12 13 17 25 34 40 38 42 68 79 81 76 68 63 63 60 65 62 54 51 56 61 62 69 67 67 84 99 90 96 88 56 46 46 50 52 52 50 49 49 50 53
16 16 15 13 14 20 27 41 46 59 68 79 85 83 72 59 55 54 59 60 63 62 63 65 71 73 72 85 100 99 89 81 52 51 50 58 59 57 54 52 52 54 56
29 26 22 19 17 20 22 26 32 49 62 64 76 83 84 69 62 65 64 64 63 65 66 61 62 74 78 83 95 98 88 86 63 52 53 61 60 59 58 55 57 58 60
34 30 24 19 25 27 25 37 44 32 46 62 64 74 77 77 63 66 66 64 63 64 66 62 59 68 76 87 93 99 98 90 57 54 57 62 62 61 61 58 57 56 59
40 41 41 38 36 36 33 32 40 44 43 47 62 67 73 78 78 70 72 69 67 66 62 58 55 64 79 98 99 100 88 73 58 59 62 64 64 64 63 62 62 61 60
35 39 42 39 35 40 31 26 25 35 49 49 47 67 74 78 77 64 70 71 68 65 61 56 57 65 90 100 99 94 100 77 61 63 66 66 67 67 66 67 67 65 55
38 37 35 37 37 38 37 35 25 27 33 46 57 57 65 70 64 62 74 76 76 67 64 57 56 78 99 100 98 100 89 71 63 67 68 69 70 70 72 73 73 62 28
43 42 41 36 41 48 46 40 39 31 37 39 45 56 62 73 62 62 65 75 66 62 67 56 73 96 98 98 100 96 95 69 66 69 69 70 72 73 75 77 60 25 22
59 54 50 47 54 47 39 35 51 55 54 39 42 50 66 66 59 73 80 80 71 71 64 67 95 100 100 100 91 100 88 75 69 70 70 73 76 80 81 63 25 21 16
72 67 64 61 53 48 47 38 47 58 64 48 44 41 48 60 51 78 77 71 73 67 62 95 99 100 100 95 100 96 100 79 72 72 75 80 85 86 65 24 20 16 17
78 71 74 72 56 47 41 30 30 54 66 55 42 56 30 32 69 82 77 77 72 66 99 99 99 100 89 100 100 100 95 79 91 85 78 88 92 68 24 19 16 16 14
88 83 78 81 63 48 46 38 35 68 71 67 49 86 61 61 77 84 84 78 80 99 99 100 99 100 100 100 99 99 96 97 92 93 92 96 52 24 17 17 16 14 10
94 81 78 79 74 60 54 38 60 93 96 100 99 76 84 74 86 90 82 80 71 92 100 100 100 99 100 99 99 98 97 97 92 98 96 31 22 17 17 15 13 10 8
98 94 86 78 70 62 50 40 80 96 98 100 100 85 96 94 95 99 95 88 100 98 100 100 100 100 99 98 100 94 92 97 97 72 25 19 17 16 15 12 9 8 7
100 94 84 77 75 63 60 99 100 98 100 100 99 88 98 99 100 100 100 100 100 100 100 99 98 97 96 97 96 98 99 87 30 23 18 17 16 15 11 9 8 7 6
94 98 91 87 82 84 99 99 98 99 100 100 97 100 98 100 100 100 100 100 100 99 97 99 95 94 97 99 100 93 35 25 19 18 17 16 13 10 9 7 6 5 6
91 76 82 92 90 100 100 100 100 100 100 100 100 100 100 100 100 100 99 99 97 98 96 91 95 97 100 92 31 25 20 18 18 16 15 11 9 8 6 5 5 6 8
100 99 100 99 100 84 82 99 100 100 100 100 100 100 100 99 98 99 97 97 93 89 98 100 98 79 28 26 20 19 18 17 16 12 10 9 6 4 5 6 7 8 10
99 99 96 98 98 100 100 100 100 99 99 99 98 99 99 98 97 94 88 90 100 100 92 47 29 26 21 20 19 17 16 12 9 8 6 4 5 6 8 9 10 12 11
99 99 95 97 100 99 99 100 99 99 99 98 98 100 98 98 96 96 100 96 71 37 28 26 21 20 20 18 16 13 9 8 6 4 5 7 9 9 10 12 14 12 21
96 98 99 99 99 99 99 99 98 99 100 98 100 97 85 86 94 81 47 29 28 25 20 20 20 19 16 13 9 8 6 4 4 6 8 9 10 11 13 14 12 34 68
98 98 98 98 98 97 97 98 98 97 99 99 98 98 84 54 31 27 27 23 21 21 20 19 17 14 10 8 6 5 4 5 7 8 9 9 11 14 13 13 47 71 73
99 98 98 98 98 98 98 98 99 99 99 95 69 42 29 29 27 23 22 22 21 20 17 14 10 8 6 5 4 4 5 7 8 9 10 12 14 14 14 57 77 79 79
100 100 99 100 100 100 99 100 100 90 75 48 31 29 26 23 22 23 22 21 18 15 12 8 7 6 5 4 4 6 8 9 11 13 14 14 13 14 63 73 80 83 78

GFSMW_700_rhum_042.txt.gz
RH
21 23 19 17 21 36 48 60 71 71 61 56 53 52 52 58 55 51 52 51 46 50 55 56 52 52 65 66 63 70 73 75 76 85 81 44 41 42 46 49 50 48 48
15 17 23 27 26 22 21 19 30 72 76 66 58 66 61 57 62 62 55 55 51 54 64 61 57 60 69 69 65 73 91 90 98 89 90 50 46 48 52 53 51 49 48
11 11 12 18 24 25 26 27 24 35 76 77 74 63 78 74 60 60 60 60 53 61 68 68 64 64 67 76 76 75 93 98 98 94 73 53 48 52 57 56 54 51 50
12 13 13 13 13 16 29 37 40 33 56 72 72 71 70 75 71 63 62 63 64 62 72 72 69 64 66 77 84 80 87 100 93 92 75 59 53 57 59 58 56 56 55
11 11 12 15 17 18 20 26 39 45 50 48 59 66 75 77 84 87 76 63 66 70 72 74 70 63 63 74 83 83 91 100 95 92 93 80 56 59 64 63 60 60 60
23 24 24 21 18 22 24 22 20 24 49 62 57 61 65 73 87 91 90 75 64 69 72 72 68 65 64 67 74 81 90 98 98 97 93 83 59 59 63 62 61 62 62
30 31 34 37 36 30 31 34 32 31 31 30 55 60 64 68 71 85 89 89 77 70 74 75 70 71 72 70 67 75 94 96 99 99 92 70 60 62 63 62 62 61 60
36 37 40 44 43 43 43 43 43 42 35 36 36 41 56 58 70 76 85 88 82 71 72 79 78 77 73 65 61 97 98 99 95 89 99 71 63 65 66 66 66 64 66
38 37 39 38 37 36 35 36 38 34 34 36 27 37 41 49 58 73 76 80 79 70 72 79 76 78 74 63 64 98 85 99 100 96 100 76 67 68 67 68 68 69 68
42 42 42 45 46 43 42 40 40 39 38 28 25 26 41 52 53 62 65 76 72 71 72 79 77 78 73 68 75 96 98 100 99 99 100 76 71 71 71 72 72 77 76
59 62 69 59 63 56 54 48 50 45 36 33 24 29 28 50 65 59 66 72 70 70 71 82 84 80 75 74 99 94 100 99 98 100 99 85 75 74 80 78 83 87 80
76 76 92 76 86 75 61 54 55 41 32 28 32 34 27 43 73 78 69 72 72 71 75 89 83 82 84 96 96 97 100 100 100 99 100 98 82 90 89 89 89 82 26
97 81 91 88 90 73 66 56 46 41 34 41 54 50 45 55 83 86 84 76 75 90 90 88 81 96 96 100 92 100 100 100 100 98 100 98 98 97 97 94 68 24 18
94 90 95 95 97 83 69 59 50 39 31 48 72 63 64 67 78 85 82 64 83 92 90 88 98 88 100 99 100 99 99 98 99 99 97 97 97 97 92 33 21 18 18
100 98 100 96 99 88 75 66 57 47 45 77 86 76 80 56 66 95 67 66 91 94 98 91 92 97 90 100 100 99 99 98 98 98 92 98 96 45 24 18 19 17 15
99 100 94 99 95 86 82 74 53 39 74 99 92 92 82 98 96 91 97 92 94 100 87 100 100 100 100 100 100 98 98 98 95 98 94 49 25 19 18 18 16 12 9
99 88 93 93 90 90 86 71 55 91 94 88 84 96 100 82 100 100 100 100 100 98 98 100 100 99 98 99 98 98 94 96 96 56 26 20 19 18 16 13 9 7 5
99 85 78 80 85 93 89 97 99 100 96 95 99 99 98 99 100 100 99 100 100 100 100 98 99 99 99 98 90 90 95 51 26 21 19 19 17 13 9 7 5 4 4
100 86 96 92 92 99 100 98 99 100 99 99 100 100 100 100 100 100 100 100 100 98 99 99 98 97 95 92 84 35 26 21 20 19 17 13 9 7 5 4 4 6 8
98 100 100 100 100 100 100 99 95 98 99 98 99 100 99 100 99 99 99 99 97 97 98 98 94 90 63 28 25 20 21 19 17 13 9 7 5 4 4 5 7 8 9
96 99 98 98 96 97 95 99 98 98 99 95 99 98 98 99 98 99 98 98 97 91 92 89 48 27 23 21 21 19 16 12 8 6 4 4 4 5 7 8 9 9 10
98 93 98 95 92 100 99 99 98 93 98 98 98 98 99 100 99 97 95 95 84 53 31 26 22 21 21 19 16 12 8 6 5 4 4 5 7 8 9 9 10 12 12
89 97 100 100 98 99 99 99 97 99 100 99 98 98 100 99 94 80 54 32 27 24 21 22 21 19 16 12 8 7 5 4 4 4 6 8 9 10 10 12 12 12 47
74 83 99 99 98 97 97 98 97 98 99 100 100 97 74 46 30 27 25 22 22 22 21 19 16 12 8 7 6 5 4 4 6 7 9 9 10 11 11 11 14 56 62
81 78 85 91 97 98 96 99 100 100 99 81 53 32 28 27 24 22 23 22 22 19 16 12 9 8 7 6 5 4 5 5 6 6 6 9 11 13 12 23 64 66 65
94 84 94 96 96 98 98 99 89 54 32 29 28 26 24 23 23 23 22 20 16 13 10 8 8 7 6 5 5 5 6 6 6 6 6 8 9 11 37 64 71 65 63

GFSMW_700_rhum_045.txt.gz
RH
16 17 18 20 37 48 46 47 67 73 68 64 55 48 41 49 58 51 50 52 55 57 60 60 57 54 57 60 66 65 66 72 76 82 84 88 84 59 45 47 52 53 51
24 25 30 32 26 22 18 26 37 64 78 76 74 66 54 48 58 58 56 60 58 60 66 63 60 61 62 61 63 74 72 73 92 95 99 94 85 72 52 51 54 57 55
13 13 14 21 29 33 32 25 23 29 55 76 78 77 77 63 58 59 48 46 52 61 64 68 69 67 65 63 68 80 78 74 81 77 96 92 91 66 54 53 57 60 59
15 14 14 12 11 14 23 32 35 36 30 35 44 52 74 76 62 60 57 61 55 61 64 70 82 75 70 68 75 80 75 79 89 86 99 86 94 83 80 62 58 63 63
13 14 14 14 15 17 17 17 23 36 48 47 49 43 50 76 80 76 77 84 80 70 62 63 81 79 77 77 76 75 76 82 93 96 100 100 99 96 99 70 62 64 65
23 21 24 24 25 26 25 25 26 27 29 44 51 57 58 58 70 72 75 82 84 80 68 63 67 80 82 81 74 73 76 82 95 97 100 99 100 100 98 79 64 66 67
32 32 33 33 30 31 32 31 32 34 35 36 35 50 64 65 58 61 66 81 84 86 87 78 70 74 80 82 76 74 80 86 95 99 100 98 97 99 92 80 67 66 67
36 37 38 40 40 40 40 39 39 41 42 42 41 40 40 63 69 67 66 64 77 93 98 91 82 72 74 84 79 77 85 89 94 93 100 99 100 100 99 97 71 70 70
43 43 40 39 38 38 39 40 41 41 39 39 39 36 36 35 40 53 59 64 63 72 85 89 86 76 72 82 83 84 91 97 100 100 100 99 96 100 100 100 93 74 71
45 45 47 47 43 43 42 45 45 46 46 45 44 42 36 29 34 31 43 56 62 67 73 82 87 81 75 87 88 88 99 100 100 99 100 99 99 99 98 99 85 78 76
86 69 54 54 52 54 56 61 60 64 60 54 50 44 36 24 30 28 24 47 59 72 84 89 86 84 80 92 90 92 100 98 96 99 100 99 100 99 98 98 91 88 92
93 82 72 64 75 70 62 78 94 81 66 57 48 39 32 32 39 46 39 46 58 73 87 86 89 84 82 91 97 99 100 100 100 100 99 99 100 99 99 99 97 98 95
84 79 66 66 80 91 92 98 97 76 67 49 39 39 37 52 53 49 41 52 62 69 81 91 84 78 81 97 100 99 98 99 98 100 99 99 99 100 98 98 96 94 65
84 80 66 74 82 98 95 91 88 81 62 49 42 37 36 58 62 51 50 61 76 78 93 91 90 100 100 100 97 99 98 100 100 99 99 99 98 97 97 97 64 25 20
89 89 71 88 95 95 86 90 91 79 64 51 44 42 74 76 67 70 77 84 85 92 100 84 94 100 100 94 96 100 100 100 100 98 98 99 98 97 80 26 20 20 19
99 95 88 97 85 78 82 84 74 51 43 42 36 61 86 83 88 92 97 91 84 93 83 77 100 100 98 99 100 100 99 99 97 98 98 97 66 24 20 20 19 15 11
98 95 80 95 82 91 83 78 72 55 40 49 70 85 95 87 84 97 97 92 90 57 71 99 90 100 100 100 99 99 98 99 98 95 67 24 21 21 19 15 11 7 6
97 67 62 74 86 88 98 100 96 100 99 83 99 94 100 98 99 93 99 100 98 99 87 97 100 100 99 98 99 98 97 96 53 23 21 21 18 14 9 7 5 4 5
99 73 83 97 100 100 99 99 97 100 99 99 98 98 98 99 100 99 92 91 100 97 99 99 99 98 97 97 97 88 35 23 21 21 17 13 8 6 4 4 4 5 6
100 99 99 99 100 100 100 100 99 94 78 96 98 99 99 98 99 96 100 100 96 99 98 98 98 97 97 63 27 22 22 21 17 13 8 6 5 4 4 4 5 6 7
97 99 100 100 100 100 100 100 100 100 100 95 97 93 99 100 99 99 100 98 97 98 98 97 81 34 25 22 22 20 16 11 8 6 5 4 4 4 5 6 6 8 8
85 97 98 99 99 100 100 99 96 100 98 98 98 98 98 99 99 99 98 98 97 83 40 25 23 23 22 19 15 10 8 7 6 5 5 4 4 5 5 6 8 9 9
85 90 93 94 99 100 99 99 96 94 97 98 98 99 100 100 100 86 51 29 26 23 23 24 21 17 13 10 8 8 7 6 6 5 4 4 5 5 6 6 8 9 29
82 90 96 95 92 93 95 98 97 99 100 100 98 88 65 38 27 25 22 23 25 23 20 16 13 10 8 8 8 7 6 5 5 5 5 5 5 4 4 7 10 40 46
87 93 99 100 91 93 98 98 95 91 75 48 31 28 27 23 24 25 25 23 20 16 13 10 9 9 9 9 8 6 6 6 5 6 6 6 4 5 8 19 55 59 57
94 90 95 99 97 82 77 53 40 33 29 28 26 24 25 26 25 23 20 17 14 11 10 9 10 10 9 8 7 6 6 6 7 7 7 5 6 11 38 57 66 60 58

GFSMW_700_rhum_048.txt.gz
RH
14 16 20 26 36 44 51 59 62 59 60 56 45 38 36 39 43 48 53 51 49 50 57 56 60 61 62 62 62 60 57 67 65 60 72 80 83 86 86 77 52 48 51
25 26 29 30 25 21 27 45 51 57 61 61 65 54 57 54 51 48 58 62 59 56 58 62 68 70 64 62 66 64 65 75 73 66 79 78 82 87 90 82 64 53 53
18 17 22 28 30 29 28 27 29 34 45 45 44 57 64 64 62 54 51 51 63 62 62 66 72 75 70 67 70 71 74 81 83 81 82 78 75 86 82 83 66 67 60
20 16 18 18 17 17 20 31 34 34 34 31 28 38 61 72 76 78 76 68 63 58 62 63 72 80 80 76 76 81 84 99 96 98 94 94 95 97 98 90 90 87 87
22 20 18 18 20 23 23 22 20 22 34 44 43 36 31 36 63 68 64 69 69 70 71 76 72 74 77 78 82 87 96 96 98 98 94 97 100 98 87 98 97 97 93
26 26 24 24 26 24 25 26 26 26 26 29 38 52 58 56 46 42 47 46 55 66 72 74 87 82 73 72 86 92 96 87 88 89 83 99 94 96 97 98 97 99 89
33 32 30 31 30 33 32 34 37 37 39 40 39 41 54 62 68 68 63 56 61 73 75 73 79 80 74 71 75 88 95 93 86 89 95 99 99 96 96 99 94 99 88
37 37 35 34 33 32 33 34 33 34 36 39 42 42 43 43 43 43 56 68 70 68 71 72 80 81 90 84 75 76 84 95 94 93 96 100 100 99 100 99 100 100 99
42 41 39 39 38 37 38 38 38 38 38 42 45 43 43 42 41 37 38 42 57 70 70 67 68 86 98 93 86 78 83 93 98 98 96 100 98 94 99 100 100 100 95
65 60 52 47 42 41 42 44 43 41 41 44 45 45 44 46 44 41 34 36 36 38 55 60 64 64 79 97 86 85 87 93 100 99 88 100 98 98 100 100 99 99 99
75 75 63 58 52 49 48 51 54 48 55 64 70 67 59 54 48 43 35 28 36 33 43 57 63 67 75 84 87 96 93 92 98 99 100 98 100 96 100 100 99 99 99
77 76 72 58 45 43 47 52 64 74 77 87 77 75 68 53 45 37 33 35 32 35 40 61 67 75 81 95 100 100 93 96 100 100 98 99 94 98 97 100 99 98 98
76 59 56 58 57 48 57 89 95 95 96 95 86 81 69 48 43 38 35 46 41 40 48 57 68 72 84 99 100 100 98 100 98 100 100 100 97 100 99 99 97 97 98
76 58 55 52 45 59 84 99 100 99 92 91 86 63 56 51 41 37 38 50 46 44 47 67 72 86 100 100 98 89 70 96 100 100 100 99 100 100 99 98 98 97 64
81 70 68 46 60 64 94 100 96 85 79 63 49 47 50 47 40 51 55 58 52 56 68 81 90 95 96 89 74 98 100 100 100 100 100 98 98 98 98 98 80 24 21
91 84 54 53 42 65 84 84 76 62 54 46 45 45 43 42 61 77 72 76 80 94 97 100 99 98 100 98 94 100 100 100 100 99 97 98 97 98 85 24 21 19 11
100 65 47 37 46 60 70 79 80 79 98 89 82 61 60 81 94 87 90 100 99 99 99 99 100 98 99 100 100 100 100 98 98 98 98 94 43 22 21 16 11 7 5
99 75 51 49 60 76 97 99 100 100 100 100 94 92 90 93 99 100 100 92 99 89 99 93 100 100 100 99 100 98 99 99 97 92 38 22 21 14 10 7 6 5 4
99 97 82 71 83 99 100 99 100 99 99 90 98 88 92 97 97 99 98 98 98 99 100 99 99 99 99 98 99 98 98 93 34 22 20 14 9 7 6 5 5 4 5
92 96 96 100 100 99 99 100 100 100 99 100 100 93 99 97 100 97 98 98 98 98 99 100 99 98 97 97 88 35 22 22 17 12 8 7 6 6 5 4 4 4 4
76 96 100 100 100 99 100 98 99 100 100 100 100 100 100 100 98 98 97 97 97 98 98 98 96 69 33 23 23 19 14 10 8 8 7 6 6 5 5 4 4 4 4
75 81 99 98 97 99 95 94 96 97 97 99 98 96 97 95 96 96 97 98 94 71 42 25 23 23 20 15 11 10 10 9 8 7 7 6 6 5 5 5 5 4 4
74 77 78 88 100 99 95 92 88 88 90 92 93 95 95 96 91 52 32 26 24 24 24 21 17 13 10 10 10 10 9 9 8 7 7 6 6 5 6 6 4 5 9
79 79 86 94 96 92 92 96 92 91 93 96 82 54 33 29 26 23 25 25 23 19 16 13 10 11 11 11 10 10 9 8 7 7 7 6 7 7 7 5 7 22 44
95 80 82 85 90 96 98 95 89 78 54 34 30 27 24 24 26 24 22 19 16 13 11 11 12 12 12 11 9 8 7 6 6 7 8 8 9 7 7 15 43 44 42
99 89 91 85 77 74 60 55 43 32 30 28 25 26 27 26 24 20 17 15 13 13 13 14 13 12 10 8 6 5 6 7 8 9 10 8 6 9 36 50 47 43 45

GFSMW_700_rhum_051.txt.gz
RH
15 16 15 21 34 41 44 50 52 52 51 50 48 46 48 47 42 42 50 56 56 54 55 55 59 59 56 57 60 65 66 66 64 69 71 67 64 73 79 83 82 79 69
20 19 18 17 16 18 25 34 42 48 52 55 56 54 54 56 55 53 46 52 49 53 62 57 58 64 60 59 64 68 68 72 70 74 84 76 72 73 77 88 84 82 70
23 24 27 26 25 24 24 24 24 25 22 24 48 55 58 58 60 61 45 42 44 46 57 68 68 65 65 64 70 72 72 75 76 83 94 90 84 83 83 85 86 83 83
21 24 20 19 20 19 22 29 32 32 33 37 32 30 34 41 47 49 59 74 77 76 64 64 66 73 72 70 71 76 83 83 81 84 93 92 94 97 98 95 91 88 93
29 24 23 22 21 20 20 20 20 20 22 31 40 44 43 42 38 33 41 70 74 79 76 69 66 60 64 69 74 80 82 86 86 86 92 99 98 98 94 85 95 93 90
28 27 26 27 28 25 23 21 19 20 23 23 25 32 47 56 52 52 52 47 49 51 58 71 69 69 70 77 77 78 81 90 94 95 92 98 96 92 91 99 99 99 99
33 33 31 32 32 33 33 31 30 27 25 25 27 32 40 45 50 60 66 68 68 66 59 58 59 54 56 78 96 92 79 78 95 98 99 100 92 90 99 98 97 97 100
40 38 37 36 34 32 33 33 34 35 34 31 31 34 39 43 45 46 46 48 48 54 69 71 67 69 73 78 89 96 88 77 82 93 100 100 100 97 93 99 100 99 100
48 48 47 44 43 41 39 37 35 36 39 39 38 34 35 41 45 45 43 41 40 40 45 60 68 70 71 77 85 97 97 98 93 97 96 99 99 100 100 95 100 98 100
50 53 51 44 43 41 40 43 45 42 43 44 43 42 41 44 46 47 46 45 42 36 37 36 49 63 69 67 65 74 99 99 100 99 92 90 99 99 99 92 100 99 100
55 51 55 36 26 22 23 25 28 33 44 59 55 51 56 57 53 53 51 48 44 39 34 36 37 46 62 64 65 68 79 95 100 100 98 100 99 99 95 96 96 99 100
54 52 53 30 28 24 26 24 22 27 46 61 74 69 65 70 73 73 58 55 48 43 37 31 36 36 51 62 67 72 82 90 96 100 100 98 88 99 93 100 99 99 99
86 64 48 39 28 25 28 26 33 41 65 78 82 89 90 81 77 76 70 54 49 43 36 38 42 37 40 58 71 83 92 93 98 94 100 95 91 99 99 99 99 100 99
99 82 64 41 27 30 28 31 33 54 78 67 80 77 72 85 79 85 60 45 41 42 48 56 55 47 47 64 78 77 89 94 90 100 100 100 96 100 99 98 98 98 98
100 93 47 37 28 24 26 34 48 60 60 58 51 47 45 48 54 57 54 50 52 52 56 56 54 53 58 83 85 86 98 100 95 88 99 100 99 99 98 97 98 98 96
99 90 41 33 32 29 42 58 60 53 48 43 54 42 45 52 55 62 74 80 79 72 66 74 85 94 96 96 100 100 98 99 99 100 98 99 98 99 99 98 87 21 21
89 90 50 40 37 43 56 69 77 89 98 99 95 98 84 65 96 100 98 97 92 97 100 99 99 100 100 100 100 100 99 100 99 99 98 98 99 97 89 40 21 14 8
78 62 55 55 58 63 72 80 89 86 87 100 96 91 96 100 99 99 99 100 100 96 97 91 99 96 100 100 98 99 98 98 98 97 98 96 60 22 19 12 8 6 6
70 71 73 82 76 88 96 99 99 96 78 85 96 97 99 99 91 98 99 99 99 100 99 99 100 99 100 100 98 97 97 97 91 48 24 20 14 9 8 8 6 6 5
67 70 96 98 100 100 100 100 100 100 99 100 99 99 96 99 99 99 99 97 97 98 97 97 97 97 96 96 97 77 27 22 19 13 10 9 8 8 7 7 6 6 5
66 75 84 99 100 99 95 94 98 99 99 99 98 99 99 98 98 97 97 98 97 97 97 97 91 66 30 23 21 17 12 10 9 10 9 9 8 8 7 6 6 6 6
67 66 72 88 99 95 89 84 83 90 95 94 94 97 97 97 96 95 92 81 57 32 24 23 22 19 14 11 10 11 11 11 10 10 9 8 7 7 6 6 6 6 6
79 68 74 75 88 93 84 84 85 84 86 88 88 87 74 45 30 27 25 24 24 21 18 14 11 11 11 12 13 12 10 8 7 6 5 4 4 5 6 7 6 5 6
97 77 73 81 85 85 86 88 85 82 76 52 33 28 27 24 25 25 23 20 16 14 12 11 13 13 14 12 10 7 5 3 3 4 4 4 6 6 5 4 7 19 39
98 97 78 70 70 76 82 84 74 45 30 29 26 24 26 26 24 21 18 15 13 13 14 15 15 13 10 6 4 3 3 3 3 3 4 5 4 3 7 20 33 36 37
99 99 92 71 65 56 50 45 34 30 27 25 26 28 27 24 21 18 16 14 15 17 17 15 12 8 5 3 2 2 2 2 3 4 3 3 7 19 29 33 35 36 38

GFSMW_700_rhum_054.txt.gz
RH
12 13 13 13 14 16 20 28 38 45 49 45 42 43 37 40 42 43 48 48 50 58 58 57 57 57 56 56 59 60 60 61 63 67 64 64 65 66 63 68 74 80 82
15 15 14 14 14 15 17 21 22 29 39 43 44 44 43 43 41 45 54 54 52 56 61 61 59 61 60 58 59 59 59 62 66 71 70 72 69 69 70 73 76 78 84
16 17 18 20 21 18 16 15 15 16 19 24 31 36 40 39 31 34 38 42 49 53 50 50 56 58 68 66 62 62 62 65 72 73 79 77 72 73 79 77 76 77 81
28 28 28 28 26 24 21 20 22 25 27 30 30 29 24 23 23 36 50 58 60 54 56 61 62 59 64 71 74 66 69 72 74 80 80 80 79 81 83 84 96 90 90
33 30 27 24 20 18 18 19 19 20 22 25 27 31 32 32 35 34 36 40 43 48 67 76 82 71 66 64 64 74 76 74 76 78 83 87 86 87 84 86 88 98 99
31 29 26 24 22 20 20 20 20 19 19 19 18 20 22 31 40 44 46 51 53 49 44 54 71 73 72 71 64 63 67 71 80 83 88 89 91 91 96 95 90 91 92
28 29 29 28 27 28 27 26 25 25 24 24 23 23 22 22 24 31 46 57 59 59 58 58 58 60 62 64 74 74 70 73 82 85 89 94 97 98 100 98 98 92 94
38 38 36 35 34 34 33 32 32 33 33 34 34 34 33 32 29 32 40 44 47 51 57 64 70 69 68 71 68 66 74 67 89 91 99 97 94 98 100 98 99 100 96
44 45 45 43 41 39 38 38 39 38 36 35 35 37 39 38 37 40 44 46 47 47 46 46 46 52 56 69 70 66 68 69 74 92 99 96 100 100 100 98 100 100 90
50 47 47 46 46 40 27 29 31 31 36 42 46 43 42 42 42 42 44 46 47 46 43 41 41 40 51 67 74 74 70 76 82 92 99 100 99 100 100 100 98 98 99
52 51 49 46 45 32 20 20 17 15 16 17 24 37 53 56 53 54 53 51 50 49 47 44 40 36 38 52 66 72 75 74 75 80 94 95 100 83 100 98 99 96 94
64 61 57 50 37 24 21 15 13 16 17 20 29 35 45 59 72 73 67 66 68 64 60 54 51 44 38 36 48 63 69 72 74 76 86 90 87 100 99 98 100 100 99
76 75 60 41 28 26 20 17 14 15 17 24 30 33 37 50 55 59 68 84 84 81 81 75 70 85 49 37 39 44 57 63 71 76 88 93 94 100 100 86 99 100 99
73 68 54 42 27 26 22 19 18 21 20 25 25 28 29 33 35 40 47 66 77 83 84 70 61 56 55 58 52 44 45 57 76 82 92 94 100 100 98 99 100 99 98
73 74 68 49 31 27 26 27 32 37 40 39 35 32 30 30 35 37 44 54 62 68 70 74 69 70 68 64 63 52 53 75 92 90 94 100 99 99 99 99 100 97 96
66 72 70 51 33 29 32 37 43 52 46 54 57 55 39 33 35 42 49 55 66 85 95 91 77 75 72 62 66 72 92 97 100 100 100 99 99 99 99 98 98 96 96
64 67 50 47 41 40 46 50 51 62 50 68 76 84 78 71 76 65 76 79 85 96 100 100 100 98 100 100 100 100 100 100 98 99 100 99 99 98 96 93 90 58 25
58 60 63 59 62 56 59 54 68 87 60 57 64 75 75 87 97 92 97 98 98 99 99 100 98 99 99 99 94 99 96 97 94 96 97 96 97 91 64 27 20 13 9
58 66 63 79 79 72 65 61 92 98 90 85 80 93 94 90 92 98 89 98 99 98 98 99 100 100 100 100 98 97 95 96 97 93 61 32 22 17 11 9 8 8 7
63 65 74 86 98 87 72 80 96 100 100 88 96 97 99 100 94 98 95 92 96 98 97 97 97 97 97 97 96 95 58 28 20 14 11 10 10 10 9 9 8 8 7
69 63 66 74 98 81 75 70 72 82 91 87 90 96 87 89 85 90 92 92 92 94 94 92 78 51 32 24 20 15 11 10 11 11 11 10 10 9 7 6 5 4 5
79 67 66 69 82 86 76 72 68 77 78 81 87 87 85 83 72 57 40 28 25 24 23 21 18 14 11 10 10 12 12 12 11 9 6 4 3 3 3 3 4 4 4
95 81 72 76 82 83 81 78 79 79 79 80 76 51 30 26 25 25 25 24 20 17 14 12 11 13 14 14 12 9 6 4 3 2 2 2 2 2 3 3 3 5 9
99 97 87 76 83 86 87 84 82 71 47 30 27 25 24 27 26 24 20 17 14 12 13 15 16 16 12 8 4 3 2 2 1 1 1 2 2 2 3 6 12 17 22
100 100 96 88 71 78 82 77 55 32 28 26 24 26 28 26 23 19 16 14 14 16 18 19 17 12 7 4 3 2 1 1 1 2 2 2 3 6 11 15 19 23 28
100 98 99 96 70 60 53 45 33 29 26 25 27 29 27 25 20 17 16 16 18 21 21 18 14 9 4 3 2 2 1 1 2 2 2 3 8 14 16 19 23 26 30

GFSMW_700_rhum_057.txt.gz
RH
15 13 9 9 9 9 10 14 26 38 46 50 50 39 40 43 44 42 43 45 44 46 51 50 57 59 58 59 59 61 59 62 62 61 61 59 63 65 61 60 61 59 63
13 12 11 11 11 11 12 12 13 16 23 32 41 42 28 34 37 41 40 45 42 44 53 55 53 64 68 70 64 64 63 62 65 65 67 63 64 67 65 66 68 66 63
13 11 11 12 13 12 12 13 14 14 14 17 22 32 23 23 26 25 25 31 40 43 46 54 55 55 60 64 65 66 68 66 66 70 74 70 66 69 69 70 75 76 71
19 19 17 16 17 18 19 20 21 21 20 19 19 20 21 22 25 29 28 29 33 37 52 59 66 63 71 71 68 67 64 75 73 72 73 76 74 74 72 73 75 80 80
29 30 29 29 27 26 24 21 18 16 15 16 21 27 29 32 32 32 32 32 31 29 44 66 72 71 64 61 75 74 70 62 74 78 78 81 85 82 82 81 80 83 84
33 35 34 30 27 24 21 19 18 17 16 16 16 17 18 18 19 20 25 33 41 46 45 45 47 53 62 74 79 81 83 76 71 70 74 81 87 86 88 92 95 93 93
35 32 29 26 23 22 21 21 22 22 23 24 24 23 24 25 26 27 26 25 28 39 51 54 55 55 53 55 67 78 76 79 80 77 71 75 76 79 84 98 99 100 98
36 36 36 36 35 34 33 32 31 30 30 30 30 30 30 32 34 35 35 34 34 32 36 40 54 63 66 67 65 63 72 73 72 73 83 78 74 76 93 98 100 100 99
35 33 35 38 40 39 39 40 38 36 36 38 39 38 36 35 36 36 38 39 40 42 44 47 45 46 53 58 68 73 75 72 71 73 77 78 83 80 99 100 93 93 98
42 43 43 43 42 41 40 40 29 19 21 26 28 33 42 46 46 44 43 44 44 46 49 52 50 48 47 47 46 52 64 80 79 79 82 77 79 87 98 99 100 98 99
53 53 50 47 44 42 39 38 22 18 15 13 13 15 16 22 27 34 48 56 55 54 55 53 53 52 49 45 43 42 48 64 74 83 86 88 91 98 98 99 100 100 93
61 59 56 50 49 44 38 24 19 15 12 12 12 14 21 25 28 28 36 49 62 71 72 70 70 68 59 52 47 44 45 45 50 68 81 89 90 86 89 91 95 100 94
66 62 58 52 47 31 25 22 19 16 15 13 12 14 16 20 22 21 23 32 42 50 55 75 83 86 84 74 62 60 57 55 50 50 60 66 74 84 84 92 100 93 95
65 65 62 58 51 33 29 24 23 24 25 28 28 23 19 16 16 19 25 30 35 43 47 57 69 77 88 94 92 86 84 81 75 60 51 56 66 77 99 99 93 99 98
62 59 59 63 58 36 30 26 28 29 32 34 32 31 30 26 23 23 27 32 36 37 44 54 58 72 77 71 79 90 86 94 76 85 73 75 100 93 98 90 98 99 98
60 61 62 53 47 34 31 32 35 40 38 38 35 36 51 55 50 56 59 39 38 42 50 60 77 86 90 92 87 80 86 86 95 100 100 95 96 87 92 99 99 96 96
61 56 60 61 52 44 38 44 49 46 51 48 41 50 57 62 64 62 62 66 76 70 60 80 83 98 100 99 100 100 99 100 100 100 100 100 94 98 98 97 87 80 92
60 53 59 58 62 62 58 62 56 52 56 60 57 54 60 69 70 72 71 70 77 98 100 99 86 86 98 98 98 98 98 98 99 98 98 97 97 95 91 80 92 53 21
63 57 62 69 66 69 67 61 67 66 76 68 64 58 64 68 70 77 76 74 79 93 88 89 98 99 98 96 97 97 98 99 98 90 90 82 60 35 20 13 10 10 10
71 55 57 64 71 71 75 69 62 65 71 72 77 74 72 78 76 80 73 73 78 83 85 88 92 95 96 95 90 65 50 28 17 16 12 11 11 12 11 10 9 7 4
78 64 59 65 73 77 67 62 58 61 65 69 70 71 72 77 78 72 60 51 54 53 47 32 24 22 19 15 13 12 12 12 13 11 10 8 6 4 3 2 2 2 2
87 79 67 69 74 74 71 67 66 66 67 68 70 74 71 49 30 25 26 26 24 20 16 14 12 13 14 15 14 12 9 5 4 3 2 2 1 1 1 2 2 2 3
100 94 82 69 73 77 76 74 73 73 70 64 48 29 25 24 27 27 24 20 17 14 14 15 17 17 16 12 6 4 3 2 2 1 1 1 2 2 2 2 3 5 9
94 99 96 81 70 73 77 77 72 64 44 29 26 24 25 29 27 24 20 16 15 16 18 19 20 17 13 8 4 4 3 2 1 1 1 2 2 2 3 5 8 12 15
90 99 99 94 88 67 69 74 64 38 29 27 24 26 29 28 25 21 18 16 16 18 21 23 22 19 15 8 4 4 4 2 1 2 2 2 2 3 6 10 14 17 21
97 96 99 99 99 75 59 54 46 31 29 25 25 29 29 27 24 20 18 17 19 22 26 27 27 23 18 11 5 4 4 2 2 2 3 3 4 7 12 14 18 22 24

GFSMW_700_rhum_060.txt.gz
RH
16 17 14 13 12 11 10 9 12 18 28 44 58 40 37 42 48 50 51 47 45 43 44 46 47 51 54 56 60 66 63 59 61 66 65 64 64 64 63 62 66 61 60
28 26 11 10 10 10 9 8 9 10 13 21 37 56 47 39 36 40 46 50 45 39 44 45 46 46 57 62 61 63 67 68 66 66 69 66 68 68 66 65 67 69 66
18 13 11 10 10 9 10 11 11 12 12 13 14 16 21 17 13 13 18 23 35 46 42 47 49 52 60 63 64 64 62 70 72 70 73 73 68 72 74 70 69 72 72
14 12 12 11 11 12 12 14 15 15 15 16 16 17 19 21 19 18 21 22 25 29 40 51 54 56 52 59 76 79 81 80 74 70 64 69 78 78 75 75 75 78 75
16 17 19 17 17 18 18 19 20 21 22 20 18 17 17 21 31 35 33 32 30 27 28 34 39 51 61 62 66 76 79 78 78 74 77 71 77 83 84 83 81 89 98
30 29 29 28 28 27 26 23 21 18 16 15 14 14 14 15 17 21 23 22 21 20 21 25 34 43 47 51 56 64 71 75 81 81 72 78 81 80 85 92 98 98 100
34 33 32 31 29 27 23 20 19 18 17 16 16 18 20 22 23 24 25 26 28 29 30 29 28 36 42 56 63 66 64 62 66 73 78 78 79 81 85 91 96 98 96
37 34 31 28 26 24 24 24 24 25 27 29 30 32 31 30 30 31 32 33 34 36 37 36 36 38 56 49 52 62 67 74 76 74 76 78 80 82 84 86 90 98 100
34 34 33 30 28 27 31 33 35 35 36 36 33 33 36 39 42 42 40 39 39 40 42 43 44 43 44 44 45 49 56 67 74 83 87 90 97 89 79 82 87 95 99
36 34 32 32 37 39 40 39 38 38 39 26 18 17 19 23 25 28 33 38 38 40 43 48 51 53 53 54 54 52 51 51 51 57 70 82 94 97 96 99 99 99 99
41 41 44 47 46 45 42 41 40 40 33 20 15 11 10 10 12 13 14 15 18 21 29 46 58 61 62 62 62 60 57 55 50 50 51 53 64 76 88 94 98 100 100
45 54 56 54 48 46 45 43 38 32 22 16 12 9 10 11 12 16 18 18 17 21 26 30 40 48 50 68 79 80 78 73 64 57 55 52 47 49 69 84 98 99 99
61 60 57 56 51 51 48 30 25 22 19 16 18 18 18 16 15 14 14 16 16 21 23 24 34 42 48 51 58 66 81 97 94 76 65 65 60 46 60 65 85 79 89
64 62 57 56 53 54 52 29 25 22 22 24 25 26 28 29 29 27 18 15 17 22 28 28 33 39 49 50 59 71 71 90 97 93 90 86 79 61 60 88 99 100 91
64 57 53 55 49 55 50 30 25 25 26 29 29 28 32 33 37 37 33 30 43 44 38 38 38 41 42 52 69 90 97 80 87 93 93 99 93 83 100 88 98 100 99
62 56 51 52 52 44 37 30 30 31 41 39 44 37 36 40 42 44 51 51 50 53 60 55 53 62 60 72 75 89 86 99 94 99 88 83 99 94 100 97 98 92 98
62 57 52 51 53 56 53 42 43 50 52 48 53 42 41 44 49 49 56 53 54 57 60 67 67 73 73 77 95 77 87 91 96 100 99 99 99 100 98 98 99 97 95
68 60 52 55 58 60 66 61 60 57 54 61 63 55 52 56 57 59 60 55 60 65 67 67 74 73 76 83 89 86 94 97 96 96 98 97 95 97 96 94 93 76 40
70 63 52 53 61 69 68 66 65 70 74 72 65 59 64 62 63 65 59 57 62 68 70 70 72 76 76 78 80 67 66 56 45 39 34 25 18 16 15 13 12 12 11
73 69 58 60 67 69 67 63 60 60 66 68 66 66 66 62 66 64 51 57 62 63 54 51 41 21 18 16 15 15 14 14 13 12 10 9 8 7 6 5 3 3 2
84 81 70 63 66 65 66 63 59 57 59 62 62 62 65 66 46 29 26 26 26 23 19 16 15 16 17 17 15 11 6 5 4 3 2 2 1 1 1 1 1 2 2
90 83 86 66 64 70 70 69 66 64 63 63 64 62 47 28 25 27 27 23 18 16 15 18 20 21 20 16 10 6 4 4 4 2 2 1 1 2 2 2 2 2 4
93 94 93 84 68 68 72 72 69 65 63 53 40 27 25 25 28 28 24 20 16 16 19 22 24 24 22 18 13 8 5 5 5 3 2 2 2 3 2 2 3 5 7
89 96 100 98 83 67 69 70 67 62 48 32 27 25 24 29 28 26 22 18 17 19 22 25 27 27 26 25 22 16 9 7 6 4 2 2 3 3 3 4 7 10 12
80 86 99 98 94 83 66 65 68 60 37 29 26 24 28 29 28 25 21 19 18 21 24 27 30 32 33 33 32 27 18 9 6 5 3 2 3 4 4 7 12 13 16
76 87 99 98 100 94 76 61 57 50 33 29 26 25 29 30 28 25 22 19 20 22 25 29 33 36 38 42 40 35 25 10 5 5 3 2 3 6 8 13 15 17 22

GFSMW_700_rhum_063.txt.gz
RH
28 26 23 20 18 17 18 17 17 20 16 14 17 19 24 35 52 49 47 51 55 54 49 47 48 47 48 48 54 54 58 58 62 68 66 64 66 64 64 66 67 66 65
20 17 16 15 15 15 14 14 12 12 13 16 17 17 16 14 18 37 50 57 61 63 58 52 47 45 45 52 56 55 56 62 67 69 74 79 74 68 66 69 72 75 74
17 14 12 11 11 12 13 12 12 12 12 12 13 15 15 15 14 14 15 17 23 33 46 47 40 33 40 46 52 56 60 67 73 72 75 75 70 74 69 67 71 74 78
17 16 15 15 15 13 12 12 12 12 14 14 14 14 15 16 15 15 16 18 20 21 23 29 32 40 49 54 49 54 64 67 64 81 86 89 85 86 81 70 67 76 77
17 16 14 14 14 13 13 13 13 14 15 16 17 17 18 19 20 20 17 17 20 45 34 32 37 42 46 47 52 50 51 59 65 66 65 98 88 83 81 79 78 76 78
17 18 18 17 19 20 21 21 21 22 22 21 19 17 15 15 14 15 17 17 16 14 14 15 18 19 21 27 43 54 65 69 69 74 87 96 98 81 79 76 78 90 98
27 27 29 29 28 28 28 26 24 22 19 16 15 15 14 15 15 16 18 22 24 26 26 27 29 30 31 33 48 48 52 58 67 74 77 80 88 88 78 77 96 98 94
30 31 32 32 30 28 25 22 20 18 17 17 17 18 20 22 25 29 32 33 33 34 35 35 36 37 38 39 40 40 42 44 52 61 73 80 87 91 87 78 98 93 100
35 34 32 30 29 28 26 22 21 21 23 26 28 30 31 28 25 27 33 39 42 43 43 42 41 40 41 43 45 46 46 47 49 51 54 64 68 70 83 82 99 75 99
37 35 33 31 27 24 24 24 25 29 31 32 34 35 28 18 16 15 14 15 16 17 22 22 19 20 26 35 50 54 54 56 55 55 56 55 62 60 58 62 77 85 98
41 39 37 35 33 34 35 36 37 36 35 36 37 32 19 13 10 9 8 9 11 12 14 14 16 20 22 27 37 40 45 51 63 73 76 71 61 64 57 53 51 60 77
45 44 45 46 45 47 45 43 42 40 38 37 30 19 14 13 12 12 11 10 10 15 14 14 22 25 23 27 33 41 41 42 49 57 78 97 81 69 71 64 53 52 56
50 58 60 56 51 51 47 46 46 32 24 23 20 18 20 22 22 24 24 24 19 12 12 16 25 31 27 26 32 40 45 46 66 75 75 100 98 88 77 73 70 60 57
66 65 60 52 49 51 48 51 49 30 26 24 23 25 25 25 27 30 30 31 23 20 25 37 38 40 35 34 38 40 46 56 72 80 79 98 100 98 93 82 82 76 67
71 66 59 52 49 53 48 53 48 31 27 27 28 33 35 32 32 37 40 44 41 43 43 41 47 50 50 53 51 59 57 65 66 74 79 87 95 93 95 100 99 94 98
72 66 60 54 50 53 55 44 37 32 30 33 42 42 45 35 37 40 45 45 45 48 46 49 55 56 53 56 60 60 69 69 76 73 76 89 100 92 99 99 100 100 100
78 69 63 55 52 56 55 58 49 41 44 50 46 47 50 42 44 46 52 49 50 52 54 57 61 57 59 61 62 70 72 74 91 90 90 94 94 97 97 94 97 97 98
81 73 64 54 51 58 60 64 62 57 54 51 51 55 54 54 53 54 56 52 54 56 58 60 60 58 59 63 66 55 45 34 31 34 40 47 33 26 22 23 24 25 25
78 75 65 55 53 56 62 62 60 56 56 58 62 59 59 63 63 59 55 58 54 52 55 57 44 25 19 17 17 17 16 13 9 6 5 4 4 3 3 4 5 5 5
78 78 70 59 55 59 62 61 56 54 55 59 60 64 69 67 64 50 43 44 31 25 22 18 16 17 20 20 17 11 7 6 6 6 4 2 2 2 1 1 1 2 2
85 84 78 67 60 65 65 62 59 56 56 58 59 62 65 64 36 26 27 26 22 17 16 18 21 23 23 21 18 15 11 8 8 9 8 5 2 2 2 3 2 2 2
88 90 81 75 68 67 70 66 63 62 61 62 63 64 52 28 25 28 27 21 18 16 18 22 24 26 26 26 25 23 22 18 14 11 10 8 4 2 3 3 3 3 4
76 90 89 82 78 69 71 69 68 67 64 56 47 32 25 24 28 28 24 21 17 17 20 23 26 28 30 32 33 34 34 32 25 17 11 10 6 3 3 4 4 4 6
76 82 96 97 89 86 71 71 71 71 62 44 30 26 24 26 29 27 24 20 18 18 21 24 28 31 35 38 41 41 41 40 36 26 13 8 6 4 3 5 6 7 10
76 76 77 93 96 91 90 72 71 72 61 38 29 26 24 28 30 28 25 21 20 20 22 25 29 34 38 42 45 46 46 44 39 27 14 6 4 4 3 5 8 11 13
84 76 78 82 98 99 92 79 65 62 56 37 31 27 25 28 30 29 27 24 22 21 22 25 30 35 40 46 49 50 50 49 43 33 14 5 4 4 3 5 10 14 16

GFSMW_700_rhum_066.txt.gz
RH
34 33 32 30 28 25 22 22 21 20 20 21 22 22 22 27 31 35 39 47 52 50 52 52 51 55 57 56 54 51 49 49 51 55 55 60 65 66 67 70 72 72 72
34 32 31 30 29 26 23 21 20 21 20 18 15 13 12 12 17 27 36 42 55 58 59 58 59 58 59 57 53 49 49 54 56 62 69 68 69 63 64 69 78 78 78
31 30 29 26 23 20 17 18 18 17 16 15 14 12 10 10 11 12 14 18 24 26 31 33 36 32 32 32 30 43 54 54 57 62 75 79 73 80 74 77 78 74 75
31 27 24 21 20 18 17 17 18 17 15 13 13 13 13 12 12 12 13 14 15 16 19 22 25 25 26 30 39 45 45 55 66 67 69 76 85 87 90 91 75 80 77
26 24 22 20 18 17 19 16 14 14 14 14 14 14 16 17 18 19 18 18 19 18 19 23 27 44 51 44 39 36 36 53 53 59 65 73 79 99 86 71 68 80 94
25 21 17 17 17 18 17 17 16 16 18 18 18 19 19 19 20 19 18 16 15 14 12 13 17 18 20 22 45 70 52 43 43 60 64 76 95 84 86 78 78 92 84
29 26 21 19 20 21 22 22 22 22 23 23 22 21 20 18 17 16 16 18 19 19 18 19 22 25 28 31 33 41 36 44 39 42 50 58 57 66 75 82 91 84 88
31 29 29 28 28 28 27 26 26 24 23 20 18 17 17 18 19 21 25 29 33 34 35 35 35 35 36 36 37 37 37 37 38 40 42 43 44 50 56 70 81 80 94
37 34 33 32 31 29 27 25 24 21 19 18 19 19 22 25 27 30 30 23 22 24 29 35 38 38 36 30 24 27 32 36 39 40 43 50 52 56 63 60 62 72 82
36 35 35 34 32 30 28 25 23 21 20 22 25 27 30 32 34 32 20 15 12 10 10 10 12 12 13 16 18 22 24 27 27 32 39 42 46 58 68 72 72 61 86
39 38 38 35 32 29 27 27 25 25 28 33 34 34 36 37 34 22 14 11 10 9 8 9 11 14 13 18 24 23 23 27 31 35 36 42 49 58 63 82 82 90 60
44 45 45 40 36 35 38 39 39 40 40 39 38 38 38 34 22 14 16 18 19 16 13 11 12 12 13 22 31 28 24 26 31 38 39 49 67 60 85 99 94 80 78
48 51 47 46 50 54 51 47 46 44 44 42 30 27 24 18 19 21 22 24 25 25 24 19 12 13 23 34 38 35 32 34 38 41 44 54 66 62 77 99 97 94 89
54 56 66 63 57 52 49 49 46 48 48 37 26 23 22 23 23 24 25 29 33 37 36 27 27 36 41 44 42 43 42 50 51 49 47 48 55 54 76 93 82 99 100
58 73 69 61 55 50 48 51 47 49 49 34 27 26 28 34 36 33 31 35 37 41 43 43 43 43 44 46 42 46 51 51 52 58 54 49 54 55 72 85 86 85 100
74 76 70 64 57 51 49 50 52 42 37 31 30 32 43 43 44 36 39 42 46 45 45 46 48 48 50 48 53 56 60 61 56 51 58 64 67 74 69 74 81 98 98
78 78 72 64 58 51 50 53 54 54 43 40 48 54 49 53 49 46 48 51 52 52 49 52 53 54 54 52 56 57 36 21 18 15 14 27 38 38 18 13 19 28 42
77 82 74 66 60 53 54 58 64 65 60 60 58 57 63 62 55 57 55 54 52 50 51 52 53 49 33 32 24 20 17 13 9 8 6 5 4 2 2 2 2 3 4
81 82 76 69 60 57 60 62 62 63 61 62 64 69 70 64 66 60 54 49 47 44 45 35 22 17 18 19 19 16 12 10 10 11 12 12 9 4 2 2 2 2 2
91 82 78 74 62 62 64 65 62 57 56 58 64 64 66 69 67 57 43 39 29 25 20 18 17 21 22 23 22 21 20 17 16 15 16 16 15 12 6 3 3 3 3
88 88 86 82 72 63 68 65 62 59 57 56 61 61 64 68 56 29 27 27 24 18 16 18 22 24 26 27 27 28 28 29 29 28 25 22 20 18 13 6 4 4 4
87 91 92 87 79 72 66 68 66 66 61 61 61 61 63 52 27 26 28 24 19 17 17 20 24 26 28 30 32 35 36 38 38 37 36 32 23 16 12 10 5 4 4
78 81 89 92 87 81 71 66 70 71 66 62 57 52 37 25 25 28 28 24 20 17 18 21 24 26 29 33 37 40 42 43 43 42 39 35 26 14 9 7 5 4 5
89 82 82 97 90 82 86 71 71 72 69 61 46 32 26 25 26 29 28 25 21 18 18 21 24 27 31 36 41 44 46 47 46 46 44 38 26 12 6 5 5 4 5
91 83 78 82 86 89 88 88 72 70 71 64 44 30 27 25 27 30 29 26 23 21 20 21 24 27 32 37 42 46 49 48 48 48 46 41 31 14 5 5 5 4 6
97 94 91 80 82 93 95 91 84 70 70 67 47 32 29 26 26 29 30 28 25 23 22 22 24 27 31 36 41 47 50 48 48 50 50 46 37 18 8 6 5 4 5

GFSMW_700_rhum_069.txt.gz
RH
44 41 43 42 39 33 28 27 25 23 23 23 25 26 27 29 29 28 26 30 35 40 39 52 57 58 58 58 60 63 61 60 55 47 42 49 54 53 55 58 62 68 68
49 41 41 39 36 33 31 29 27 25 23 22 22 21 20 19 17 16 17 20 22 26 34 40 52 64 64 63 58 51 48 41 40 43 57 60 59 57 63 68 74 79 78
38 34 37 36 35 33 31 29 27 25 23 21 20 19 17 16 14 14 15 15 16 19 24 27 33 38 36 30 24 25 28 28 31 41 67 74 70 68 68 70 71 83 73
35 36 34 33 32 30 28 23 19 17 18 19 19 18 17 14 13 12 12 14 16 16 17 18 20 21 23 26 29 30 35 38 46 48 53 58 64 65 64 67 71 70 97
41 34 31 30 29 28 26 22 18 16 15 15 14 13 13 13 13 14 14 16 20 23 25 24 23 21 22 26 29 49 48 37 31 34 38 43 53 62 75 63 72 84 79
38 29 24 26 28 28 24 20 19 18 16 14 14 14 14 15 16 18 19 21 21 19 17 15 15 16 19 22 24 29 27 60 75 52 57 60 67 61 57 59 53 54 59
30 30 31 31 30 27 20 18 17 17 19 22 23 23 23 24 23 22 21 19 18 17 17 16 17 20 24 28 30 32 35 37 37 51 47 41 42 44 46 50 54 51 51
32 34 33 35 32 25 21 24 26 26 27 26 27 26 26 24 22 20 19 20 22 24 27 29 31 32 33 35 36 37 39 39 40 39 36 38 39 43 48 51 54 60 55
34 43 41 34 33 33 34 33 32 30 27 24 23 22 21 20 20 21 24 29 32 35 26 20 20 23 28 33 35 34 35 31 24 24 26 28 32 35 40 43 44 47 45
45 42 39 36 35 35 35 33 30 27 25 22 21 20 20 22 24 27 31 34 34 25 15 11 10 9 10 11 13 14 14 19 23 23 21 24 31 34 35 38 50 58 64
40 38 37 38 38 36 34 32 30 28 26 24 24 25 28 31 33 35 36 36 26 15 13 13 12 10 10 12 14 13 20 29 28 25 24 29 34 34 36 45 54 57 74
45 44 41 39 38 37 36 35 35 35 36 37 39 40 40 39 39 40 36 24 16 18 20 21 21 20 14 12 12 15 28 35 33 31 30 35 36 37 40 48 52 62 92
50 48 44 43 41 40 41 48 50 49 47 46 45 45 42 33 30 26 20 20 21 22 25 25 27 22 17 12 19 37 39 39 37 38 44 42 41 38 39 44 52 60 64
53 51 48 46 48 58 59 54 49 47 50 47 49 48 35 26 23 23 24 25 26 27 30 32 36 33 31 38 41 42 41 36 37 42 42 47 53 41 44 52 58 64 62
53 52 54 68 70 63 57 53 49 48 50 46 54 45 31 26 26 31 37 36 30 33 36 40 41 43 44 44 45 45 43 44 47 48 47 47 55 56 53 26 28 40 41
57 58 74 75 70 65 60 53 49 49 50 48 44 35 29 29 36 41 43 37 38 44 49 46 47 47 49 51 51 50 48 49 49 26 16 17 20 31 16 5 4 5 7
54 58 79 76 74 67 61 53 51 52 52 55 42 36 38 49 46 48 47 45 49 53 51 50 53 54 52 50 50 47 33 24 18 13 10 9 7 6 4 3 2 2 2
54 64 78 77 76 69 61 53 56 57 61 62 56 54 56 53 54 56 54 54 54 54 53 54 52 46 39 32 23 19 18 15 14 13 13 14 16 16 14 10 7 5 4
56 74 79 84 76 69 59 57 58 58 59 64 63 60 63 64 64 61 59 54 54 52 50 43 26 19 18 20 21 20 19 19 20 19 20 20 21 22 21 19 16 10 6
54 80 88 85 79 72 61 62 64 61 59 57 60 66 67 67 67 65 58 56 47 39 31 19 17 19 22 23 24 25 25 26 28 29 31 32 32 31 29 24 20 15 9
83 88 92 86 82 77 68 64 66 64 60 56 58 63 66 68 68 58 45 34 26 23 19 17 18 22 24 26 27 28 30 33 35 36 37 37 36 35 32 28 20 15 12
94 96 90 88 89 84 76 67 67 69 66 60 60 62 64 68 58 31 27 28 25 19 17 17 20 23 25 27 28 30 34 36 36 38 40 41 41 40 36 28 18 12 10
91 89 88 89 93 89 78 79 72 73 69 65 63 67 65 56 33 26 28 28 24 20 18 18 19 22 24 27 29 33 37 38 40 42 42 43 43 42 38 33 22 12 8
94 92 90 85 94 88 81 83 84 74 72 70 65 57 44 30 26 25 28 28 25 22 20 19 19 21 24 26 30 35 38 40 43 43 42 44 46 45 42 37 29 16 8
99 99 93 88 87 92 84 84 88 85 76 74 70 57 36 29 26 25 28 29 28 26 23 21 21 22 24 26 30 34 38 42 44 45 45 44 44 47 49 45 36 24 12
98 100 99 98 94 89 92 83 88 90 82 76 74 64 43 32 28 26 27 29 30 28 26 24 24 23 24 26 28 31 35 38 41 43 45 44 43 44 52 54 47 30 15

GFSMW_700_rhum_072.txt.gz
RH
55 50 49 47 44 42 41 38 36 30 28 25 26 24 23 29 30 32 34 32 31 30 31 34 36 44 51 58 62 66 69 70 66 55 39 33 37 35 49 55 64 62 65
53 50 49 47 44 41 39 36 34 32 30 28 26 24 22 22 21 20 21 20 18 16 15 16 22 24 37 45 62 62 53 46 34 27 29 34 30 38 56 64 73 73 70
59 54 52 52 52 42 37 36 36 34 32 31 28 26 24 22 20 19 18 16 15 15 14 13 14 16 18 19 23 26 22 22 26 34 40 42 44 46 41 44 59 62 67
54 54 50 48 45 35 35 35 34 31 28 25 20 18 18 17 18 17 17 16 16 16 16 17 19 21 21 20 23 27 28 29 35 44 59 54 43 35 30 34 42 44 56
48 49 41 39 37 34 32 31 30 27 24 20 17 16 16 14 13 13 13 14 14 15 16 17 18 21 23 22 21 24 24 25 29 44 33 38 62 63 60 55 54 46 38
48 48 49 43 38 32 30 29 28 25 22 18 15 14 14 13 14 14 15 15 16 19 21 22 21 19 17 18 19 20 21 22 23 27 28 40 57 50 52 40 33 33 38
49 46 45 49 42 31 30 31 28 23 18 15 14 13 14 15 16 17 18 20 21 21 20 18 17 17 18 20 24 27 30 33 35 45 43 42 42 42 42 34 31 26 30
43 46 50 41 37 36 31 29 27 22 19 18 17 18 19 21 22 23 23 22 20 18 17 16 19 24 29 33 34 39 41 55 69 49 44 43 39 37 34 31 30 32 31
35 38 36 34 35 34 37 30 28 26 27 28 27 27 25 24 23 22 21 20 20 21 24 30 33 30 20 19 20 23 29 35 39 37 29 23 26 27 26 29 34 35 33
31 32 35 39 42 41 37 36 36 35 33 31 29 27 24 22 21 21 22 24 28 31 34 36 29 16 12 11 11 11 13 16 17 18 23 28 27 24 27 34 35 35 39
39 40 45 44 37 36 36 36 36 34 31 29 27 25 23 22 22 24 29 34 36 37 37 30 17 15 17 17 12 11 13 16 15 20 30 32 29 29 32 35 36 38 41
48 44 41 40 39 40 39 37 36 35 33 31 30 30 31 33 35 36 37 37 38 37 27 18 20 22 23 24 24 18 13 14 18 33 37 36 37 39 39 38 38 41 46
52 50 51 49 46 42 41 40 39 41 44 47 46 44 43 42 43 41 34 30 25 20 21 22 23 27 31 31 19 15 17 33 40 41 40 40 41 40 47 46 42 36 43
58 61 59 55 49 46 46 52 57 54 50 47 46 48 46 49 47 35 26 23 23 24 29 29 29 30 38 40 36 40 42 44 44 43 45 46 43 43 47 47 47 12 9
61 58 59 61 54 56 69 66 60 55 51 49 48 49 47 54 40 30 26 28 36 36 34 33 38 43 42 43 45 46 48 47 48 50 45 34 36 45 54 50 20 4 4
59 59 58 57 64 74 73 68 60 55 52 50 53 52 45 42 33 31 34 42 43 39 39 43 48 48 48 52 53 52 51 51 45 23 16 11 9 8 7 7 7 6 6
58 61 56 58 78 76 74 69 63 57 54 53 54 58 50 38 37 50 50 48 48 45 46 52 50 52 54 54 52 47 31 24 18 14 13 14 15 16 18 20 20 19 16
62 61 54 60 78 80 79 70 63 56 58 61 62 63 56 53 59 56 54 54 53 54 53 54 54 53 50 39 26 20 18 17 17 16 17 19 21 23 24 25 25 25 24
60 55 56 65 81 86 78 72 63 61 64 65 64 65 66 66 66 63 63 60 58 54 55 53 49 34 19 18 20 21 22 23 25 26 29 31 32 33 34 33 32 31 28
60 59 58 66 88 88 80 75 64 64 63 62 62 61 63 66 67 64 64 59 55 53 51 45 26 18 19 22 24 25 26 28 30 33 34 34 34 36 37 37 36 33 27
61 61 63 87 96 90 86 80 70 68 66 63 59 58 60 63 68 70 64 58 48 35 34 21 17 18 22 24 26 27 29 31 34 35 34 35 37 38 39 39 38 35 30
76 92 93 98 97 94 93 86 80 71 70 67 62 60 60 62 67 66 51 38 28 25 21 17 16 19 22 24 26 27 30 33 36 37 38 39 39 40 42 41 39 36 34
99 97 97 96 96 97 96 87 76 78 73 71 67 63 62 63 66 52 30 27 28 25 20 18 17 18 20 23 25 27 30 34 36 38 40 41 42 42 43 44 46 45 40
99 98 95 92 91 91 96 92 84 83 81 76 72 67 60 55 45 32 26 27 28 27 24 21 19 19 20 21 24 26 29 32 35 38 39 41 43 44 46 45 49 54 53
99 99 98 98 98 96 96 96 91 85 87 83 76 74 66 49 35 29 26 26 28 29 27 25 23 22 22 22 24 25 27 30 32 35 37 39 40 40 40 41 53 62 61
98 98 99 99 99 97 95 94 93 84 87 91 82 78 74 59 38 32 28 26 27 29 29 28 27 25 24 24 25 26 27 28 29 32 36 41 40 39 40 42 66 65 63

GFSMW_700_rhum_075.txt.gz
RH
73 61 53 45 42 40 37 36 35 34 32 29 27 25 24 26 27 28 33 36 36 36 36 30 28 28 37 39 48 51 59 62 68 72 58 44 32 21 26 38 37 48 68
68 66 61 56 51 47 45 43 41 39 36 32 29 28 27 25 23 23 23 22 22 23 25 22 19 16 15 17 23 24 27 31 42 38 25 19 24 32 39 47 45 46 49
64 62 58 55 52 50 47 44 39 35 33 32 31 30 29 27 26 25 23 21 20 18 18 16 15 13 13 13 15 16 17 17 18 22 28 29 31 42 49 39 36 43 46
64 62 61 57 53 51 51 50 48 35 32 33 33 31 28 24 20 17 16 16 16 16 16 15 14 14 14 15 17 18 20 24 34 25 26 26 29 44 32 41 61 59 59
56 54 54 56 57 54 46 42 38 37 35 34 31 27 23 19 17 16 14 13 13 12 12 13 14 16 18 20 22 22 20 18 19 18 18 22 25 28 30 41 48 45 38
55 56 50 48 44 40 39 37 34 33 32 30 28 25 22 19 16 14 13 12 13 13 13 14 16 17 19 18 17 17 17 18 20 25 48 38 35 47 40 40 39 30 27
53 52 54 54 52 49 45 45 36 30 28 27 24 20 16 14 13 13 14 15 17 18 18 19 19 19 18 18 18 21 26 32 36 41 47 42 44 48 48 39 30 28 24
38 46 50 54 54 53 51 51 41 34 27 24 22 20 16 14 15 16 18 20 21 21 21 20 18 17 16 19 25 32 33 29 31 38 50 58 64 47 38 30 30 26 26
40 35 36 42 49 52 54 46 38 33 30 26 23 20 19 19 19 20 21 21 20 19 17 16 15 18 21 28 32 24 16 14 15 21 28 32 30 22 26 29 27 26 32
32 32 39 46 49 52 47 41 37 36 31 28 28 28 27 25 24 22 21 19 18 17 17 20 23 27 32 33 22 14 14 13 12 13 14 17 18 27 32 30 28 32 36
35 37 37 42 46 46 47 46 40 36 34 32 31 30 28 25 24 22 21 20 21 23 29 34 35 36 32 21 18 20 21 19 15 14 15 15 24 35 33 33 35 38 40
42 45 49 50 52 51 45 41 40 38 36 33 30 27 26 25 25 26 28 31 34 36 37 38 35 26 20 21 23 24 26 24 19 14 14 28 38 36 36 41 42 47 41
50 52 57 55 50 44 42 42 42 41 38 36 34 34 36 39 40 40 41 42 41 34 28 24 22 23 24 26 28 32 30 17 18 31 41 41 39 40 42 44 48 47 42
48 54 54 54 54 51 49 48 47 45 52 55 52 48 45 43 44 43 46 45 34 25 23 25 30 32 29 31 37 41 39 41 44 44 42 46 45 39 41 50 54 52 42
54 50 59 58 55 52 53 53 63 67 63 57 53 49 47 45 46 46 47 36 27 28 36 39 36 35 37 43 44 46 48 49 49 50 45 20 13 10 8 8 8 7 8
59 63 64 58 57 56 54 70 76 70 64 59 52 50 50 49 48 45 38 31 32 43 45 42 43 46 50 52 54 57 55 53 42 22 16 13 13 15 16 18 20 21 21
52 66 62 58 57 57 74 77 76 74 66 60 54 54 55 55 53 43 38 43 51 50 49 49 51 52 56 57 56 52 34 24 18 15 15 17 19 21 23 25 26 27 28
57 65 61 64 57 61 77 78 77 73 67 60 59 62 66 67 61 52 57 60 57 55 54 57 56 57 57 50 32 21 18 18 19 22 24 26 28 31 32 32 32 32 32
57 61 62 59 57 59 77 82 78 72 65 62 64 64 65 67 72 68 68 67 66 63 60 59 60 56 37 21 19 20 22 24 26 27 30 32 33 33 33 34 35 36 37
57 60 61 58 60 55 82 88 80 76 67 68 67 65 62 62 68 70 71 70 67 63 62 61 56 34 18 19 22 24 26 26 27 32 35 36 36 37 37 37 38 38 37
62 64 62 61 60 65 93 93 89 81 74 70 68 64 60 62 68 73 75 70 66 62 58 58 36 18 18 21 24 26 26 27 30 34 36 38 39 39 39 40 41 42 42
68 67 66 63 77 90 98 97 94 81 76 72 69 66 63 64 68 71 70 66 64 50 40 30 20 17 18 21 23 24 25 27 31 35 38 40 40 40 42 44 45 45 45
73 74 90 98 100 97 99 98 97 85 75 74 72 70 65 65 66 66 63 48 35 27 26 21 17 17 17 19 20 22 24 27 30 33 36 38 39 40 41 42 42 43 47
95 95 99 97 97 97 99 99 97 89 83 79 79 76 70 66 67 68 52 32 27 27 27 24 20 19 18 19 20 21 23 25 28 30 32 34 36 39 44 48 48 48 55
97 94 95 99 98 99 98 96 97 97 94 86 83 83 79 73 64 53 38 28 26 27 28 27 25 23 23 23 23 23 24 25 26 28 29 31 34 47 59 60 55 57 67
98 97 99 99 97 98 98 98 98 97 96 96 91 88 86 84 75 56 38 31 27 27 28 28 28 28 27 27 26 26 26 26 26 27 28 29 32 48 54 62 66 68 72

GFSMW_700_rhum_078.txt.gz
RH
71 63 60 62 66 66 60 58 52 47 40 34 30 28 26 27 26 26 27 30 32 34 34 34 36 37 35 35 30 33 30 38 44 56 49 42 43 35 26 22 33 38 44
75 60 56 56 56 52 46 42 41 42 41 39 37 34 30 27 26 26 25 24 23 24 23 22 23 23 23 22 21 19 20 18 19 20 24 19 18 24 23 25 34 51 38
74 66 56 62 64 55 50 47 45 43 40 38 35 32 30 28 28 28 27 26 26 24 23 21 20 18 18 17 17 17 19 19 17 19 21 25 34 25 20 23 27 29 33
82 76 70 64 58 55 52 49 47 46 41 37 34 31 30 30 29 28 27 24 20 16 15 14 14 14 16 16 16 16 18 19 24 25 33 33 24 22 22 21 26 29 35
75 68 63 60 59 55 54 51 49 48 44 41 34 32 32 31 29 26 23 20 17 15 13 12 12 13 13 14 16 17 20 21 20 20 20 21 21 29 39 40 40 48 42
72 66 63 60 57 55 56 55 52 46 40 38 37 34 32 29 27 24 22 18 15 13 12 12 13 14 16 17 19 20 19 18 18 19 21 27 48 56 53 42 44 46 43
72 66 62 58 52 47 48 45 42 41 39 37 35 32 30 28 24 20 17 14 13 13 14 15 16 17 18 19 19 19 19 19 21 26 33 39 42 43 46 57 61 43 28
84 67 60 50 48 52 54 51 48 48 50 49 38 33 28 24 21 19 15 14 14 15 16 18 19 19 18 18 17 17 20 27 33 29 23 22 28 31 36 43 36 24 29
44 66 56 51 47 46 56 57 55 53 51 50 39 34 28 24 22 20 19 19 19 20 20 19 18 17 16 17 18 22 28 32 25 15 13 14 16 23 25 24 24 31 31
48 47 55 48 45 51 52 56 56 55 54 44 37 33 28 25 24 24 24 23 22 21 19 17 17 17 18 23 26 30 32 26 17 17 17 14 14 17 19 22 33 34 33
39 38 37 37 36 44 50 55 57 55 47 42 38 34 31 29 28 26 24 22 21 20 19 19 19 22 28 32 34 33 24 20 22 23 24 18 17 16 20 36 36 38 42
36 37 37 37 49 62 64 62 53 45 43 37 34 32 31 29 27 26 24 23 24 25 26 28 31 34 34 34 28 22 22 25 29 25 24 16 16 30 40 39 41 42 42
42 38 40 42 54 66 65 59 51 43 39 37 36 35 33 32 30 32 35 38 40 40 40 40 36 29 24 23 23 25 27 31 34 22 23 37 43 42 44 43 40 44 46
55 47 50 53 56 54 52 50 49 47 44 42 40 42 47 46 45 43 42 42 42 44 44 37 27 24 26 31 31 32 37 43 42 44 46 46 45 39 22 16 24 30 27
60 60 52 55 56 56 53 50 49 46 46 49 57 58 54 51 48 45 45 46 47 48 37 28 28 36 37 36 40 44 45 47 49 49 49 38 20 12 12 14 16 17 18
68 67 62 60 62 60 58 55 51 51 60 67 64 58 55 52 50 49 50 50 45 37 31 34 42 42 43 48 50 50 53 53 52 44 23 15 14 15 18 20 22 24 25
69 67 61 64 66 62 61 58 65 73 74 73 68 62 56 53 55 54 55 54 43 38 46 50 50 50 52 54 58 56 54 35 24 18 15 17 21 24 26 28 30 31 31
64 61 57 71 62 60 58 61 77 79 80 75 72 64 58 58 59 62 63 59 51 55 59 59 59 59 59 58 58 37 22 18 18 20 24 26 28 31 32 31 31 33 34
66 52 61 71 64 65 59 58 75 82 83 77 71 66 65 62 62 64 70 70 71 72 69 68 66 68 64 47 26 19 19 22 24 26 28 31 34 33 34 35 36 36 37
55 52 61 63 64 62 58 54 66 89 85 79 73 70 67 65 61 63 69 74 75 74 71 72 69 69 42 22 19 21 24 26 27 28 32 34 35 36 37 38 39 41 41
73 60 63 64 65 61 61 56 69 93 88 82 76 70 68 66 62 64 72 76 73 71 70 72 68 49 23 18 21 23 25 26 27 29 32 34 36 37 38 39 40 42 44
77 69 66 66 66 63 62 66 88 96 94 78 76 78 70 67 63 65 71 76 71 67 66 65 59 28 17 18 20 22 24 25 26 27 30 32 34 36 37 38 42 46 48
70 70 70 71 71 72 90 97 96 98 98 89 85 84 74 69 66 67 69 69 68 64 51 45 29 19 16 17 18 20 21 23 24 26 28 30 32 34 35 38 50 57 58
83 82 78 80 87 99 100 98 99 98 99 95 84 81 78 73 68 70 72 68 52 37 27 26 22 20 18 18 18 18 20 21 23 25 26 28 29 31 32 37 50 49 61
97 100 98 94 95 97 99 99 99 98 98 98 97 94 86 82 77 72 72 67 45 30 27 27 26 24 22 21 20 20 22 22 23 24 26 27 28 30 32 34 44 46 61
99 99 100 99 100 100 100 100 99 98 98 98 97 98 97 94 87 84 76 63 44 32 27 27 28 27 26 25 25 25 25 26 26 26 27 28 29 31 32 34 40 46 66

GFSMW_700_rhum_081.txt.gz
RH
78 71 67 74 68 68 69 60 49 46 43 42 43 43 43 43 41 39 35 34 32 30 32 32 31 31 31 32 33 36 36 37 34 33 39 35 38 37 19 20 22 28 31
86 76 76 76 75 70 66 62 58 57 54 52 47 41 36 31 28 30 27 26 26 26 24 23 24 26 26 26 29 29 32 27 24 21 26 26 26 33 26 24 26 23 25
83 81 73 69 74 74 74 69 60 49 48 42 41 41 39 36 34 31 28 27 28 27 27 27 26 24 22 22 23 25 24 20 20 21 23 37 39 47 40 26 19 20 26
80 85 79 72 63 61 60 56 48 47 46 45 41 38 36 34 31 30 29 29 29 28 26 22 18 16 15 14 15 16 17 18 18 21 22 26 29 30 26 26 24 35 46
65 74 85 74 68 57 58 55 52 49 48 48 47 44 40 35 31 31 32 31 28 26 23 20 18 14 12 12 13 14 16 18 22 23 22 21 20 22 25 30 49 57 48
55 58 71 82 76 67 58 54 53 51 50 50 49 46 41 37 36 35 32 29 27 25 22 19 15 12 12 12 14 16 18 20 21 22 22 23 28 34 56 59 43 45 47
59 91 76 73 73 67 59 56 54 52 51 50 48 42 39 36 34 31 29 27 24 20 17 14 13 13 14 16 18 19 20 20 20 20 23 28 38 37 67 42 37 37 39
67 100 82 77 70 64 61 58 57 54 50 44 42 40 40 39 32 30 26 22 21 18 16 15 15 17 18 19 19 19 18 18 20 24 30 34 29 19 18 34 39 34 35
60 83 94 75 67 64 60 53 48 48 48 45 47 50 49 48 40 34 28 21 19 18 17 18 19 20 20 19 18 18 20 22 25 31 33 26 16 16 17 18 21 25 24
44 57 86 87 63 58 54 52 51 53 55 57 56 54 50 46 37 31 27 23 21 20 21 22 21 20 19 18 19 20 24 28 32 33 26 20 22 21 17 18 19 19 30
36 40 45 47 76 81 84 66 55 55 57 59 58 54 51 42 35 31 28 25 24 23 22 22 22 22 22 23 24 30 34 35 32 24 22 25 27 27 21 18 18 36 38
36 37 40 42 44 68 68 75 71 52 55 58 57 52 43 39 33 29 28 26 25 24 23 24 27 30 33 34 35 34 33 26 22 24 29 29 24 20 16 27 40 38 44
44 44 42 37 37 39 40 47 56 54 52 59 52 46 39 37 35 32 30 28 29 30 32 36 39 40 40 38 32 24 23 24 28 30 33 30 21 33 43 43 41 36 44
34 44 42 42 39 41 49 66 69 66 62 54 44 40 39 36 35 37 40 43 44 43 42 41 43 44 41 31 25 27 32 33 34 38 43 42 45 46 43 18 11 11 10
37 47 50 47 48 53 58 61 56 50 46 45 44 42 43 48 50 51 50 48 46 46 45 44 48 42 31 29 36 38 38 43 45 47 49 50 47 27 13 13 15 17 19
44 52 56 57 52 52 54 55 54 53 52 48 48 52 60 62 59 56 52 48 47 48 50 46 41 34 37 44 43 45 50 51 54 55 53 32 17 14 15 19 22 24 27
66 68 65 63 62 60 61 61 60 57 56 61 68 74 72 69 65 59 54 52 53 52 52 46 40 48 53 52 53 55 59 60 58 40 19 14 16 21 24 27 29 30 29
62 69 67 69 64 70 68 62 56 56 60 70 76 76 72 68 62 57 59 63 66 63 57 48 51 62 59 62 61 64 63 40 21 15 17 22 25 28 31 31 32 33 34
62 59 64 71 66 71 71 61 60 56 61 75 82 79 73 67 63 62 62 61 66 72 67 66 68 66 66 68 67 53 26 18 18 22 25 27 30 33 33 34 35 36 37
44 59 69 65 55 70 64 62 63 57 53 64 84 81 75 70 67 66 65 63 65 73 75 75 75 73 73 72 44 22 18 21 24 26 28 30 33 34 36 35 35 36 38
58 61 57 61 66 67 64 68 62 61 56 65 91 86 79 73 69 66 62 61 67 75 79 76 77 77 74 41 22 19 22 24 26 27 28 30 32 35 35 36 36 36 40
49 76 64 66 71 66 67 68 65 62 63 81 98 91 77 78 77 70 62 66 74 77 76 74 77 77 51 23 18 20 23 24 26 26 27 28 31 32 33 34 34 35 41
62 72 80 75 72 70 71 71 68 72 85 95 100 97 86 85 88 83 65 67 73 74 72 74 75 65 42 19 17 19 21 22 23 23 24 26 27 29 30 31 32 34 40
82 80 79 77 75 74 74 72 66 73 98 100 99 97 87 80 81 81 81 70 71 70 69 63 64 53 25 17 16 17 18 19 20 21 22 24 26 27 28 30 31 34 36
90 85 90 88 85 84 83 89 99 100 100 99 98 98 97 94 93 84 79 81 88 74 51 36 27 25 21 19 18 18 18 19 20 21 22 24 25 26 28 29 31 34 35
96 98 98 99 96 95 99 100 100 100 100 100 99 99 98 98 97 95 95 88 80 75 59 41 28 27 27 26 24 23 23 22 22 24 24 25 26 28 29 30 31 33 36

GFSMW_700_rhum_084.txt.gz
RH
72 70 61 64 66 64 63 66 62 62 55 55 55 53 46 43 42 43 42 40 38 33 28 28 27 28 24 25 28 31 32 33 43 41 40 34 22 22 25 29 32 28 32
80 71 66 63 70 66 70 73 75 68 62 53 52 52 47 45 44 44 40 32 30 27 27 26 26 26 26 27 27 27 26 25 25 29 24 18 17 18 26 31 34 33 23
78 77 72 65 65 66 68 71 74 68 67 72 63 54 54 57 42 42 33 32 31 30 28 28 28 28 27 24 20 18 17 16 15 17 21 20 20 22 28 31 31 26 24
73 80 70 76 70 69 70 70 68 68 66 65 68 62 57 54 41 38 35 33 32 31 31 30 28 26 23 21 19 17 15 14 14 16 19 22 25 24 24 27 24 31 31
71 74 74 65 75 68 69 76 76 73 66 54 55 50 45 42 41 39 36 32 30 31 32 30 28 26 23 21 17 14 14 14 16 19 21 23 23 22 23 24 29 60 68
58 72 75 69 65 71 73 67 67 65 52 50 49 48 49 48 46 42 39 35 34 33 31 29 27 24 20 17 14 14 14 17 18 20 22 23 23 22 25 30 48 97 99
43 68 77 78 62 69 77 76 65 63 53 52 51 51 50 50 47 42 38 35 32 29 26 23 21 19 17 15 14 15 16 17 19 20 20 21 24 26 33 37 31 40 53
65 70 71 75 76 69 65 82 75 60 56 54 53 52 50 48 45 40 38 38 32 30 26 21 19 18 17 16 16 17 18 19 18 18 19 21 26 32 35 25 19 39 31
67 71 75 87 72 71 77 72 74 64 59 57 55 55 50 45 43 46 47 44 40 34 29 22 18 17 17 18 19 19 19 18 17 19 24 29 33 33 24 19 21 18 17
44 55 58 62 66 84 79 72 71 64 61 58 52 51 53 57 52 53 46 42 41 34 30 26 22 20 20 20 20 20 20 20 21 25 31 35 33 25 23 24 23 21 19
32 40 47 51 65 87 85 74 76 75 58 55 58 64 70 57 55 50 46 43 38 33 29 26 24 23 22 21 22 22 23 25 31 34 35 31 25 25 28 29 26 20 17
33 34 40 45 48 70 78 69 92 92 88 74 74 67 66 59 54 49 44 36 33 30 28 26 25 24 24 24 27 31 34 36 34 29 25 24 26 29 28 21 16 28 41
35 38 37 35 42 45 43 45 74 91 82 80 86 90 88 61 53 45 37 32 30 29 28 28 32 35 37 37 38 39 39 33 26 25 30 33 34 35 24 31 43 41 35
39 43 35 40 40 38 36 37 41 45 50 61 67 71 69 59 48 40 34 34 34 34 37 40 41 42 43 43 44 42 34 28 32 36 38 43 46 44 46 45 28 12 11
42 45 38 45 42 42 44 42 41 46 61 68 68 62 53 45 41 39 41 48 51 50 47 44 44 44 45 46 43 34 32 38 40 43 48 50 50 50 43 14 12 15 18
53 41 34 37 50 45 41 48 52 57 60 56 53 51 49 47 46 51 59 59 56 53 50 48 47 48 48 42 36 40 44 46 50 53 55 57 52 20 12 14 18 23 26
50 51 44 49 58 55 55 54 56 58 57 57 56 54 52 53 61 64 63 61 58 54 52 52 52 54 51 44 49 53 55 57 61 61 62 39 14 12 17 22 27 30 29
40 60 58 61 65 61 61 62 65 64 62 60 56 57 66 74 77 74 68 64 60 60 58 60 62 61 56 60 64 64 63 68 69 57 24 13 16 24 28 30 32 32 33
37 57 63 62 66 70 69 67 69 69 64 58 55 60 72 79 78 72 68 63 62 61 60 63 70 73 73 72 70 70 74 61 28 14 14 22 27 30 32 33 34 35 35
40 34 64 70 70 65 69 72 72 70 64 60 55 51 55 76 79 75 70 65 64 62 62 66 72 79 81 81 78 77 52 18 15 19 25 28 30 32 33 35 35 35 35
47 41 58 62 66 71 72 76 78 71 72 64 60 57 59 84 84 76 76 78 73 61 63 70 78 82 83 85 82 51 21 17 21 26 28 29 30 31 34 34 34 34 35
55 46 69 65 63 69 81 83 75 72 71 66 63 61 65 89 89 74 74 72 66 63 64 74 78 79 86 89 53 23 18 20 24 27 28 28 28 29 30 31 32 33 33
63 57 63 79 77 86 87 78 72 75 72 69 70 76 94 96 97 85 76 87 80 65 70 75 77 82 86 73 31 18 18 21 24 25 25 25 25 26 27 29 30 30 31
86 82 81 86 88 92 86 81 81 77 76 77 78 97 100 98 99 87 81 78 81 77 68 70 72 77 76 54 31 18 17 19 20 21 21 21 22 23 25 26 27 28 30
96 100 97 94 92 91 92 89 84 81 88 99 100 100 98 99 98 97 94 90 82 82 92 88 62 54 59 49 28 18 16 16 17 18 19 20 21 23 24 25 26 28 29
98 99 99 98 92 94 90 92 93 100 100 100 100 100 99 100 98 98 98 99 99 94 88 92 96 82 34 27 25 23 21 20 20 21 21 22 23 24 25 26 28 29 30

GFSMW_700_rhum_087.txt.gz
RH
65 68 64 61 58 60 52 52 55 62 55 55 58 59 66 66 57 45 46 38 35 34 33 31 29 26 25 25 25 25 25 25 24 22 19 16 19 20 22 20 18 21 26
46 58 68 68 57 56 58 62 63 61 61 64 60 67 67 65 64 63 61 48 46 37 31 28 26 26 26 26 27 26 25 22 20 18 17 14 13 14 18 19 21 21 22
59 50 59 65 63 65 65 64 65 65 70 76 67 61 66 67 61 60 58 54 41 34 33 31 29 28 28 27 27 25 23 21 19 17 15 14 13 14 18 25 21 25 28
68 59 54 56 63 68 71 65 64 71 78 78 65 82 88 76 73 74 85 79 64 53 35 31 30 30 29 28 27 26 24 21 17 14 14 16 19 20 18 24 23 24 24
58 64 58 52 53 65 63 72 64 67 76 82 80 75 77 77 68 62 62 50 41 38 34 32 32 32 31 29 27 25 22 18 14 14 14 17 20 22 23 22 23 31 36
40 50 68 75 64 55 64 69 66 63 80 75 76 73 68 59 49 48 49 46 43 40 36 34 32 31 29 27 24 20 18 16 15 16 17 18 20 21 22 22 26 34 65
45 40 60 72 75 69 60 65 68 64 68 82 76 59 52 51 51 50 49 48 45 40 36 33 29 27 25 22 21 19 17 16 17 18 19 20 19 20 21 23 28 35 45
42 40 45 64 71 73 72 71 67 72 72 73 73 54 54 54 52 52 50 48 43 41 42 39 36 31 28 20 18 17 17 18 18 19 18 18 19 20 24 29 34 37 28
41 48 56 63 57 72 78 77 70 72 82 88 72 56 57 58 57 56 52 45 48 50 48 44 40 37 32 28 24 22 20 19 19 20 19 20 20 23 29 33 34 24 23
38 52 61 57 62 61 68 84 84 84 78 95 91 72 70 80 62 54 51 60 68 69 66 46 41 38 34 30 26 23 21 20 20 21 22 25 27 31 34 33 26 26 28
31 41 50 49 60 64 81 94 98 85 91 96 95 92 96 80 83 75 71 69 66 56 46 43 37 33 29 25 23 22 22 23 25 28 31 34 34 34 30 26 27 31 30
32 33 35 37 45 52 57 75 99 85 70 69 80 84 91 74 69 66 67 68 66 52 43 37 30 27 25 24 24 25 27 32 35 37 37 34 28 25 25 28 31 26 19
38 36 36 38 38 43 48 51 73 95 87 75 88 91 98 94 88 90 94 88 80 70 50 35 32 31 30 32 30 34 35 38 40 40 34 27 27 30 32 34 28 25 42
38 37 39 42 36 38 41 45 46 47 46 55 81 95 89 90 96 77 72 69 54 47 45 36 38 40 44 44 43 42 40 41 41 36 30 31 36 38 43 41 42 46 28
49 41 35 45 44 42 41 38 38 41 45 46 54 68 82 82 79 74 60 50 46 44 45 48 51 51 49 47 47 45 44 42 36 34 40 42 45 48 48 50 39 11 13
64 54 45 41 38 40 39 45 42 50 56 67 77 80 80 72 61 54 53 50 49 53 55 55 54 52 50 50 52 50 44 40 42 46 48 50 53 56 54 24 12 15 20
54 57 52 41 37 34 42 55 51 54 59 63 63 61 60 57 55 53 56 66 66 65 62 58 54 53 55 57 58 54 47 50 55 58 61 60 60 40 14 12 18 25 29
34 32 32 34 45 46 58 61 60 60 62 62 63 63 61 56 55 64 72 74 71 66 62 57 56 58 60 64 64 59 60 63 63 68 72 64 26 12 14 24 30 34 33
43 39 34 39 53 68 71 73 72 69 71 72 70 66 59 58 62 72 77 77 72 68 65 64 63 62 62 68 75 76 72 72 72 75 50 15 13 21 28 32 34 35 36
42 38 46 42 57 64 71 74 77 79 78 79 74 68 62 58 54 57 75 79 76 73 70 68 60 61 69 80 84 87 83 82 64 27 11 16 27 32 34 36 36 36 36
44 40 43 44 50 76 63 64 74 82 87 84 74 74 67 63 61 62 81 84 74 73 70 66 65 66 77 87 90 93 88 54 18 14 22 29 32 34 35 36 36 36 36
60 53 53 47 56 64 69 79 85 89 89 81 80 76 68 67 71 74 81 93 85 82 82 70 65 75 83 85 92 95 59 23 16 20 26 30 32 32 33 33 34 34 33
74 68 62 64 80 82 90 94 94 94 88 76 78 76 73 76 72 62 72 98 86 76 85 73 68 74 82 90 97 74 30 20 19 22 25 27 28 28 28 28 29 29 30
88 89 83 78 88 92 99 99 98 93 81 80 80 77 82 80 95 96 93 100 90 88 80 82 72 68 75 89 90 44 21 17 18 20 23 24 24 24 24 24 25 26 26
86 91 97 98 98 98 98 99 98 95 91 89 90 94 93 100 100 100 100 100 97 94 90 84 90 84 70 75 74 58 35 20 16 17 18 18 18 19 20 21 22 24 25
88 96 95 90 90 96 97 98 92 92 94 99 99 100 99 99 99 98 100 99 98 97 97 96 94 96 95 72 43 32 26 21 18 17 17 17 18 19 20 21 23 24 26

GFSMW_700_rhum_090.txt.gz
RH
49 54 57 56 52 55 66 66 66 61 54 58 58 66 58 55 64 61 50 43 40 43 38 36 35 32 27 25 24 24 24 24 24 23 21 20 19 17 15 14 17 18 19
48 46 56 55 52 49 53 60 62 60 62 67 65 59 56 61 74 82 68 48 46 43 41 39 33 30 28 27 26 26 26 25 24 24 23 21 18 15 13 13 17 23 21
51 50 51 57 62 60 56 57 61 61 62 62 62 54 58 65 78 71 66 70 67 68 62 42 39 36 31 29 28 27 27 26 26 26 24 20 17 14 13 14 16 18 19
65 56 54 56 69 66 61 59 64 66 65 66 63 66 67 66 73 84 90 81 78 64 67 58 64 37 32 30 28 28 29 28 26 24 20 18 16 17 14 15 19 23 23
56 52 50 49 51 55 67 66 61 63 70 74 76 74 81 79 75 78 84 93 91 87 80 47 38 36 33 31 31 30 29 27 25 21 18 16 17 20 22 21 22 25 27
36 47 50 52 61 64 63 64 71 64 66 69 72 74 82 83 82 82 83 81 65 56 45 45 42 38 35 32 29 27 25 23 22 20 19 18 18 19 22 23 26 28 26
29 34 39 46 49 63 70 71 63 68 75 73 76 80 81 82 85 84 72 60 55 52 51 56 42 39 39 37 34 31 27 21 18 17 18 20 20 21 21 22 24 29 42
38 31 30 32 34 45 69 76 72 67 69 77 83 80 93 100 92 94 75 64 59 56 53 51 47 47 45 42 42 38 34 31 27 24 21 20 20 20 21 23 26 29 35
24 26 31 40 43 64 76 76 75 72 70 70 70 85 92 99 88 78 62 62 59 55 50 53 54 59 63 60 48 45 37 33 30 26 22 20 20 21 23 26 30 36 39
24 24 31 49 60 60 68 72 75 75 75 77 79 85 95 98 96 89 90 77 62 54 57 61 67 61 50 45 42 38 33 30 25 22 21 21 22 25 26 33 36 38 34
30 31 33 49 64 68 70 64 69 73 85 93 89 86 96 96 99 97 94 95 90 88 93 74 66 53 45 42 36 31 26 25 25 25 24 26 30 34 36 35 33 31 29
37 34 31 35 42 53 53 51 60 74 88 99 80 80 86 95 98 99 93 98 97 86 72 69 77 63 51 46 31 31 30 31 32 32 35 34 36 37 35 29 27 28 31
40 40 36 35 36 36 40 47 54 67 82 100 95 88 88 95 95 87 99 96 97 88 85 91 85 88 71 52 36 39 38 39 40 37 40 41 41 37 30 30 34 37 34
46 41 37 36 37 40 38 39 42 48 57 82 100 96 95 94 95 99 92 100 97 73 73 68 55 48 43 39 44 47 46 45 44 44 42 42 37 34 37 40 41 42 36
55 50 48 45 42 43 45 41 42 43 45 48 59 76 72 87 100 100 100 91 76 75 62 54 54 48 50 52 52 50 48 47 48 47 43 38 36 42 45 49 50 49 51
62 60 60 56 52 49 43 41 37 43 45 47 49 55 59 68 74 79 79 75 63 56 53 59 59 60 58 58 56 53 52 50 52 48 42 41 49 53 55 54 57 42 12
69 60 54 50 46 42 43 40 44 51 47 48 54 63 73 77 78 69 62 61 62 68 71 71 68 65 62 60 57 57 58 58 56 51 51 53 58 62 62 58 25 11 16
45 45 39 33 29 31 38 45 56 61 56 55 61 65 66 67 69 66 61 66 74 80 79 74 71 67 64 61 62 60 62 64 62 63 66 70 68 70 41 13 12 23 31
39 38 37 36 34 34 38 62 72 71 68 65 67 68 71 70 67 62 63 67 68 71 75 75 72 67 63 59 59 60 66 76 74 74 77 81 72 32 11 17 30 35 36
42 37 36 36 36 40 42 69 78 84 83 79 80 81 78 73 66 62 60 58 59 73 80 76 74 73 69 70 62 68 76 83 84 83 75 47 13 13 24 34 37 38 38
50 48 39 32 34 40 46 55 78 81 86 91 94 89 85 78 74 69 64 63 62 71 89 81 79 76 67 64 70 79 83 88 88 63 19 12 18 28 36 39 38 39 39
56 56 54 43 42 50 49 58 76 80 97 93 96 98 96 87 81 74 69 69 72 77 91 91 79 84 73 71 80 84 89 92 68 31 34 22 29 35 36 37 39 39 38
69 64 68 60 55 60 71 75 75 98 100 99 99 98 97 94 84 76 74 78 68 71 97 92 80 80 72 68 78 86 94 79 26 44 49 72 63 41 33 34 34 34 33
83 82 84 82 72 71 83 85 98 100 99 98 98 97 97 93 85 87 87 89 91 95 99 100 91 82 80 69 73 86 92 56 35 68 27 22 26 26 27 27 27 26 26
95 93 92 89 94 89 92 94 96 98 98 98 96 98 95 92 93 93 87 99 100 100 100 99 94 86 89 86 75 77 74 40 23 20 18 30 26 21 21 21 21 21 21
98 96 94 96 98 100 100 95 92 98 98 98 98 98 97 100 97 97 97 99 97 98 99 100 99 96 95 94 95 80 75 62 46 27 16 16 16 16 16 17 18 19 20

GFSMW_700_rhum_093.txt.gz
RH
46 67 63 65 70 72 76 85 87 75 82 74 74 72 65 69 65 53 58 56 51 49 42 40 41 35 36 33 28 26 26 25 25 23 23 23 24 23 21 17 15 15 17
47 50 57 56 62 58 73 81 83 70 79 79 74 72 69 68 61 58 58 58 64 52 44 48 43 42 37 31 30 30 28 26 26 26 26 23 24 23 20 17 15 16 16
58 46 43 52 56 53 56 61 69 75 71 74 81 76 74 66 71 58 62 64 75 70 62 64 66 58 48 53 37 31 29 28 28 29 29 27 24 22 20 18 16 17 17
70 70 66 64 60 63 67 64 65 70 77 76 80 72 70 66 62 70 77 74 69 88 91 93 94 80 78 66 35 32 32 31 30 29 27 26 24 21 20 18 17 18 21
56 58 58 66 63 62 69 71 69 73 73 73 80 78 76 74 70 78 85 79 76 75 84 70 85 89 82 55 37 35 32 30 28 27 24 22 21 20 21 19 20 21 21
52 53 57 64 62 60 56 54 60 66 71 75 73 74 81 86 84 81 86 88 92 91 93 90 90 78 52 44 40 36 34 34 33 32 28 22 21 20 20 20 22 23 21
46 54 56 49 53 57 64 62 56 54 62 70 74 79 85 88 92 98 99 99 100 100 96 81 76 72 68 63 68 48 44 46 55 52 37 33 30 25 22 21 22 25 26
36 40 34 33 41 41 47 60 54 58 68 69 70 77 81 84 90 99 96 99 98 98 98 97 80 56 57 53 50 51 58 55 47 43 39 35 31 27 24 24 24 26 27
39 40 39 37 38 39 40 41 46 70 76 77 76 74 76 74 82 90 81 100 99 98 91 72 60 56 56 60 66 58 54 49 46 41 35 31 27 24 24 24 28 33 35
38 34 28 28 34 40 42 46 65 79 80 78 75 76 77 77 79 83 93 96 88 94 94 69 66 62 71 65 64 57 51 45 43 36 30 27 25 26 27 29 34 39 41
31 30 29 28 32 45 57 61 61 66 69 72 78 81 84 88 81 87 88 91 91 98 97 91 85 76 76 82 85 83 51 47 36 31 31 31 32 34 34 36 39 40 39
38 34 30 28 27 32 46 56 56 58 62 80 91 96 92 78 85 98 96 97 89 88 100 97 97 98 98 80 82 77 66 56 40 36 38 39 39 40 41 42 42 39 34
40 37 35 32 31 32 32 37 46 51 55 66 76 85 95 96 92 91 85 84 77 86 95 92 98 82 87 78 74 62 62 46 42 43 43 42 43 44 45 44 40 35 36
48 46 41 37 36 36 38 38 40 43 46 51 54 76 97 100 96 98 86 92 84 97 100 100 89 75 71 56 47 46 52 55 54 48 47 45 46 46 44 41 38 41 45
61 55 49 46 44 45 46 46 44 43 44 46 48 54 74 87 100 100 99 97 98 100 99 88 75 63 52 50 51 58 59 56 52 50 50 51 50 46 42 43 47 50 53
52 51 49 50 49 53 52 50 48 43 40 38 44 47 49 54 67 77 97 99 100 89 80 69 55 53 54 55 61 66 60 57 54 54 54 54 52 49 52 56 58 59 58
53 57 52 48 45 46 47 42 39 40 37 34 38 47 48 51 59 71 81 84 79 65 59 57 57 65 69 70 69 64 59 57 57 58 59 58 56 59 65 67 65 66 42
62 60 54 44 39 38 33 33 33 32 36 41 45 53 54 64 73 79 76 65 63 60 58 68 75 76 74 70 68 64 61 59 60 62 65 66 69 74 77 72 51 21 11
44 43 42 40 35 35 35 34 35 34 43 52 61 63 66 73 71 65 66 66 61 61 63 63 65 74 75 72 71 70 70 63 64 71 76 78 79 84 74 34 11 14 27
53 50 46 42 37 34 33 35 39 41 55 70 71 75 75 72 71 73 74 68 65 61 58 54 55 74 76 71 69 64 64 69 72 83 87 85 83 66 18 13 26 34 37
62 57 51 46 45 41 32 31 37 43 73 84 84 84 83 81 82 84 78 75 68 64 60 56 57 67 82 77 75 77 67 75 85 92 92 72 36 14 24 42 54 48 40
71 64 55 52 49 52 43 36 39 53 80 95 98 92 91 92 93 93 87 81 75 69 67 63 60 62 81 76 76 69 72 83 90 95 75 22 20 36 36 40 42 43 45
85 71 66 64 58 62 57 55 54 55 89 100 100 100 96 97 95 95 95 88 86 79 74 69 64 64 87 83 79 71 72 86 94 86 34 30 40 37 38 44 42 42 42
92 88 81 78 72 74 72 77 72 76 84 94 99 100 100 100 99 97 94 94 89 89 83 96 100 96 98 90 82 76 74 90 94 55 28 56 58 64 65 47 34 32 31
96 95 100 88 91 81 86 83 90 99 96 98 99 99 99 100 98 96 95 97 93 93 88 96 98 99 99 92 85 86 80 86 83 54 41 59 28 29 40 42 32 26 26
98 97 98 96 93 100 100 100 96 100 100 99 97 99 98 97 98 99 99 98 89 92 98 98 94 95 98 96 96 95 94 84 74 48 25 19 18 18 22 22 19 18 18

GFSMW_700_rhum_096.txt.gz
RH
64 74 73 75 83 93 90 87 90 91 71 61 76 67 80 72 63 51 60 58 58 53 50 48 46 42 45 42 41 40 31 29 29 28 27 27 27 27 26 24 21 19 16
52 57 64 76 80 92 83 84 84 86 74 66 62 63 65 69 69 59 63 58 58 62 54 51 53 44 48 50 46 34 34 32 31 30 29 30 29 28 26 24 22 20 19
44 43 52 67 76 82 73 61 74 95 89 81 83 84 87 88 81 76 61 65 69 74 65 64 62 56 59 60 59 67 40 34 33 32 31 32 33 26 24 22 21 20 19
50 48 51 56 68 70 78 76 72 76 74 90 88 87 99 97 82 88 93 89 85 82 88 94 90 95 83 81 74 78 58 38 36 33 31 30 31 26 22 20 19 18 18
55 48 51 60 71 80 77 75 75 78 78 78 84 90 86 88 91 96 90 96 93 94 90 91 100 100 98 98 99 94 72 41 37 35 34 36 44 35 29 28 26 24 22
61 53 53 59 62 67 73 78 80 77 76 77 80 80 85 90 90 88 87 95 97 100 99 100 100 99 100 100 87 52 46 57 55 43 41 56 53 47 37 33 30 27 25
63 50 47 54 58 54 55 57 59 62 59 68 74 76 81 83 85 88 94 93 97 97 100 100 100 100 98 96 69 72 67 74 76 72 54 52 48 43 37 34 31 28 26
55 53 51 51 55 55 51 53 54 61 65 60 60 64 70 75 78 85 90 92 98 95 100 100 98 99 98 100 88 61 67 58 60 58 52 50 49 43 35 30 27 26 26
50 50 51 48 38 31 32 41 43 60 72 71 66 68 67 67 67 73 78 82 96 98 100 98 98 98 97 97 71 59 61 67 62 56 52 49 45 37 33 30 29 29 28
45 44 43 36 38 39 40 43 36 35 50 47 69 79 78 76 74 72 69 73 85 86 81 80 88 93 85 91 72 66 69 67 70 67 76 49 42 33 30 32 35 37 38
35 32 32 32 32 32 38 48 50 47 54 67 77 77 75 76 76 73 73 85 87 90 99 99 96 100 96 86 68 69 89 77 84 79 78 65 45 38 39 39 40 43 43
36 35 33 31 30 32 45 64 68 69 74 75 70 67 70 76 82 82 83 80 85 85 93 80 88 98 100 99 96 97 98 89 87 83 75 65 44 45 45 46 46 45 46
38 38 39 38 36 36 37 38 46 59 66 65 65 70 79 83 88 90 82 85 92 86 90 88 94 94 100 100 92 88 74 62 51 47 47 45 49 49 48 47 47 48 45
41 39 38 38 39 37 36 34 36 37 39 40 44 50 56 64 86 80 87 85 92 72 92 91 86 96 98 91 79 71 56 49 48 48 53 51 52 52 51 51 49 46 44
47 45 43 42 42 41 42 40 38 34 35 36 38 38 41 48 55 73 75 81 88 89 96 86 84 83 81 75 61 56 55 54 54 56 58 55 52 54 54 52 49 46 48
55 53 49 47 46 45 44 43 42 42 42 37 35 34 36 40 47 51 59 78 93 96 93 96 97 82 64 55 55 56 60 64 64 62 59 57 57 57 56 55 52 52 56
49 49 47 44 42 44 44 43 43 42 41 40 36 33 32 37 45 49 54 63 80 88 97 87 73 59 56 57 65 70 71 67 65 62 60 58 59 61 60 58 60 64 64
58 58 56 53 50 51 51 45 41 39 33 29 30 35 36 38 42 49 54 60 74 85 83 65 60 59 66 64 59 62 68 67 66 67 63 60 62 66 68 68 71 71 60
64 62 58 52 46 40 36 31 31 33 33 34 32 33 40 45 50 57 67 77 82 75 67 62 58 55 52 49 48 59 67 68 66 62 70 67 72 76 75 76 76 46 17
72 70 64 61 55 50 44 39 34 33 34 42 41 49 61 67 72 81 83 78 71 71 67 60 58 56 53 50 51 74 76 72 72 67 67 76 83 83 82 74 34 14 21
87 83 79 76 73 63 55 48 46 38 41 45 57 74 78 81 84 80 74 74 76 75 68 64 64 62 60 59 56 67 77 73 70 68 75 85 89 79 52 20 21 36 43
78 84 83 84 81 73 66 61 52 53 45 52 81 92 87 85 83 80 78 78 82 80 75 74 70 68 66 62 58 63 74 74 70 72 83 91 82 34 18 42 60 65 73
14 25 57 88 86 82 73 69 67 58 55 62 93 100 99 98 96 94 89 88 92 89 86 82 77 73 68 64 61 66 81 79 71 72 85 87 38 25 52 44 41 45 45
53 51 59 71 85 93 85 78 79 69 66 71 94 99 99 100 99 96 94 98 97 98 93 84 81 79 73 68 72 85 86 81 76 74 86 75 28 32 42 43 46 45 41
57 63 63 59 71 87 91 91 91 84 90 85 97 99 99 98 84 100 100 100 99 97 92 86 88 90 87 94 93 95 93 88 82 76 85 51 32 66 66 62 53 42 36
71 75 84 70 76 100 92 98 100 100 100 99 98 98 98 96 99 99 99 99 98 96 95 94 91 86 94 89 93 98 96 95 89 86 86 44 31 50 38 26 54 80 70

GFSMW_700_rhum_099.txt.gz
RH
74 97 100 98 100 98 97 96 98 92 78 75 66 66 74 73 83 66 65 57 61 67 67 67 54 50 48 49 46 44 42 40 30 30 30 29 31 31 30 27 25 24 22
75 83 71 96 98 96 99 97 97 100 89 71 66 83 89 83 81 70 76 63 69 64 71 77 76 68 58 50 49 51 49 36 34 35 31 31 32 33 34 30 23 21 20
69 70 67 71 83 82 86 98 81 99 87 85 74 79 95 95 93 94 86 83 86 90 86 82 78 74 67 62 59 60 56 57 43 38 37 33 33 36 42 43 35 26 23
62 62 64 67 77 87 85 80 85 95 99 96 95 88 90 86 85 90 87 80 84 86 82 86 97 94 92 91 89 95 70 74 75 45 39 36 35 34 50 49 47 42 35
54 52 53 56 58 67 69 86 88 92 99 81 89 89 80 83 86 83 86 83 78 74 87 97 100 96 100 100 99 99 99 98 89 54 60 47 42 42 54 50 49 43 38
64 57 53 52 52 69 80 75 86 87 85 84 88 88 93 91 95 98 96 86 91 98 93 92 92 100 99 98 100 100 100 84 95 93 71 75 69 64 53 51 50 44 37
71 64 61 63 70 71 79 82 85 84 80 78 75 75 82 83 88 90 92 96 93 97 94 94 93 100 99 99 100 98 90 79 75 64 70 75 72 59 50 49 47 40 34
72 69 67 66 60 60 63 65 70 71 70 68 66 65 78 78 79 81 84 90 90 88 88 93 99 99 98 100 98 97 93 94 84 71 68 70 60 54 53 59 47 37 33
54 53 54 52 50 51 52 55 55 53 53 57 59 63 62 66 67 67 69 77 78 79 83 91 100 100 96 88 77 82 84 90 94 86 84 64 60 64 66 59 47 39 34
52 52 48 49 45 44 41 35 35 32 42 49 62 70 70 61 64 66 65 68 68 68 71 84 86 79 73 67 66 83 86 98 96 87 76 72 72 73 74 76 62 39 40
41 36 37 36 30 28 28 28 33 38 43 39 47 67 60 61 77 78 77 76 74 71 71 77 74 70 74 80 95 97 93 84 79 76 76 85 89 78 79 74 46 44 46
39 36 34 33 32 29 29 35 46 55 53 52 60 72 78 78 79 76 71 65 66 74 75 64 71 78 80 95 100 100 100 95 96 87 86 78 63 50 52 55 47 49 48
45 43 41 40 39 37 35 35 40 56 66 66 64 65 66 60 58 66 76 81 76 76 81 84 77 86 82 88 92 96 98 86 82 71 60 49 48 52 54 53 48 50 48
45 46 46 44 41 42 42 38 37 36 36 38 45 52 53 54 56 65 67 65 73 82 85 85 80 78 80 84 83 78 80 75 66 53 48 48 52 55 53 51 49 49 50
51 51 50 50 50 49 48 46 46 46 42 39 38 39 40 41 44 49 49 57 69 76 82 89 75 84 74 83 73 69 66 55 49 48 49 51 55 56 53 52 51 52 51
46 47 48 52 56 57 58 58 54 51 46 44 41 40 37 36 36 37 40 47 61 74 80 82 85 66 61 73 74 61 53 50 47 55 61 60 58 55 53 52 54 55 55
39 43 48 50 52 54 55 56 60 59 56 54 55 48 43 40 39 39 38 42 48 60 68 78 84 77 80 76 59 51 48 53 54 54 54 57 58 58 55 55 60 61 60
50 50 51 53 55 54 50 46 48 53 54 48 52 54 43 36 43 44 46 50 59 64 66 80 95 90 78 62 53 49 46 44 46 53 60 62 61 66 63 63 68 69 71
59 60 59 57 56 57 56 52 48 43 40 42 47 47 42 37 35 41 50 56 60 59 63 81 87 80 65 57 52 48 45 44 51 61 67 66 63 63 68 72 76 76 71
42 44 49 55 56 59 58 51 51 49 46 48 44 47 49 46 39 48 56 66 66 68 74 88 80 69 62 57 54 50 47 45 48 68 68 67 68 68 76 80 79 76 46
7 6 7 9 17 32 53 52 50 47 52 46 46 41 44 49 51 68 76 75 74 80 85 80 72 68 64 60 57 53 49 50 53 70 70 67 70 78 84 80 65 38 22
14 25 16 8 14 27 42 41 56 61 54 49 49 49 47 57 65 80 83 83 84 83 79 80 79 74 69 66 62 60 58 58 58 73 72 69 76 84 79 48 22 28 44
30 40 46 30 22 40 51 61 69 71 62 52 53 56 54 64 83 84 90 92 86 86 88 91 89 82 77 73 71 68 65 62 70 80 75 73 81 85 42 22 39 52 69
48 56 63 62 51 57 61 51 99 84 68 56 57 61 68 93 96 95 98 99 98 96 97 98 98 92 85 81 81 75 72 76 91 85 78 77 85 73 33 54 60 44 43
61 77 81 85 67 59 64 54 89 97 83 64 66 71 75 96 97 94 99 99 100 99 99 98 98 96 88 86 82 78 86 96 97 87 87 93 89 53 25 38 43 47 52
70 86 94 97 95 93 80 63 83 100 100 79 87 92 89 92 94 97 96 94 96 99 97 90 99 98 93 85 80 81 91 95 96 95 97 95 83 40 34 66 68 60 45

GFSMW_700_rhum_102.txt.gz
RH
100 99 92 99 99 99 100 91 100 97 94 75 63 64 48 42 43 47 51 49 46 46 62 50 50 47 51 55 55 54 50 47 42 44 35 30 31 31 33 33 31 26 22
98 98 99 99 100 99 100 99 98 97 77 93 72 65 71 60 64 65 69 82 82 88 84 78 74 72 80 72 64 60 56 52 50 48 35 35 35 33 33 36 43 42 36
96 100 100 94 99 100 100 100 99 100 96 98 83 72 74 70 66 77 83 79 86 87 98 94 89 84 79 79 75 72 74 68 65 44 40 38 37 35 34 36 49 49 48
98 100 100 96 83 81 95 99 93 99 97 85 95 85 79 74 82 86 84 76 80 86 97 98 100 96 99 96 88 86 82 82 79 88 71 45 41 41 40 38 47 49 49
96 98 100 100 100 98 91 90 81 74 82 100 100 100 97 98 95 91 92 89 90 93 88 86 97 98 99 99 100 100 99 97 91 97 96 91 61 61 61 57 56 55 49
97 94 90 84 83 91 96 76 89 77 92 98 83 87 86 80 99 94 90 92 89 88 85 86 83 88 87 97 98 99 100 100 99 98 97 99 84 76 76 74 66 54 51
99 83 84 88 81 91 96 91 85 86 90 94 99 98 99 98 99 99 96 91 99 97 91 96 96 91 94 96 100 97 93 94 92 97 91 94 98 94 84 80 72 54 54
76 70 71 78 80 80 82 86 89 92 92 89 86 84 85 83 91 86 91 92 93 92 93 90 94 96 99 96 97 97 92 82 85 76 70 90 72 72 79 79 60 61 63
63 78 78 76 79 76 70 69 70 72 77 78 75 73 75 71 71 73 75 77 78 82 83 83 84 96 99 99 93 82 71 66 77 81 88 99 100 95 91 70 64 67 69
62 71 70 65 56 50 50 51 52 53 56 59 56 56 59 63 63 64 66 67 67 68 71 71 75 78 87 87 75 74 72 78 94 98 100 100 97 94 82 74 82 84 73
52 48 46 44 40 39 33 35 37 36 38 40 39 46 60 72 73 74 69 58 68 74 72 74 75 76 82 78 73 68 77 96 96 94 90 88 85 82 79 80 71 63 60
38 39 35 32 32 32 30 29 28 28 32 43 47 47 47 60 72 72 66 71 74 76 74 73 75 81 74 68 67 68 77 87 94 96 95 92 84 80 74 56 48 44 45
44 40 38 36 35 33 33 34 35 41 50 55 56 55 56 70 76 79 81 79 75 66 66 74 80 78 78 72 68 77 85 81 77 85 79 69 66 56 47 44 44 48 46
49 49 48 44 42 40 39 37 36 36 35 39 48 60 63 67 68 65 59 55 63 71 76 77 77 82 86 84 79 78 80 80 72 76 68 60 51 45 44 46 48 48 48
50 49 48 49 48 46 46 47 47 45 44 43 40 37 37 37 38 41 47 50 53 60 69 72 81 83 88 82 82 75 77 67 65 60 51 47 46 45 47 51 53 52 52
45 46 48 47 47 48 50 49 48 51 49 48 49 48 45 43 41 41 40 40 48 51 65 76 80 79 80 83 82 70 63 64 51 47 44 45 48 51 51 50 48 51 50
44 46 50 50 53 57 54 48 52 54 53 55 57 54 52 52 51 52 47 42 40 43 48 73 75 77 74 68 68 64 63 55 50 46 49 47 41 42 45 49 55 57 52
41 40 42 43 50 56 59 54 47 44 46 49 54 61 60 59 60 55 50 48 48 47 48 60 71 61 56 64 70 69 59 53 50 47 42 40 42 48 56 57 56 58 61
24 18 16 13 13 16 28 46 52 54 52 49 46 46 50 50 52 59 53 45 52 56 55 55 64 63 68 76 77 69 57 53 48 44 40 41 52 60 61 60 60 65 69
6 6 5 5 5 5 5 5 8 36 56 57 53 50 49 45 45 48 54 57 54 57 67 67 67 68 74 80 79 65 59 54 50 46 46 45 59 64 64 64 65 74 76
6 8 11 14 23 30 18 10 8 10 38 71 68 58 51 49 39 47 58 61 66 66 70 75 72 75 88 85 69 64 62 59 55 52 50 49 66 68 67 68 73 77 70
5 6 10 21 32 42 46 37 30 17 27 66 77 76 63 54 53 38 50 58 66 83 81 83 88 98 93 80 74 69 67 65 60 58 58 57 68 72 69 75 79 67 44
5 6 14 29 37 46 64 68 57 40 37 40 91 93 76 66 58 58 49 61 76 88 93 98 100 98 92 87 80 77 75 70 68 65 61 62 74 75 71 78 69 29 33
8 14 28 39 48 60 73 83 74 54 60 47 58 98 88 76 68 68 64 74 87 98 99 99 98 98 98 94 90 87 82 77 75 69 63 73 82 77 77 77 38 30 45
14 23 35 50 60 79 84 86 87 77 67 59 58 98 94 84 76 78 80 84 97 99 99 98 98 99 98 100 98 94 88 84 77 72 85 94 85 84 83 72 38 52 57
23 33 47 56 70 87 92 87 97 97 78 73 71 99 99 90 93 90 97 93 100 99 99 98 98 97 96 98 97 95 92 85 78 76 93 97 92 96 94 70 31 41 47

GFSMW_700_rhum_105.txt.gz
RH
87 93 84 99 98 98 100 100 97 91 64 63 51 41 40 40 43 46 48 49 50 49 49 46 44 45 47 48 52 53 53 54 54 51 47 46 42 33 32 32 34 36 35
85 95 87 99 100 99 100 100 98 94 86 87 77 66 59 45 43 45 47 48 48 48 47 50 70 79 78 77 77 74 63 59 65 60 67 68 47 34 34 34 34 42 48
78 94 96 100 97 99 100 98 99 100 99 87 79 72 68 77 76 51 50 52 60 54 55 69 79 77 86 95 90 87 82 81 81 86 79 59 49 40 36 36 36 38 50
81 98 98 100 100 98 100 100 99 98 99 96 99 95 90 78 81 79 79 74 85 82 80 82 84 88 100 99 96 100 92 93 96 96 94 89 79 49 45 40 39 46 48
98 96 98 100 99 95 100 98 100 99 100 96 98 99 100 96 85 88 83 84 85 92 82 84 86 87 92 98 97 99 100 100 99 99 94 92 97 98 62 67 54 52 65
97 96 90 89 97 84 97 100 96 98 92 97 96 83 98 89 89 91 87 88 96 89 84 88 89 96 96 97 98 98 97 86 99 96 73 88 100 98 98 92 74 70 64
100 99 86 87 88 84 91 91 87 90 99 97 98 88 86 89 98 94 83 89 87 84 90 86 92 97 95 100 98 98 92 89 81 94 90 92 91 90 100 98 94 80 86
88 97 97 95 92 92 92 93 90 91 85 88 92 100 100 100 100 99 100 90 95 98 91 100 100 100 100 96 98 96 86 88 80 90 72 77 81 98 99 78 86 85 78
95 90 96 86 88 87 84 82 81 81 81 84 82 85 84 83 82 81 92 91 86 88 90 89 93 94 94 90 90 88 87 89 83 79 72 80 92 100 96 89 96 91 89
84 89 93 87 77 74 73 71 68 64 64 62 63 65 69 68 64 66 69 72 75 74 72 75 73 75 74 78 84 90 89 82 73 73 79 90 100 99 99 100 99 93 84
77 77 73 63 57 51 49 48 51 54 55 52 51 55 59 58 62 69 69 70 70 71 70 67 70 72 71 71 76 83 76 65 63 70 82 84 86 96 92 85 82 77 75
50 48 46 43 40 37 35 33 30 29 34 40 46 51 50 51 52 56 67 76 74 76 71 73 78 78 76 79 82 78 67 65 70 72 73 78 86 88 84 72 68 62 52
44 43 44 43 40 38 36 33 31 33 39 41 44 54 60 58 58 58 65 73 75 74 73 80 80 75 80 93 85 75 69 67 76 78 77 79 79 80 71 63 53 46 42
44 43 45 43 42 42 42 41 40 37 36 39 54 66 71 74 72 72 74 78 80 79 74 68 68 75 95 94 85 82 79 78 80 81 74 65 70 67 59 50 45 44 45
43 43 43 43 43 42 40 40 39 39 41 43 42 41 40 42 52 68 72 68 66 62 63 75 78 86 90 90 85 89 88 79 85 78 70 68 58 48 43 42 45 47 47
41 40 40 40 40 40 40 41 42 43 41 38 38 42 44 46 46 42 42 43 46 56 65 69 76 85 85 86 90 89 91 82 86 66 65 54 45 39 41 47 52 50 51
44 45 42 39 36 31 30 25 25 27 32 39 46 50 48 48 48 50 50 48 46 44 44 56 66 78 83 90 93 92 92 84 69 68 57 47 40 41 41 42 45 50 54
23 15 10 7 7 6 6 6 7 7 7 11 21 33 43 50 54 53 50 51 52 52 50 47 55 70 77 96 93 100 86 86 73 66 51 44 43 40 38 42 50 58 60
7 6 5 5 4 4 5 5 4 4 4 6 9 18 33 38 41 46 57 60 60 59 56 56 58 63 73 86 93 93 87 89 78 62 49 46 44 41 40 43 53 62 62
7 6 6 4 4 5 8 13 21 23 14 6 8 40 66 54 49 49 44 50 57 55 65 58 55 66 79 94 94 99 98 90 80 57 52 50 46 43 43 45 59 62 62
7 7 5 4 4 6 11 20 34 44 50 46 22 12 12 60 86 75 58 49 50 55 52 54 49 57 70 86 89 98 97 95 70 60 55 54 50 49 47 52 65 67 69
8 6 5 5 5 6 14 26 39 48 57 64 59 49 33 20 44 93 92 65 54 59 65 59 56 52 56 66 89 100 100 90 73 64 61 60 56 54 54 59 70 69 72
8 6 6 9 9 12 22 31 47 56 58 64 63 64 59 37 25 64 93 90 69 59 63 64 56 58 67 74 98 100 99 84 73 69 69 67 64 58 60 68 76 72 75
7 6 7 9 11 18 36 47 56 61 73 73 71 76 74 48 42 56 87 90 81 71 68 55 72 61 77 88 99 100 95 84 76 78 78 73 66 59 64 77 78 76 70
7 8 9 10 16 25 44 55 75 84 84 85 91 95 76 62 56 82 88 90 90 80 67 71 92 87 77 82 100 98 96 92 90 88 85 79 69 69 85 87 81 77 53
9 10 11 10 16 25 46 54 81 94 90 93 96 96 80 76 69 91 98 90 96 80 87 81 100 100 95 99 98 97 96 95 94 94 92 81 73 80 94 88 86 76 76

GFSMW_700_rhum_108.txt.gz
RH
42 69 80 92 91 95 98 98 97 97 98 86 46 46 48 51 46 34 40 46 48 49 50 49 49 49 48 45 47 48 50 50 57 54 55 55 54 49 42 35 32 32 34
48 50 76 86 94 93 99 100 99 92 99 92 65 50 40 43 40 39 43 47 48 49 50 52 51 49 46 52 60 64 70 68 76 66 71 69 73 76 60 40 36 34 34
73 63 76 96 97 96 100 97 100 97 97 94 62 62 60 55 55 51 47 48 49 50 51 51 56 54 64 65 74 81 82 83 85 89 98 93 86 78 62 44 41 40 38
64 77 97 100 99 95 100 98 98 100 99 98 89 84 78 74 62 63 68 56 57 59 57 70 66 68 83 81 78 88 98 95 100 99 98 99 97 90 88 77 58 54 47
90 85 99 100 98 84 96 97 98 99 99 100 87 89 97 98 91 89 96 98 94 99 98 84 84 86 99 92 90 91 98 92 96 97 99 100 98 84 92 99 94 83 82
99 99 94 100 87 97 100 100 99 100 99 99 91 96 98 98 98 98 98 98 100 98 98 97 96 90 95 84 89 80 80 89 97 80 99 99 91 80 86 97 99 100 97
94 96 98 85 83 93 93 99 94 99 96 94 86 92 98 99 98 100 97 100 99 96 94 98 98 99 91 78 80 90 92 95 92 89 87 94 94 95 98 100 100 100 100
99 98 100 99 99 99 99 100 97 86 88 83 91 90 98 98 96 100 98 94 91 96 94 85 85 79 99 91 96 83 98 79 89 86 86 92 96 99 88 100 99 97 89
100 100 98 93 91 89 87 86 84 86 90 95 90 91 98 99 98 99 92 95 97 93 94 97 98 99 96 97 98 97 92 85 82 88 89 84 91 95 94 99 100 100 94
100 100 99 93 90 90 85 81 76 74 74 72 71 69 73 80 79 83 86 85 86 80 86 87 89 92 92 90 86 83 77 88 85 90 87 83 84 91 100 100 98 99 100
98 97 95 90 77 71 69 64 59 58 60 64 67 65 62 62 65 62 62 63 64 65 72 73 70 74 68 68 67 69 78 77 81 83 76 74 75 89 93 92 98 98 90
62 59 55 54 48 45 42 40 40 41 43 51 59 60 57 56 58 56 54 57 60 66 75 77 75 72 70 65 75 72 72 76 80 70 67 72 74 78 82 85 88 87 74
51 48 46 44 41 39 37 37 37 37 38 45 50 47 49 53 60 64 59 56 57 62 68 73 78 77 78 78 79 76 80 86 74 66 65 68 66 70 76 75 71 68 62
44 43 41 40 40 40 39 39 38 37 38 39 38 37 41 55 64 64 64 65 66 70 76 82 86 87 88 83 76 83 95 87 76 72 71 69 68 70 72 76 67 55 48
45 43 42 42 41 39 38 37 39 38 38 39 41 43 43 43 42 39 38 43 62 72 79 79 76 72 70 72 88 94 99 90 85 84 80 74 70 73 68 59 49 44 38
33 30 28 27 24 22 21 22 24 26 29 33 36 39 41 43 48 49 48 46 42 39 42 48 58 63 71 77 98 98 98 96 92 93 86 79 60 66 56 46 42 39 40
10 8 8 8 8 8 7 7 7 7 7 7 8 11 18 26 32 41 49 52 51 50 47 42 40 45 63 80 100 100 100 97 96 98 88 82 63 65 51 46 43 41 37
8 7 7 6 6 6 5 5 5 4 4 4 4 5 6 7 12 22 32 45 56 57 56 56 53 49 45 59 89 100 100 100 100 99 98 86 76 60 50 47 44 42 40
8 8 8 8 7 7 7 6 5 4 4 3 3 3 3 3 5 13 28 39 44 53 66 65 62 64 60 56 59 87 100 100 100 100 96 89 81 59 51 46 43 40 40
10 11 11 14 15 14 14 13 16 19 22 28 28 21 10 6 4 5 19 52 58 58 54 64 72 74 72 73 68 61 75 98 99 100 96 92 82 59 52 49 45 44 47
10 10 10 12 11 11 11 10 10 17 22 37 40 44 53 47 28 15 10 9 22 63 71 64 66 76 82 86 76 70 70 80 95 100 99 94 81 60 56 53 48 47 51
11 10 10 10 9 7 6 6 5 8 20 34 51 58 58 68 66 55 37 24 20 16 50 68 68 73 79 99 84 83 79 84 77 99 100 96 77 62 59 56 54 56 54
12 11 11 10 9 7 6 6 6 5 12 31 46 66 69 69 74 69 69 56 43 24 42 77 72 64 80 95 98 92 91 75 81 98 100 95 76 66 65 63 62 60 62
13 12 11 9 8 7 7 6 8 14 26 36 50 70 74 64 78 84 90 87 49 32 77 94 81 72 72 100 100 100 94 79 98 100 97 93 74 70 72 69 65 62 73
14 11 10 9 9 8 8 7 9 16 29 44 55 74 89 87 88 95 99 93 53 50 100 100 98 83 73 74 97 97 98 91 96 99 100 85 74 76 80 78 69 71 81
12 11 11 10 10 10 10 10 13 21 39 46 50 76 89 91 82 95 76 72 69 70 76 96 98 79 80 85 98 99 98 99 99 99 97 83 81 85 87 81 72 84 91

GFSMW_700_rhum_111.txt.gz
RH
39 41 29 36 65 81 83 88 100 100 94 88 99 99 97 66 47 31 40 25 31 37 49 50 50 51 50 49 50 48 45 46 52 52 59 56 58 57 52 51 46 41 34
28 23 31 54 74 85 88 99 100 100 93 100 100 99 97 69 60 35 29 33 32 42 49 50 50 50 50 51 49 46 49 59 63 74 74 87 77 63 56 63 69 54 38
44 30 35 59 67 84 85 100 99 97 92 100 93 99 99 93 80 57 44 42 37 44 49 48 49 50 50 56 55 56 63 76 80 88 89 98 95 87 79 78 79 55 42
61 65 66 71 84 87 78 99 99 100 99 91 96 100 96 95 99 94 75 57 58 55 53 53 50 52 55 60 68 77 72 82 94 83 77 99 100 99 97 94 94 94 94
80 79 95 99 82 87 90 97 99 100 97 98 97 94 83 83 86 83 70 59 60 62 56 61 71 81 97 98 100 97 96 94 93 84 94 98 85 100 99 99 87 95 97
81 99 99 87 98 100 96 91 99 99 97 99 99 96 93 78 78 86 72 75 78 83 74 85 91 97 98 98 98 95 96 98 86 83 92 84 95 99 79 85 92 90 96
100 100 98 99 100 100 100 99 100 99 100 100 100 100 99 98 100 99 98 98 99 96 90 97 98 98 98 99 100 99 99 96 85 98 99 74 89 84 97 100 96 99 99
99 98 100 100 99 100 93 100 99 100 99 100 99 100 100 100 96 96 99 99 100 96 92 100 100 100 97 98 98 97 98 99 99 91 100 84 90 87 90 100 100 100 99
99 100 100 100 100 96 94 95 98 93 92 100 97 97 97 94 95 98 100 100 96 99 99 99 98 97 98 100 97 99 98 99 100 91 85 95 97 90 98 96 99 100 99
100 100 100 100 99 96 92 88 86 82 79 85 94 97 95 100 99 100 99 100 100 100 94 98 92 92 93 97 99 98 100 98 99 88 96 89 90 89 90 97 100 96 99
98 96 97 96 83 75 72 69 66 65 67 69 71 72 73 73 76 85 86 89 96 98 93 98 99 96 92 83 85 91 91 90 78 79 85 80 81 78 79 87 97 100 100
76 56 49 45 42 41 39 38 37 37 41 48 57 62 65 66 63 64 64 65 66 66 69 73 78 80 78 78 77 74 76 73 69 74 79 82 80 74 67 71 80 80 84
48 47 46 43 43 41 40 37 36 34 34 33 32 34 35 38 42 47 50 53 62 62 62 68 78 80 80 80 80 77 75 76 74 77 81 82 72 67 69 78 75 72 76
46 46 47 44 43 43 40 40 39 39 39 39 38 37 36 34 33 38 53 60 55 49 47 50 56 66 78 82 87 89 86 79 82 80 86 77 67 66 74 72 69 72 70
39 38 36 38 36 35 34 33 33 31 31 32 33 35 36 38 38 39 39 35 34 38 42 44 56 61 61 74 83 87 84 83 96 99 91 79 76 77 80 77 73 67 64
24 19 13 11 10 8 8 7 7 8 8 8 9 12 17 25 33 38 40 39 41 42 40 38 37 39 57 69 64 61 63 77 99 100 92 90 90 88 87 74 70 64 52
9 9 8 7 6 6 5 5 6 5 5 5 5 5 5 5 7 8 15 28 36 45 51 48 45 42 40 40 46 55 58 74 100 100 99 98 97 97 92 87 71 60 50
9 8 8 8 8 8 8 8 7 7 6 6 5 5 5 5 4 4 5 7 12 22 32 51 58 53 48 49 49 48 62 98 86 99 100 98 98 99 94 79 74 57 51
10 10 10 10 10 10 8 7 6 6 6 6 4 4 3 3 3 3 3 3 4 8 22 38 49 66 66 60 61 62 56 65 99 92 98 97 99 96 94 80 71 56 49
12 11 12 11 11 10 9 8 7 7 7 6 6 5 5 5 6 5 7 8 16 13 11 10 47 61 63 79 76 74 74 77 83 100 99 100 99 95 90 77 74 56 51
12 12 12 12 11 10 10 9 8 8 7 7 7 8 15 16 22 27 28 23 23 31 29 27 15 20 61 66 91 88 86 99 100 100 100 100 100 97 88 77 75 58 54
14 13 13 12 11 10 10 10 9 8 8 10 12 12 12 18 29 46 57 54 49 44 40 47 40 21 26 64 67 83 96 99 100 100 100 100 100 100 100 90 79 58 57
17 16 15 14 12 12 11 10 10 9 9 11 15 17 20 33 43 52 66 68 54 47 57 62 63 53 30 71 76 69 76 96 99 100 99 100 99 99 100 100 81 62 60
19 18 16 15 13 12 11 10 10 9 10 10 14 16 19 32 56 74 82 81 75 74 69 74 86 100 55 85 100 95 91 88 96 100 100 99 99 100 100 100 78 66 66
20 19 18 16 16 14 12 10 10 10 10 12 14 14 17 37 56 77 94 96 87 94 93 98 100 100 96 44 95 100 94 88 93 100 98 98 96 99 100 100 77 75 70
20 20 18 18 16 13 11 10 10 11 12 13 12 14 26 50 63 82 90 97 95 94 93 98 95 93 62 100 87 98 98 100 88 98 91 93 95 99 100 98 84 81 78

GFSMW_700_rhum_114.txt.gz
RH
41 55 54 48 22 29 34 60 69 80 87 94 99 92 97 98 87 86 99 100 98 91 31 29 38 50 53 52 51 51 50 49 48 50 52 53 53 52 55 51 52 53 53
47 38 28 26 33 34 44 50 69 85 92 98 98 93 99 97 99 99 73 85 96 70 38 31 40 51 52 51 51 50 50 50 46 49 55 62 63 57 79 65 66 64 70
44 28 33 27 38 36 42 47 73 92 92 97 99 92 88 100 98 95 90 60 62 60 39 34 43 52 52 51 51 51 52 50 56 70 83 85 82 83 87 81 85 85 84
65 59 50 27 28 44 61 76 69 70 75 96 100 99 100 100 93 96 82 53 41 59 38 38 46 50 52 55 61 58 61 72 90 91 90 89 89 69 89 86 79 97 99
65 54 79 76 72 77 75 64 69 76 86 96 100 100 100 97 100 99 94 85 60 41 40 42 47 49 49 54 59 79 90 95 98 97 96 92 87 86 91 77 74 99 98
47 85 98 96 95 94 87 82 73 66 96 98 100 99 99 100 100 100 100 98 96 86 74 76 79 79 76 82 82 81 100 99 98 96 97 92 78 75 83 71 92 100 100
91 99 100 98 100 99 98 97 90 89 98 100 99 100 100 99 98 100 100 100 100 98 93 97 96 94 85 98 100 99 100 98 96 96 90 92 88 80 90 80 100 91 88
95 99 100 99 100 100 100 100 100 100 100 100 100 100 98 99 99 98 99 98 98 97 91 94 98 96 98 100 99 99 99 100 99 99 100 98 97 95 96 83 98 96 94
99 99 99 100 100 100 100 99 100 100 98 100 100 100 99 100 100 100 99 95 98 97 95 96 99 99 100 99 100 98 98 99 99 98 98 99 98 100 99 96 83 91 98
100 100 100 100 98 99 98 96 97 98 99 100 100 97 99 100 100 98 98 98 100 99 99 99 100 98 98 98 100 100 98 98 97 98 100 100 100 94 93 94 91 90 96
94 93 65 59 59 58 59 61 63 58 62 72 81 86 96 99 99 97 99 100 100 100 98 98 99 100 100 99 98 99 100 100 89 90 100 99 92 72 95 100 98 96 100
55 55 52 50 44 40 39 39 40 39 38 36 38 47 52 56 58 56 56 60 69 78 88 90 94 99 99 99 97 98 98 91 98 90 90 99 99 99 98 99 100 99 96
54 53 51 47 44 42 42 41 40 38 36 33 30 28 28 29 28 28 34 38 47 52 56 48 51 59 69 85 92 94 89 82 80 87 89 88 97 97 98 94 95 84 83
52 49 45 44 44 43 43 42 40 39 38 38 38 36 36 34 33 30 30 34 35 38 46 54 57 54 52 52 52 62 70 74 76 74 80 80 94 89 93 88 77 76 84
42 40 35 30 26 22 21 19 17 16 18 21 26 30 33 34 34 34 35 34 33 33 35 36 44 48 56 67 76 79 76 76 74 75 71 81 92 91 92 81 75 84 82
16 10 9 8 8 7 7 6 6 6 6 6 6 5 6 6 6 7 12 24 35 39 41 40 36 35 33 41 62 78 87 89 86 86 83 73 95 98 90 81 83 87 88
10 9 8 8 8 8 8 8 8 8 7 7 7 7 7 7 7 6 5 5 6 9 21 38 49 50 46 42 43 59 73 79 79 74 68 94 89 98 92 87 89 90 86
10 10 11 11 11 11 10 10 10 11 11 11 10 10 10 9 8 8 8 7 5 5 5 5 9 26 50 56 53 54 59 66 67 76 78 100 95 99 100 100 97 95 94
13 14 14 14 13 12 12 12 12 11 10 10 9 9 9 8 8 7 6 4 4 4 6 8 10 9 12 45 67 70 65 59 84 98 85 99 96 99 99 99 95 92 92
16 16 15 15 15 14 14 14 14 13 13 12 12 11 10 9 8 8 7 6 5 5 4 8 13 20 20 14 32 68 82 76 74 100 99 89 99 100 94 95 99 98 89
19 19 18 17 17 16 16 15 15 14 14 13 12 11 10 8 8 8 7 7 7 7 6 7 15 34 41 42 27 24 50 77 84 94 99 100 86 96 100 98 99 99 98
21 20 20 19 18 17 16 15 14 13 12 11 10 9 10 10 9 8 8 9 10 9 9 19 40 46 46 56 63 30 32 55 73 86 88 96 97 98 93 92 100 90 93
23 22 20 19 18 18 16 14 11 8 6 5 6 7 8 10 11 11 11 10 11 25 36 44 59 63 61 50 68 69 36 80 69 71 87 92 97 97 89 99 99 95 92
23 23 21 20 19 17 14 9 5 5 6 7 8 10 12 12 12 14 23 31 37 51 64 71 76 67 65 72 91 85 42 56 87 78 81 96 99 99 75 100 97 98 93
24 23 20 19 17 13 8 5 6 7 9 11 13 16 16 16 20 41 53 54 63 84 86 82 82 69 68 95 99 98 73 53 87 88 98 99 98 96 85 88 99 99 98
24 21 20 17 12 6 5 6 8 10 12 15 20 20 21 24 45 57 51 83 97 94 93 93 88 75 78 93 97 96 72 84 90 90 96 100 90 97 94 88 76 99 94

GFSMW_700_rhum_117.txt.gz
RH
14 17 54 81 69 52 44 39 29 34 31 35 48 58 82 80 93 88 100 87 93 95 100 50 31 38 32 37 50 53 51 51 52 50 49 50 51 51 50 50 48 47 51
20 12 18 73 74 58 39 31 19 13 21 51 67 73 76 84 94 88 88 95 95 97 100 98 73 39 30 42 52 54 51 52 51 50 49 50 51 51 53 56 55 63 68
28 22 22 33 64 53 36 27 19 25 39 54 66 73 79 88 87 81 78 92 96 97 100 100 75 39 35 45 52 54 52 52 51 51 51 50 51 64 83 74 75 87 86
68 64 42 44 44 48 31 18 30 30 34 43 71 67 71 99 84 83 95 93 98 100 100 99 91 45 40 45 52 56 53 53 53 55 56 75 80 88 86 84 83 86 85
70 68 57 45 31 22 19 20 30 31 39 57 71 75 85 97 94 99 100 96 99 100 100 98 96 68 46 47 56 58 54 55 58 72 86 99 95 92 94 86 83 87 82
68 59 63 70 51 79 43 27 24 45 56 66 90 96 100 97 98 96 100 100 99 98 100 97 96 69 50 58 61 54 55 64 80 94 97 98 99 99 98 98 88 80 78
74 64 93 91 99 98 94 79 61 69 80 90 92 96 98 100 100 99 99 100 98 97 98 96 97 90 71 80 69 67 73 81 93 100 96 98 98 99 99 100 100 92 84
74 94 99 100 99 100 100 97 92 100 100 100 100 99 100 99 100 100 100 100 100 100 100 99 99 99 98 98 97 92 94 96 98 99 100 99 98 98 99 100 95 100 96
99 99 99 100 99 99 100 100 100 100 100 100 99 99 100 98 98 98 99 100 99 99 99 98 98 100 100 94 99 99 97 98 99 100 97 98 99 100 97 99 99 99 98
99 100 99 98 97 98 100 100 100 100 100 100 100 100 99 99 100 100 99 100 99 100 99 100 98 98 99 98 100 100 99 100 100 100 98 100 98 100 99 99 99 100 98
89 71 70 57 58 61 75 72 82 79 77 78 77 77 96 99 96 98 98 97 99 99 99 98 98 100 100 99 100 100 100 99 100 100 100 99 100 98 97 100 100 99 99
55 57 56 49 47 42 40 40 40 41 45 56 68 80 89 86 83 79 76 68 64 62 89 97 94 99 98 100 99 100 99 99 100 100 100 100 99 93 98 100 98 100 94
58 52 53 48 44 44 44 43 38 35 33 33 34 36 37 37 39 46 48 54 58 62 60 59 57 56 62 59 55 49 64 84 96 100 100 98 100 95 95 99 90 89 99
48 46 42 40 37 35 33 34 34 35 36 36 33 33 33 33 34 33 32 32 32 36 38 43 50 53 56 58 62 64 78 90 84 87 88 89 91 93 98 97 99 100 100
29 21 14 10 8 8 7 7 6 6 6 7 8 9 12 16 20 25 29 33 34 34 34 36 42 53 62 63 65 65 66 72 80 90 91 87 88 88 90 89 88 95 100
10 10 9 9 9 9 8 8 8 8 7 7 7 7 6 6 6 6 5 5 5 5 9 18 31 39 44 54 76 87 84 79 79 79 86 90 89 89 91 89 91 94 99
12 11 11 11 12 12 12 12 11 11 10 10 10 10 9 9 9 10 10 9 9 8 7 6 5 6 11 30 48 56 61 84 92 92 91 94 96 98 99 99 99 100 100
13 13 14 15 15 14 13 13 12 12 11 10 8 6 5 5 4 4 4 5 8 9 8 7 6 6 7 7 8 26 54 63 62 85 97 96 94 99 89 99 94 99 100
15 16 16 16 16 16 15 15 13 12 10 9 9 10 10 10 10 10 11 10 9 9 9 9 9 8 7 7 7 9 10 26 64 74 72 89 94 97 96 94 98 100 99
17 18 19 19 18 17 16 15 14 13 11 10 10 10 9 8 8 8 8 8 9 10 10 10 10 9 8 11 16 30 23 12 10 44 80 78 93 92 96 100 99 99 98
19 22 21 20 19 17 16 15 13 9 6 5 5 5 5 5 6 7 7 8 7 7 7 8 8 8 8 8 16 41 59 40 24 11 29 73 83 95 79 96 98 99 99
21 25 22 21 20 17 14 11 6 4 4 5 6 6 7 7 8 9 11 12 13 13 12 11 11 12 12 12 22 51 62 62 50 27 20 36 76 90 99 94 100 95 97
24 26 22 21 18 16 12 5 4 4 4 4 4 5 5 6 8 9 11 13 15 24 41 42 33 24 34 46 59 72 76 65 62 50 28 59 81 94 94 98 94 92 99
29 26 24 21 18 12 4 4 4 4 5 5 6 6 7 9 11 13 16 16 24 42 58 68 72 70 71 80 92 100 88 68 65 64 45 36 83 100 100 100 100 92 99
30 25 22 19 14 4 4 5 5 5 5 6 7 7 8 11 14 17 19 29 54 72 90 94 91 87 81 82 94 100 92 93 95 94 70 84 92 100 98 99 99 97 98
27 24 20 16 6 4 5 5 5 6 6 6 7 8 10 16 19 20 18 41 67 86 98 100 100 96 94 89 94 100 93 93 100 96 95 74 100 100 100 100 99 95 98